[[{"header":{"parameterUnit":"m.s-1","parameterCategory":1,"la1":30.6,"la2":28.766,"lo1":-90.7593,"lo2":-88.6598,"dy":0.0162,"dx":0.0183,"nx":116,"ny":114,"refTime":"2023-05-20T12:00:00:Z","depth":0,"parameterNumber":2,"parameterNumberName":"U-component_of_WINDS"},"data":[0.0,0.0,0.0,0.0,0.0,0.0,0.0,0.0,0.0,0.0,0.0,0.0,0.0,0.0,0.0,0.0,0.0,0.0,0.0,0.0,0.0,0.0,0.0,0.0,0.0,0.0,0.0,0.0,0.0,0.0,0.0,0.0,0.0,0.0,0.0,0.0,0.0,0.0,0.0,0.0,0.0,0.0,0.0,0.0,0.0,0.0,0.0,0.0,0.0,0.0,0.0,0.0,0.0,0.0,0.0,0.0,0.0,0.0,0.0,0.0,0.0,0.0,0.0,0.0,0.0,0.0,0.0,0.0,0.0,0.0,0.0,0.0,0.0,0.0,0.0,0.0,0.0,0.0,0.0,0.0,0.0,0.0,0.0,0.0,0.0,0.0,0.0,0.0,0.0,0.0,0.0,0.0,0.0,0.0,0.0,0.0,0.0,0.0,0.0,0.0,0.0,0.0,0.0,0.0,0.0,0.0,0.0,0.0,0.0,0.0,0.0,0.0,0.0,0.0,0.0,0.0,0.0,0.0,0.0,0.0,0.0,0.0,0.0,0.0,0.0,0.0,0.0,0.0,0.0,0.0,0.0,0.0,0.0,0.0,0.0,0.0,0.0,0.0,0.0,0.0,0.0,0.0,0.0,0.0,0.0,0.0,0.0,0.0,0.0,0.0,0.0,0.0,0.0,0.0,0.0,0.0,0.0,0.0,0.0,0.0,0.0,0.0,0.0,0.0,0.0,0.0,0.0,0.0,0.0,0.0,0.0,0.0,0.0,0.0,0.0,0.0,0.0,0.0,0.0,0.0,0.0,0.0,0.0,0.0,0.0,0.0,0.0,0.0,0.0,0.0,0.0,0.0,0.0,0.0,0.0,0.0,0.0,0.0,0.0,0.0,0.0,0.0,0.0,0.0,0.0,0.0,0.0,0.0,0.0,0.0,0.0,0.0,0.0,0.0,0.0,0.0,0.0,0.0,0.0,0.0,0.0,0.0,0.0,0.0,0.0,0.0,0.0,0.0,0.0,0.0,0.0,0.0,0.0,0.0,0.0,0.0,0.0,0.0,0.0,0.0,0.0,0.0,0.0,0.0,0.0,0.0,0.0,0.0,0.0,0.0,0.0,0.0,0.0,0.0,0.0,0.0,0.0,0.0,0.0,0.0,0.0,0.0,0.0,0.0,0.0,0.0,0.0,0.0,0.0,0.0,0.0,0.0,0.0,0.0,0.0,0.0,0.0,0.0,0.0,0.0,0.0,0.0,0.0,0.0,0.0,0.0,0.0,0.0,0.0,0.0,0.0,0.0,0.0,0.0,0.0,0.0,0.0,0.0,0.0,0.0,0.0,0.0,0.0,0.0,0.0,0.0,0.0,0.0,0.0,0.0,0.0,0.0,0.0,0.0,0.0,0.0,0.0,0.0,0.0,0.0,0.0,0.0,0.0,0.0,0.0,0.0,0.0,0.0,0.0,0.0,0.0,0.0,0.0,0.0,0.0,0.0,0.0,0.0,0.0,0.0,0.0,0.0,0.0,0.0,0.0,0.0,0.0,0.0,0.0,0.0,0.0,0.0,0.0,0.0,0.0,0.0,0.0,0.0,0.0,0.0,0.0,0.0,0.0,0.0,0.0,0.0,0.0,0.0,0.0,0.0,0.0,0.0,0.0,0.0,0.0,0.0,0.0,0.0,0.0,0.0,0.0,0.0,0.0,0.0,0.0,0.0,0.0,0.0,0.0,0.0,0.0,0.0,0.0,0.0,0.0,0.0,0.0,0.0,0.0,0.0,0.0,0.0,0.0,0.0,0.0,0.0,0.0,0.0,0.0,0.0,0.0,0.0,0.0,0.0,0.0,0.0,0.0,0.0,0.0,0.0,0.0,0.0,0.0,0.0,0.0,0.0,0.0,0.0,0.0,0.0,0.0,0.0,0.0,0.0,0.0,0.0,0.0,0.0,0.0,0.0,0.0,0.0,0.0,0.0,0.0,0.0,0.0,0.0,0.0,0.0,0.0,0.0,0.0,0.0,0.0,0.0,0.0,0.0,0.0,0.0,0.0,0.0,0.0,0.0,0.0,0.0,0.0,0.0,0.0,0.0,0.0,0.0,0.0,0.0,0.0,0.0,0.0,0.0,0.0,0.0,0.0,0.0,0.0,0.0,0.0,0.0,0.0,0.0,0.0,0.0,0.0,0.0,0.0,0.0,0.0,0.0,0.0,0.0,0.0,0.0,0.0,0.0,0.0,0.0,0.0,0.0,0.0,0.0,0.0,0.0,0.0,0.0,0.0,0.0,0.0,0.0,0.0,0.0,0.0,0.0,0.0,0.0,0.0,0.0,0.0,0.0,0.0,0.0,0.0,0.0,0.0,0.0,0.0,0.0,0.0,0.0,0.0,0.0,0.0,0.0,0.0,0.0,0.0,0.0,0.0,0.0,0.0,0.0,0.0,0.0,0.0,0.0,0.0,0.0,0.0,0.0,0.0,0.0,0.0,0.0,0.0,0.0,0.0,0.0,0.0,0.0,0.0,0.0,0.0,0.0,0.0,0.0,0.0,0.0,0.0,0.0,0.0,0.0,0.0,0.0,0.0,0.0,0.0,0.0,0.0,0.0,0.0,0.0,0.0,0.0,0.0,0.0,0.0,0.0,0.0,0.0,0.0,0.0,0.0,0.0,0.0,0.0,0.0,0.0,0.0,0.0,0.0,0.0,0.0,0.0,0.0,0.0,0.0,0.0,0.0,0.0,0.0,0.0,0.0,0.0,0.0,0.0,0.0,0.0,0.0,0.0,0.0,0.0,0.0,0.0,0.0,0.0,0.0,0.0,0.0,0.0,0.0,0.0,0.0,0.0,0.0,0.0,0.0,0.0,0.0,0.0,0.0,0.0,0.0,0.0,0.0,0.0,0.0,0.0,0.0,0.0,0.0,0.0,0.0,0.0,0.0,0.0,0.0,0.0,0.0,0.0,0.0,0.0,0.0,0.0,0.0,0.0,0.0,0.0,0.0,0.0,0.0,0.0,0.0,0.0,0.0,0.0,0.0,0.0,0.0,0.0,0.0,0.0,0.0,0.0,0.0,0.0,0.0,0.0,0.0,0.0,0.0,0.0,0.0,0.0,0.0,0.0,0.0,0.0,0.0,0.0,0.0,0.0,0.0,0.0,0.0,0.0,0.0,0.0,0.0,0.0,0.0,0.0,0.0,0.0,0.0,0.0,0.0,0.0,0.0,0.0,0.0,0.0,0.0,0.0,0.0,0.0,0.0,0.0,0.0,0.0,0.0,0.0,0.0,0.0,0.0,0.0,0.0,0.0,0.0,0.0,0.0,0.0,0.0,0.0,0.0,0.0,0.0,0.0,0.0,0.0,0.0,0.0,0.0,0.0,0.0,0.0,0.0,0.0,0.0,0.0,0.0,0.0,0.0,0.0,0.0,0.0,0.0,0.0,0.0,0.0,0.0,0.0,0.0,0.0,0.0,0.0,0.0,0.0,0.0,0.0,0.0,0.0,0.0,0.0,0.0,0.0,0.0,0.0,0.0,0.0,0.0,0.0,0.0,0.0,0.0,0.0,0.0,0.0,0.0,0.0,0.0,0.0,0.0,0.0,0.0,0.0,0.0,0.0,0.0,0.0,0.0,0.0,0.0,0.0,0.0,0.0,0.0,0.0,0.0,0.0,0.0,0.0,0.0,0.0,0.0,0.0,0.0,0.0,0.0,0.0,0.0,0.0,0.0,0.0,0.0,0.0,0.0,0.0,0.0,0.0,0.0,0.0,0.0,0.0,0.0,0.0,0.0,0.0,0.0,0.0,0.0,0.0,0.0,0.0,0.0,0.0,0.0,0.0,0.0,0.0,0.0,0.0,0.0,0.0,0.0,0.0,0.0,0.0,0.0,0.0,0.0,0.0,0.0,0.0,0.0,0.0,0.0,0.0,0.0,0.0,0.0,0.0,0.0,0.0,0.0,0.0,0.0,0.0,0.0,0.0,0.0,0.0,0.0,0.0,0.0,0.0,0.0,0.0,0.0,0.0,0.0,0.0,0.0,0.0,0.0,0.0,0.0,0.0,0.0,0.0,0.0,0.0,0.0,0.0,0.0,0.0,0.0,0.0,0.0,0.0,0.0,0.0,0.0,0.0,0.0,0.0,0.0,0.0,0.0,0.0,0.0,0.0,0.0,0.0,0.0,0.0,0.0,0.0,0.0,0.0,0.0,0.0,0.0,0.0,0.0,0.0,0.0,0.0,0.0,0.0,0.0,0.0,0.0,0.0,0.0,0.0,0.0,0.0,0.0,0.0,0.0,0.0,0.0,0.0,0.0,0.0,0.0,0.0,0.0,0.0,0.0,0.0,0.0,0.0,0.0,0.0,0.0,0.0,0.0,0.0,0.0,0.0,0.0,0.0,0.0,0.0,0.0,0.0,0.0,0.0,0.0,0.0,0.0,0.0,0.0,0.0,0.0,0.0,0.0,0.0,0.0,0.0,0.0,0.0,0.0,0.0,0.0,0.0,0.0,0.0,0.0,0.0,0.0,0.0,0.0,0.0,0.0,0.0,0.0,0.0,0.0,0.0,0.0,0.0,0.0,0.0,0.0,0.0,0.0,0.0,0.0,0.0,0.0,0.0,0.0,0.0,0.0,0.0,0.0,0.0,0.0,0.0,0.0,0.0,0.0,0.0,0.0,0.0,0.0,0.0,0.0,0.0,0.0,0.0,0.0,0.0,0.0,0.0,0.0,0.0,0.0,0.0,0.0,0.0,0.0,0.0,0.0,0.0,0.0,0.0,0.0,0.0,0.0,0.0,0.0,0.0,0.0,0.0,0.0,0.0,0.0,0.0,0.0,0.0,0.0,0.0,0.0,0.0,0.0,0.0,0.0,0.0,0.0,0.0,0.0,0.0,0.0,0.0,0.0,0.0,0.0,0.0,0.0,0.0,0.0,0.0,0.0,0.0,0.0,0.0,0.0,0.0,0.0,0.0,0.0,0.0,0.0,0.0,0.0,0.0,0.0,0.0,0.0,0.0,0.0,0.0,0.0,0.0,0.0,0.0,0.0,0.0,0.0,0.0,0.0,0.0,0.0,0.0,0.0,0.0,0.0,0.0,0.0,0.0,0.0,0.0,0.0,0.0,0.0,0.0,0.0,0.0,0.0,0.0,0.0,0.0,0.0,0.0,0.0,0.0,0.0,0.0,0.0,0.0,0.0,0.0,0.0,0.0,0.0,0.0,0.0,0.0,0.0,0.0,0.0,0.0,0.0,0.0,0.0,0.0,0.0,0.0,0.0,0.0,0.0,0.0,0.0,0.0,0.0,0.0,0.0,0.0,0.0,0.0,0.0,0.0,0.0,0.0,0.0,0.0,0.0,0.0,0.0,0.0,0.0,0.0,0.0,0.0,0.0,0.0,0.0,0.0,0.0,0.0,0.0,0.0,0.0,0.0,0.0,0.0,0.0,0.0,0.0,0.0,0.0,0.0,0.0,0.0,0.0,0.0,0.0,0.0,0.0,0.0,0.0,0.0,0.0,0.0,0.0,0.0,0.0,0.0,0.0,0.0,0.0,0.0,0.0,0.0,0.0,0.0,0.0,0.0,0.0,0.0,0.0,0.0,0.0,0.0,0.0,0.0,0.0,0.0,0.0,0.0,0.0,0.0,0.0,0.0,0.0,0.0,0.0,0.0,0.0,0.0,0.0,0.0,0.0,0.0,0.0,0.0,0.0,0.0,0.0,0.0,0.0,0.0,0.0,0.0,0.0,0.0,0.0,0.0,0.0,0.0,0.0,0.0,0.0,0.0,0.0,0.0,0.0,0.0,0.0,0.0,0.0,0.0,0.0,0.0,0.0,0.0,0.0,0.0,0.0,0.0,0.0,0.0,0.0,0.0,0.0,0.0,0.0,0.0,0.0,0.0,0.0,0.0,0.0,0.0,0.0,0.0,0.0,0.0,0.0,0.0,0.0,0.0,0.0,0.0,0.0,0.0,0.0,0.0,0.0,0.0,0.0,0.0,0.0,0.0,0.0,0.0,0.0,0.0,0.0,0.0,0.0,0.0,0.0,0.0,0.0,0.0,0.0,0.0,0.0,0.0,0.0,0.0,0.0,0.0,0.0,0.0,0.0,0.0,0.0,0.0,3.8927,3.945,0.0,0.0,0.0,0.0,0.0,0.0,0.0,0.0,0.0,0.0,0.0,0.0,0.0,0.0,0.0,0.0,0.0,0.0,0.0,0.0,0.0,0.0,0.0,0.0,0.0,0.0,0.0,0.0,0.0,0.0,0.0,0.0,0.0,0.0,0.0,0.0,0.0,0.0,0.0,0.0,0.0,0.0,0.0,0.0,0.0,0.0,0.0,0.0,0.0,0.0,0.0,0.0,0.0,0.0,0.0,0.0,0.0,0.0,0.0,0.0,0.0,0.0,0.0,0.0,0.0,0.0,0.0,0.0,0.0,0.0,0.0,0.0,0.0,0.0,0.0,0.0,0.0,0.0,0.0,0.0,0.0,0.0,0.0,0.0,0.0,0.0,0.0,0.0,0.0,0.0,0.0,0.0,0.0,0.0,0.0,0.0,0.0,0.0,0.0,0.0,0.0,0.0,0.0,0.0,0.0,0.0,0.0,0.0,0.0,0.0,0.0,0.0,0.0,0.0,4.0456,4.0046,0.0,0.0,0.0,0.0,0.0,0.0,0.0,0.0,0.0,0.0,0.0,0.0,0.0,0.0,0.0,0.0,0.0,0.0,0.0,0.0,0.0,0.0,0.0,0.0,0.0,0.0,0.0,0.0,0.0,0.0,0.0,0.0,0.0,0.0,0.0,0.0,0.0,0.0,0.0,0.0,0.0,0.0,0.0,0.0,0.0,0.0,0.0,0.0,0.0,0.0,0.0,0.0,0.0,0.0,0.0,0.0,0.0,0.0,0.0,0.0,0.0,0.0,0.0,0.0,0.0,0.0,0.0,0.0,0.0,0.0,0.0,0.0,0.0,0.0,0.0,0.0,0.0,0.0,0.0,0.0,0.0,0.0,0.0,0.0,0.0,0.0,0.0,0.0,0.0,0.0,0.0,0.0,0.0,0.0,0.0,0.0,0.0,0.0,0.0,0.0,0.0,0.0,0.0,0.0,0.0,0.0,0.0,0.0,4.3792,4.4342,4.4842,4.5179,4.487,4.4003,4.3094,4.1508,3.9632,4.0538,0.0,0.0,0.0,0.0,0.0,0.0,0.0,0.0,0.0,0.0,0.0,0.0,0.0,0.0,0.0,0.0,0.0,0.0,0.0,0.0,0.0,0.0,3.1733,3.2187,3.2288,3.2252,0.0,0.0,0.0,0.0,0.0,0.0,0.0,0.0,0.0,0.0,0.0,0.0,3.5035,3.5975,3.6881,3.755,3.6315,0.0,0.0,0.0,0.0,0.0,0.0,0.0,0.0,0.0,0.0,0.0,0.0,0.0,0.0,0.0,0.0,0.0,0.0,0.0,0.0,0.0,0.0,0.0,0.0,0.0,0.0,0.0,0.0,0.0,0.0,0.0,0.0,0.0,0.0,0.0,0.0,0.0,0.0,0.0,0.0,0.0,0.0,0.0,3.634,3.645,0.0,0.0,0.0,0.0,0.0,0.0,0.0,0.0,0.0,0.0,0.0,0.0,0.0,4.2781,4.2711,4.4944,4.5801,4.5256,4.6732,4.7126,4.6581,4.6638,4.6939,4.7419,4.6571,0.0,4.0547,3.972,0.0,0.0,0.0,0.0,0.0,0.0,0.0,0.0,0.0,0.0,0.0,0.0,0.0,0.0,0.0,0.0,0.0,0.0,0.0,0.0,0.0,3.1211,3.1852,3.2237,3.3476,3.3298,0.0,0.0,0.0,0.0,0.0,0.0,0.0,0.0,0.0,0.0,3.397,3.5322,3.6146,3.7454,3.8413,3.9106,3.843,3.8041,3.7872,3.7195,0.0,0.0,0.0,0.0,0.0,0.0,0.0,0.0,0.0,0.0,0.0,0.0,0.0,0.0,0.0,0.0,0.0,0.0,0.0,0.0,0.0,0.0,0.0,0.0,0.0,0.0,0.0,0.0,0.0,0.0,0.0,0.0,0.0,0.0,0.0,0.0,0.0,0.0,0.0,3.8248,3.9166,3.7808,3.9772,4.0781,0.0,0.0,0.0,0.0,0.0,0.0,0.0,0.0,0.0,4.252,4.3708,4.452,4.4939,4.6318,4.7296,4.7872,4.8595,4.8987,4.9099,4.9299,4.9452,4.9616,4.9444,4.7732,4.4883,4.2931,4.1193,3.976,0.0,0.0,0.0,0.0,4.0001,4.0664,0.0,0.0,0.0,0.0,0.0,0.0,0.0,0.0,0.0,0.0,0.0,0.0,3.063,3.135,3.2068,3.2809,3.4127,3.3758,3.1052,0.0,0.0,0.0,0.0,0.0,0.0,0.0,0.0,3.3137,3.6088,3.7752,3.8227,3.9715,4.0713,4.1238,4.1238,4.0307,3.8717,3.8142,3.7246,0.0,0.0,0.0,0.0,0.0,0.0,0.0,0.0,0.0,0.0,0.0,0.0,0.0,0.0,0.0,0.0,0.0,0.0,0.0,0.0,0.0,0.0,0.0,0.0,0.0,0.0,0.0,0.0,0.0,0.0,0.0,0.0,0.0,0.0,0.0,0.0,0.0,0.0,3.9533,4.0873,3.8652,4.1075,4.2359,0.0,0.0,0.0,0.0,0.0,0.0,4.2249,4.372,4.458,4.473,4.6157,4.7101,4.7455,4.8457,4.9499,5.0508,5.071,5.1022,5.1408,5.1693,5.1654,5.1408,5.1471,5.0638,4.9005,4.6071,4.3517,4.1378,4.0963,4.0812,4.0813,4.0829,4.1345,4.2166,0.0,0.0,0.0,0.0,0.0,0.0,0.0,0.0,0.0,0.0,0.0,2.8211,3.0456,3.1092,3.2036,3.3775,3.2792,3.2293,3.2738,2.9503,0.0,0.0,0.0,0.0,0.0,0.0,0.0,3.653,3.7445,3.9325,4.2049,4.3589,4.4316,4.435,4.435,4.3115,4.0899,3.8802,3.7872,3.7669,0.0,0.0,0.0,0.0,0.0,0.0,0.0,0.0,0.0,0.0,0.0,0.0,0.0,0.0,0.0,0.0,0.0,0.0,0.0,0.0,0.0,0.0,0.0,0.0,0.0,0.0,0.0,0.0,0.0,0.0,0.0,0.0,0.0,0.0,0.0,0.0,0.0,0.0,0.0,3.7753,4.1717,0.0,0.0,0.0,0.0,4.324,4.3991,4.4764,4.5608,4.7169,4.7701,4.6948,5.0016,5.132,5.0603,5.2858,5.3683,5.3041,5.3794,5.3775,5.3096,5.3078,5.3078,5.3041,5.2293,5.1926,5.1481,4.7463,4.5295,4.434,4.2815,4.2669,4.3222,4.2485,4.2705,4.3183,0.0,0.0,0.0,0.0,0.0,0.0,0.0,0.0,0.0,2.8658,2.9547,3.0516,3.1317,3.3223,3.4599,3.5002,3.5036,3.4345,3.2616,3.1253,0.0,0.0,0.0,0.0,0.0,0.0,3.6629,3.821,4.0882,4.298,4.4519,4.5534,4.6007,4.6007,4.6007,4.5297,4.3893,4.0679,3.8768,3.777,3.6231,3.5453,0.0,0.0,0.0,0.0,0.0,0.0,0.0,0.0,0.0,0.0,0.0,0.0,0.0,0.0,0.0,0.0,0.0,0.0,0.0,0.0,0.0,0.0,0.0,0.0,0.0,0.0,0.0,0.0,0.0,0.0,0.0,0.0,0.0,0.0,0.0,0.0,0.0,4.3626,4.614,0.0,4.5461,4.5149,4.5259,4.5792,4.6562,4.7609,4.8985,5.0086,5.1022,5.1775,5.2931,5.3665,5.3885,5.473,5.4766,5.3977,5.4252,5.3977,5.3206,5.3206,5.3206,5.3188,5.2913,5.2766,5.2619,5.0637,4.8416,4.6214,4.5626,4.5259,4.5057,4.5314,4.5902,4.6434,0.0,0.0,0.0,0.0,0.0,0.0,0.0,0.0,0.0,2.841,3.0037,3.1579,3.2446,3.4603,3.6307,3.7043,3.6451,3.5267,3.3525,3.1908,0.0,0.0,0.0,0.0,0.0,3.6603,3.8781,4.0476,4.3234,4.5213,4.6464,4.6938,4.7293,4.753,4.7276,4.6904,4.6244,4.298,4.046,3.8514,3.7009,3.64,3.618,0.0,0.0,0.0,0.0,0.0,0.0,0.0,0.0,0.0,0.0,0.0,0.0,0.0,0.0,0.0,0.0,0.0,0.0,0.0,0.0,0.0,0.0,0.0,0.0,0.0,0.0,0.0,0.0,0.0,0.0,0.0,0.0,0.0,0.0,0.0,4.6746,4.7829,4.9646,5.0362,4.926,4.8416,4.8288,4.9114,4.9903,5.0967,5.2344,5.317,5.3977,5.4785,5.5335,5.5739,5.5996,5.6271,5.5996,5.5207,5.5207,5.4785,5.4014,5.3739,5.361,5.3592,5.3335,5.3206,5.317,5.2619,5.0967,4.8746,4.8453,4.8031,4.7627,4.8159,4.8691,4.904,0.0,0.0,0.0,0.0,0.0,0.0,0.0,0.0,2.7949,2.8337,2.9461,3.118,3.3753,3.507,3.6941,3.9868,3.6671,3.4793,3.5537,3.1079,0.0,0.0,0.0,0.0,3.6335,3.8142,4.0544,4.3487,4.4299,4.5805,4.7953,4.7953,4.8342,4.8968,4.8257,4.7953,4.78,4.5618,4.2997,4.0189,3.8616,3.7973,3.7804,0.0,0.0,0.0,0.0,0.0,0.0,0.0,0.0,0.0,0.0,0.0,0.0,0.0,0.0,0.0,0.0,0.0,0.0,0.0,0.0,0.0,0.0,0.0,0.0,0.0,0.0,0.0,0.0,0.0,0.0,0.0,0.0,0.0,4.3534,4.7113,4.9682,4.9756,5.1867,5.2711,5.1151,5.1683,5.2472,5.3261,5.4069,5.484,5.5611,5.6418,5.6473,5.5684,5.7189,5.7629,5.6859,5.7611,5.7593,5.6804,5.6804,5.6381,5.5556,5.4785,5.4436,5.4399,5.3592,5.3243,5.3243,5.3225,5.2747,5.1958,5.1187,5.0857,5.0839,5.0875,5.0857,5.0729,0.0,0.0,0.0,0.0,0.0,0.0,0.0,2.7567,2.7838,2.794,3.1129,3.3607,3.4269,3.7068,3.9191,4.002,3.6654,3.4573,3.4793,3.1288,0.0,0.0,0.0,0.0,3.821,4.0341,4.2591,4.5077,4.6363,4.7581,4.8714,4.8714,4.8815,4.9001,4.8798,4.8714,4.8629,4.7479,4.621,4.4637,4.0984,3.9512,3.9343,0.0,0.0,0.0,0.0,0.0,0.0,0.0,0.0,0.0,0.0,0.0,0.0,0.0,0.0,0.0,0.0,0.0,0.0,0.0,0.0,0.0,0.0,0.0,0.0,0.0,0.0,0.0,0.0,0.0,0.0,0.0,0.0,4.6067,4.6874,4.9499,5.1977,5.372,5.506,5.5647,5.5188,5.5354,5.5574,5.5794,5.6565,5.7097,5.7317,5.7556,5.7574,5.7354,5.7758,5.7886,5.7666,5.7886,5.7593,5.6804,5.6804,5.6381,5.5574,5.5354,5.5262,5.5225,5.4418,5.4069,5.4014,5.3445,5.3078,5.2858,5.2637,5.2179,5.1738,5.2325,5.2179,5.1555,0.0,0.0,0.0,0.0,0.0,0.0,0.0,2.6852,2.7121,2.7313,3.1409,3.4402,3.449,3.7838,3.9952,3.9648,3.6772,3.4709,3.4083,3.2224,0.0,0.0,0.0,3.7809,4.0307,4.2574,4.4823,4.709,4.7953,4.8917,4.9932,4.9932,4.9932,4.9932,4.9932,4.9932,4.9881,4.9137,4.8748,4.8359,4.5145,4.3284,4.2269,4.0426,4.0138,4.0612,3.9709,4.0032,4.0689,3.943,0.0,0.0,0.0,0.0,0.0,0.0,0.0,0.0,0.0,0.0,0.0,0.0,0.0,0.0,0.0,0.0,0.0,0.0,0.0,0.0,0.0,0.0,0.0,0.0,4.7572,4.9793,5.161,5.2803,5.4399,5.6822,5.7226,5.7299,5.7299,5.7299,5.7299,5.7299,5.774,5.7997,5.7997,5.7997,5.7997,5.7997,5.7997,5.7997,5.7997,5.7997,5.7776,5.7299,5.7299,5.706,5.6583,5.6253,5.6106,5.6033,5.4895,5.4399,5.4344,5.3537,5.3206,5.3206,0.0,0.0,0.0,0.0,5.2913,5.2344,0.0,0.0,0.0,0.0,0.0,0.0,0.0,2.62,2.6193,2.6737,3.0942,3.3968,3.421,3.7432,3.9377,3.8903,3.6654,3.4726,3.3491,0.0,0.0,3.4507,3.821,4.095,4.2523,4.4874,4.7039,4.9001,4.9171,4.9932,5.1217,5.1217,5.1217,5.1217,5.1217,5.1217,5.1166,5.0507,5.0608,5.1099,4.9779,4.797,4.5838,4.3724,4.3724,4.4648,4.2894,4.2012,4.1622,4.1095,0.0,0.0,0.0,0.0,0.0,0.0,0.0,0.0,0.0,0.0,0.0,0.0,0.0,0.0,0.0,0.0,0.0,0.0,0.0,0.0,0.0,0.0,0.0,0.0,5.0839,5.3555,5.6877,5.6638,5.6895,5.8969,5.8584,5.8107,5.7997,5.7997,5.7997,5.7997,5.8088,5.8107,5.7997,5.8088,0.0,0.0,0.0,5.7997,5.7997,5.7997,5.7997,5.7997,5.7997,5.7997,5.7978,5.7262,5.695,5.6859,5.5335,5.4675,5.4601,5.3702,5.3298,5.3206,5.3206,5.3206,5.3206,5.3206,5.3206,5.2986,0.0,0.0,0.0,0.0,0.0,0.0,0.0,2.5859,2.639,2.7462,3.0802,3.3029,3.2761,3.4962,3.6924,3.8024,3.4928,3.3068,0.0,0.0,3.4159,3.7878,3.9935,4.1965,4.4096,4.6921,4.8578,4.9001,5.0202,5.093,5.1217,5.1217,5.1217,5.1217,5.1217,5.1217,5.12,5.1065,5.1082,5.12,5.0913,4.9813,4.8257,4.7225,4.6633,4.6143,4.4669,4.5145,4.6215,4.4108,4.4115,4.4677,4.3118,0.0,0.0,0.0,0.0,0.0,0.0,0.0,0.0,0.0,0.0,0.0,0.0,0.0,0.0,0.0,0.0,0.0,0.0,0.0,0.0,5.161,5.3739,5.6235,6.0126,5.9979,5.941,5.9226,5.9079,5.8712,5.8052,5.7997,5.7997,5.7997,5.8602,5.8694,5.8033,5.8621,5.8676,5.8015,5.7997,5.7997,5.7997,5.7997,5.7997,5.7997,5.7997,0.0,5.7997,5.7831,5.7776,5.7703,5.6748,5.6345,5.6235,5.4766,5.3794,5.3206,5.3206,5.3206,5.3206,5.3206,5.3206,5.2986,0.0,0.0,0.0,0.0,0.0,0.0,0.0,2.5845,2.6116,2.7116,2.9712,3.1445,3.123,3.3186,3.4523,3.4539,3.2831,3.2053,0.0,3.4607,3.6975,3.9969,4.2608,4.4874,4.6752,4.8595,4.9915,5.0659,5.1403,5.1961,5.2367,5.2367,5.2367,5.2367,5.2367,5.2367,5.2367,5.2367,5.2367,5.2367,5.2367,5.1911,5.1133,4.9999,4.934,4.8866,4.7733,4.7817,4.8269,4.6969,4.6482,4.6239,4.5209,4.4038,4.2796,0.0,0.0,0.0,0.0,0.0,0.0,0.0,0.0,0.0,0.0,0.0,0.0,0.0,0.0,4.4599,0.0,0.0,5.1224,5.4473,5.6363,5.8382,6.119,6.1245,6.086,6.0456,6.0052,5.9648,5.9245,5.8841,5.8767,5.9171,5.8841,5.8602,5.8602,5.8602,5.8419,5.8015,5.7997,5.7997,5.7997,5.7997,5.7997,5.7997,5.7997,5.7997,5.7997,5.7997,5.7997,5.796,5.7152,5.6804,5.6712,5.55,5.4528,5.3812,5.3812,5.3555,5.3206,5.3206,5.3206,5.3041,0.0,0.0,0.0,0.0,0.0,0.0,0.0,0.0,2.5685,2.6586,2.8472,2.9726,2.9668,3.1393,3.207,3.0869,3.1427,0.0,0.0,3.7094,4.0155,4.1796,4.5314,4.7784,4.8968,4.9999,5.1099,5.23,5.2469,5.2858,5.3501,5.3501,5.3585,5.3721,5.3721,5.3788,5.3923,5.3771,5.3721,5.3721,5.3721,5.3636,5.3382,5.2283,5.1775,5.1522,5.0473,4.9588,4.8933,4.883,4.78,4.6655,4.6713,4.5948,4.4615,4.2428,4.1827,0.0,0.0,0.0,0.0,0.0,0.0,0.0,0.0,0.0,4.3791,4.4911,4.6305,4.7976,5.0123,5.2509,5.4876,5.7134,5.8859,6.0364,6.1649,6.1979,6.2016,6.1851,6.1117,6.0566,6.0419,5.9813,5.9722,6.0346,5.9336,5.8859,5.9189,5.8731,5.8382,5.8235,5.8235,5.8235,5.8235,5.8235,5.8143,5.7997,5.7997,5.7997,5.7997,5.7997,5.7997,5.796,5.7317,5.695,5.6748,5.5923,5.5115,5.4381,5.4234,5.3775,5.3206,5.3206,5.3206,5.3096,0.0,0.0,0.0,0.0,0.0,0.0,0.0,0.0,0.0,2.6525,2.7743,2.8391,2.8078,2.8924,2.9414,2.9282,3.2222,0.0,3.618,3.9208,4.1931,4.4096,4.7124,4.8832,4.9001,5.1014,5.2131,5.23,5.3027,5.3416,5.3501,5.3501,5.3856,5.4465,5.4465,5.4837,5.5429,5.4752,5.4465,5.4465,5.4465,5.4076,5.3551,5.4042,5.3805,5.2976,5.0862,4.9521,4.8638,4.8107,4.7684,4.7501,4.8138,4.7252,4.5743,4.462,0.0,4.0267,4.0726,4.0965,4.1607,4.3663,4.3828,4.4745,0.0,0.0,4.8288,5.0582,5.1756,5.2692,5.3683,5.5831,5.8015,5.9722,6.1355,6.2475,6.2658,6.3337,6.3521,6.2768,6.1961,6.119,6.0474,6.0327,6.0309,6.0401,6.0896,6.0603,5.9281,5.9795,5.9813,5.9098,5.9079,5.9079,5.9079,5.9079,5.8712,5.7997,5.7997,5.7997,5.7997,5.7997,5.7997,5.7997,5.7905,5.7464,5.6748,5.5923,5.5115,5.4326,5.361,5.3298,5.3206,5.3206,5.3206,5.3096,0.0,0.0,0.0,0.0,0.0,0.0,0.0,0.0,0.0,0.0,2.6817,2.6939,2.7448,2.7607,2.7655,2.7655,3.1055,0.0,3.5351,3.9868,4.3504,4.5771,4.8291,5.0033,5.0896,5.1826,5.2536,5.301,5.3348,5.3501,5.3518,5.394,5.4296,5.4617,5.5057,5.5429,5.57,5.5378,5.5243,5.5243,5.5243,5.4803,5.4126,5.4008,5.2942,5.14,5.0288,4.9375,0.0,0.0,4.8134,4.8236,4.8949,4.7741,4.5755,4.4401,4.2708,0.0,4.2286,4.3185,4.414,0.0,4.6929,4.882,5.0251,5.0527,5.1004,5.2986,5.4418,5.5532,5.6364,5.8446,6.0292,0.0,6.2077,6.2989,6.3484,6.3025,6.2328,6.1502,6.1117,6.1135,6.1741,6.1374,6.1282,6.1777,6.1245,6.0805,6.0621,6.0474,6.0254,5.9924,5.9905,5.9905,5.9905,5.9905,5.9501,5.8712,5.8712,5.8455,5.7997,5.7997,5.7997,5.7997,5.7997,5.7813,5.7464,5.7134,5.6235,5.506,5.473,5.4014,5.3206,5.3206,5.3206,5.317,0.0,0.0,0.0,0.0,0.0,0.0,0.0,0.0,0.0,0.0,0.0,2.6152,2.7335,2.7115,2.6873,2.6873,0.0,0.0,0.0,3.9715,4.391,4.638,4.8798,5.0693,5.1978,5.2418,5.3027,5.3805,5.3805,5.3907,5.4126,5.4651,5.5006,5.5226,5.5767,5.6241,5.6596,5.619,5.6139,5.6275,5.5869,5.5141,5.4194,5.323,5.1248,4.9035,4.8678,4.7772,0.0,0.0,4.6123,4.6587,4.7393,4.6743,4.5399,4.4181,4.3094,4.2433,4.3002,0.0,0.0,4.7021,4.9976,5.2527,5.2013,5.2986,5.4319,5.5496,5.6839,5.7868,5.7999,5.9798,6.1351,6.1569,6.2458,6.3372,6.4035,6.3044,6.1814,6.0548,6.0199,6.0548,6.1704,6.1484,6.1594,6.242,6.1392,6.0988,6.1557,6.1043,6.0731,6.0731,6.0731,6.0731,6.0731,6.0731,6.0236,5.9208,5.9208,5.8786,5.7997,5.7997,5.7997,5.7997,5.7997,5.7997,5.7978,5.7758,5.684,5.5574,5.5354,5.4418,5.3206,5.3206,5.3206,5.3206,0.0,0.0,0.0,0.0,0.0,0.0,0.0,0.0,0.0,0.0,0.0,0.0,0.0,0.0,2.7272,0.0,0.0,0.0,0.0,3.8751,4.2608,4.5602,4.8528,5.0456,5.1234,5.2706,5.3822,5.4566,5.4566,5.4921,5.5649,5.5683,5.6055,5.6731,5.6765,5.756,5.8829,5.7374,5.7171,5.7695,5.6292,5.4837,5.3365,5.186,4.9256,4.6295,4.561,0.0,0.0,4.0004,4.0323,4.151,4.2481,4.3704,0.0,4.469,4.3552,4.2304,0.0,0.0,4.6654,4.9866,5.2509,5.4932,5.7226,5.84,5.8999,5.9056,5.9709,5.9833,5.8378,5.9395,6.0683,6.1548,6.2942,6.4019,6.4061,6.4053,6.3117,6.0694,5.9722,5.9281,0.0,5.9997,6.0768,6.1575,6.1575,6.1557,6.1594,6.1575,6.1557,6.1557,6.1557,6.1557,6.1557,6.1557,6.0768,5.9208,5.9208,5.8786,5.7997,5.7997,5.7997,5.7997,5.7997,5.7997,5.7941,5.7171,5.6345,5.55,5.473,5.394,5.3206,5.3206,5.3206,5.3206,0.0,0.0,0.0,0.0,0.0,0.0,0.0,0.0,0.0,0.0,0.0,0.0,0.0,0.0,0.0,0.0,0.0,0.0,0.0,3.7432,4.1153,4.2658,4.6989,4.9712,5.0456,5.1944,5.3095,5.3873,5.3873,5.4245,5.4972,5.548,5.6105,5.6816,5.7306,5.7797,5.8203,5.7222,5.7509,5.8423,5.5953,5.4972,5.4652,5.1555,4.806,4.4578,0.0,0.0,0.0,3.8418,3.8715,3.9575,3.9926,4.0357,4.0836,4.135,4.2268,4.3552,4.57,0.0,5.1389,5.4106,5.6198,5.7941,5.93,5.9401,5.9214,5.9239,5.825,5.705,5.6062,5.6711,5.7868,5.9188,6.1109,6.2676,6.3163,6.3246,6.1942,5.8437,5.8731,0.0,0.0,0.0,0.0,6.1502,6.1594,6.1832,6.2383,6.2401,6.2401,6.2401,6.2401,6.2401,6.2401,6.2401,6.1594,5.9997,5.8914,5.8253,5.7997,5.7997,5.7997,5.7997,5.7997,5.7997,5.7978,5.7703,5.6804,5.5556,5.5299,5.4381,5.3206,5.3206,5.3206,5.3206,0.0,0.0,0.0,0.0,0.0,0.0,0.0,0.0,0.0,0.0,0.0,0.0,0.0,0.0,0.0,0.0,0.0,0.0,0.0,0.0,3.8125,3.9952,4.3487,4.6007,4.7276,4.824,4.9373,5.071,5.098,5.1894,5.3399,5.4143,5.504,5.6038,5.6494,5.7002,5.7442,5.6444,5.641,5.6782,5.3973,5.2541,5.1571,4.8204,4.4761,0.0,0.0,0.0,3.691,3.6369,3.6707,3.7441,3.7753,3.8634,3.9772,4.0873,4.2892,4.5626,4.9444,5.2454,5.5207,5.8217,5.9511,6.0245,6.1098,6.0196,5.9036,5.8221,5.6396,5.4554,5.2952,5.3258,5.4367,5.6244,5.8464,6.0519,6.2137,6.2126,6.0896,5.8015,5.8327,5.8052,0.0,0.0,0.0,6.0639,6.1006,6.152,6.2328,6.2658,6.2805,6.2805,6.2805,6.2805,6.2805,6.2805,6.1998,6.0382,5.9061,5.829,5.7997,5.7997,5.7997,5.7997,5.7997,5.7997,5.7997,5.7997,5.7226,5.5996,5.5702,5.4785,5.3592,5.3316,5.3206,5.3206,0.0,0.0,0.0,0.0,0.0,0.0,0.0,0.0,0.0,0.0,0.0,0.0,0.0,0.0,0.0,0.0,0.0,0.0,0.0,0.0,3.3812,3.7364,3.843,3.9918,4.2016,4.2185,4.3318,4.5534,4.6261,4.8088,5.0896,5.1623,5.2756,5.4194,5.4194,5.4972,5.619,5.4804,5.3822,5.2941,5.0489,4.7765,4.4906,4.238,0.0,0.0,0.0,0.0,0.0,0.0,0.0,0.0,0.0,3.867,4.157,4.324,4.5516,4.8545,5.3353,5.5886,5.8107,6.1911,6.2238,6.1838,6.2504,6.0813,5.8482,5.6123,5.4356,5.233,0.0,0.0,5.0672,5.3158,5.5507,5.813,6.1166,6.1043,6.0291,0.0,0.0,0.0,0.0,0.0,0.0,5.9208,5.9979,6.0768,6.1612,6.2401,6.2805,6.2805,6.2805,6.2805,6.2805,6.2732,6.1924,6.0401,5.9557,5.8749,5.7997,5.7997,5.7997,5.7997,5.7997,5.7997,5.7997,5.7997,5.7538,5.673,5.5904,5.5097,5.4308,5.35,5.3206,5.3206,0.0,0.0,0.0,0.0,0.0,0.0,0.0,0.0,0.0,0.0,0.0,0.0,0.0,0.0,0.0,0.0,0.0,0.0,0.0,3.0177,3.1664,3.2087,3.6011,3.8447,3.9005,0.0,0.0,4.3166,4.391,4.4959,4.6278,4.7039,4.7885,4.8781,4.8781,4.8984,4.9334,4.8736,4.8706,4.8734,0.0,4.5102,4.4593,0.0,0.0,0.0,0.0,0.0,0.0,0.0,0.0,0.0,0.0,4.0781,4.3442,4.625,4.9682,5.3335,5.7005,6.007,6.2485,6.3403,6.3034,6.2209,6.1212,5.8809,5.6028,5.3801,5.0772,4.7962,0.0,0.0,0.0,5.2466,5.7155,0.0,6.1477,6.3007,0.0,5.9612,0.0,6.0126,5.8731,5.9318,0.0,0.0,6.0291,6.1025,6.242,6.2695,6.2805,6.2805,6.2805,6.2805,6.2805,6.1612,6.0823,6.0382,5.8988,5.8198,5.7997,5.7997,5.7997,5.7997,5.7997,5.7997,5.7997,5.7997,5.7538,5.673,5.5904,5.5097,5.4308,5.35,5.3206,5.3206,0.0,0.0,0.0,0.0,0.0,0.0,0.0,0.0,0.0,0.0,0.0,0.0,0.0,0.0,0.0,0.0,0.0,0.0,0.0,0.0,2.9587,2.9843,3.2349,3.4209,3.5224,0.0,0.0,0.0,0.0,0.0,4.146,4.2002,4.2844,4.3859,4.4198,4.4519,4.4812,4.454,0.0,0.0,0.0,0.0,0.0,0.0,0.0,0.0,0.0,0.0,0.0,0.0,0.0,4.1644,4.2727,4.4745,4.7407,5.0986,0.0,5.7373,6.1337,6.4016,6.5565,6.5081,6.3896,6.2063,5.9126,5.6015,5.2866,4.9664,4.68,0.0,4.2455,0.0,0.0,0.0,0.0,0.0,6.0353,6.2053,6.2438,0.0,6.1043,0.0,5.9869,6.0456,6.108,0.0,6.1135,6.1318,6.2236,6.2622,6.2805,6.2805,6.2805,6.2805,6.2805,6.1906,6.1282,6.0915,5.9648,5.8877,5.851,5.8162,5.7997,5.7997,5.7997,5.7997,5.7997,5.7997,5.7721,5.7262,5.6436,5.5629,5.4821,5.4014,5.35,5.3261,0.0,0.0,0.0,0.0,0.0,0.0,0.0,0.0,0.0,0.0,0.0,0.0,0.0,0.0,0.0,0.0,0.0,0.0,0.0,0.0,0.0,0.0,2.8724,2.9398,3.1287,0.0,0.0,0.0,0.0,0.0,0.0,0.0,0.0,0.0,0.0,0.0,0.0,0.0,0.0,0.0,0.0,0.0,0.0,0.0,0.0,0.0,0.0,0.0,0.0,0.0,4.3516,4.5021,4.7352,4.9848,5.2692,5.662,5.8841,6.0976,6.5453,6.7213,6.7541,6.6325,6.4287,6.1341,5.6651,5.3032,4.9424,4.5145,0.0,4.1341,3.9474,4.1433,4.4242,4.6837,0.0,5.5849,5.9079,6.0217,6.0988,6.1686,6.1691,6.1367,6.0786,6.133,6.2045,6.2768,6.2365,6.2034,6.1924,6.2493,6.2805,6.2805,6.2805,6.2805,6.2805,6.2695,6.2291,6.1575,6.0676,5.9887,5.9189,5.8364,5.7997,5.7997,5.7997,5.7997,5.7997,5.7997,5.7941,5.7776,5.7079,5.6235,5.5354,5.4656,5.3959,5.3463,0.0,0.0,0.0,0.0,0.0,0.0,0.0,0.0,0.0,0.0,2.6722,2.7343,0.0,0.0,0.0,0.0,0.0,0.0,0.0,0.0,0.0,0.0,2.8465,2.8921,0.0,0.0,0.0,0.0,0.0,0.0,0.0,0.0,0.0,0.0,0.0,0.0,0.0,0.0,0.0,0.0,0.0,0.0,0.0,0.0,0.0,0.0,0.0,0.0,0.0,0.0,4.7058,5.082,5.2582,5.5262,5.8419,6.1832,6.3503,6.4686,6.6776,6.7921,6.7824,6.4898,6.2474,5.9627,5.4939,5.0617,0.0,0.0,4.1356,4.0048,3.9698,4.243,4.5972,4.9757,0.0,0.0,0.0,0.0,6.2456,0.0,0.0,0.0,0.0,0.0,0.0,0.0,6.3961,6.4365,6.3686,6.3117,6.2805,6.2805,6.2805,6.2805,6.2805,6.2144,6.1741,6.1575,6.0126,5.9355,5.9189,5.8364,5.7997,5.7997,5.7997,5.7997,5.7997,5.7997,5.7611,5.6987,5.6859,5.5904,5.4583,5.4454,5.4308,5.4216,0.0,0.0,0.0,0.0,0.0,0.0,0.0,2.4949,2.5401,2.7016,2.7218,2.7592,2.8579,2.8515,2.8308,0.0,0.0,0.0,0.0,0.0,0.0,0.0,0.0,0.0,0.0,0.0,0.0,0.0,0.0,0.0,0.0,0.0,0.0,0.0,0.0,0.0,0.0,0.0,0.0,0.0,0.0,0.0,0.0,0.0,0.0,0.0,0.0,0.0,0.0,0.0,4.6911,5.2564,5.5868,5.8547,6.1098,6.4383,6.5907,6.6884,6.8355,6.9363,6.8963,6.4759,6.1745,5.8213,5.2017,0.0,0.0,0.0,3.8374,3.788,3.7507,0.0,0.0,0.0,0.0,0.0,0.0,0.0,0.0,0.0,0.0,0.0,0.0,0.0,6.2996,6.3415,6.4218,6.4512,6.4108,6.3704,6.3282,6.2823,6.2805,6.2805,6.2805,6.242,6.2218,6.2218,6.0603,5.9832,5.9795,5.8565,5.7997,5.7997,5.7997,5.7997,5.7997,5.7997,5.7538,5.6804,5.6804,5.5831,5.4454,5.4858,5.4748,5.4528,0.0,0.0,0.0,0.0,0.0,0.0,0.0,2.5708,2.6153,2.7603,2.7952,2.8118,2.8257,2.8431,2.8268,0.0,0.0,0.0,0.0,0.0,0.0,0.0,0.0,0.0,0.0,0.0,0.0,0.0,0.0,0.0,0.0,0.0,0.0,0.0,0.0,0.0,0.0,0.0,0.0,0.0,0.0,0.0,0.0,0.0,0.0,0.0,0.0,0.0,0.0,0.0,4.5039,5.0765,5.5629,5.9189,6.2108,6.4695,6.6388,6.7704,6.8994,6.9932,6.929,6.4474,6.0859,5.6601,4.9321,4.4519,0.0,0.0,3.6122,3.6232,3.6011,0.0,0.0,0.0,0.0,0.0,0.0,0.0,0.0,0.0,0.0,0.0,0.0,0.0,0.0,6.431,6.4347,6.4347,6.4347,6.4347,6.3961,6.3117,6.3099,6.3007,6.2805,6.2805,6.2805,6.2787,6.1172,6.0401,6.0346,5.8731,5.7997,5.7997,5.7997,5.7997,5.7997,5.7997,5.7538,5.6822,5.6987,5.6069,5.4748,5.5556,5.5464,5.5097,0.0,0.0,0.0,0.0,0.0,0.0,0.0,2.6265,2.6814,2.7677,2.8448,2.8627,2.7926,2.8512,2.8934,0.0,0.0,0.0,0.0,0.0,0.0,0.0,0.0,0.0,0.0,0.0,0.0,0.0,0.0,0.0,0.0,0.0,0.0,0.0,0.0,0.0,0.0,0.0,0.0,0.0,0.0,0.0,0.0,0.0,0.0,0.0,0.0,0.0,0.0,0.0,0.0,4.4048,4.893,5.5592,6.1649,6.1961,0.0,0.0,6.7323,6.7971,6.7323,6.2711,5.8756,5.4449,4.8274,0.0,0.0,3.7043,3.6329,3.6463,3.7842,0.0,0.0,0.0,0.0,4.9187,0.0,0.0,0.0,0.0,0.0,0.0,0.0,6.4548,6.5056,6.5176,6.5191,6.5191,6.5191,6.5191,6.4824,6.3998,6.398,6.3594,6.2823,6.2805,6.2805,6.2787,6.1172,6.0401,6.0346,5.8731,5.7997,5.7997,5.7997,5.7997,5.7997,5.7997,5.7538,5.6877,5.7593,5.6895,5.5574,5.64,5.6657,5.6602,0.0,0.0,0.0,0.0,0.0,0.0,2.6516,2.6656,2.7071,2.8356,2.8792,2.8865,2.8576,2.8374,2.7897,2.6924,0.0,0.0,0.0,0.0,0.0,0.0,0.0,0.0,0.0,0.0,0.0,2.9732,0.0,0.0,0.0,0.0,0.0,0.0,0.0,0.0,0.0,0.0,0.0,0.0,0.0,0.0,0.0,0.0,0.0,0.0,0.0,0.0,0.0,0.0,0.0,0.0,4.1992,4.6838,0.0,0.0,6.2457,6.5307,6.6861,6.8223,6.7906,6.2625,5.7814,5.2942,4.7394,0.0,3.7652,3.525,3.5439,3.6059,3.6255,3.7869,0.0,0.0,0.0,0.0,0.0,0.0,0.0,0.0,0.0,0.0,0.0,0.0,6.5441,6.5999,6.6017,6.6017,6.6017,6.5099,6.442,6.409,6.3594,6.3154,6.2805,6.2805,6.2805,6.2787,6.1172,6.0401,6.0346,5.8731,5.7997,5.7997,5.7997,5.7997,5.7997,5.7997,5.7538,5.684,5.7152,5.6583,5.5684,5.651,5.6804,5.6877,0.0,0.0,0.0,0.0,0.0,2.5337,2.6949,2.7064,2.7457,2.881,2.8994,2.8902,2.8686,2.7714,2.6612,2.5513,2.6869,0.0,0.0,0.0,0.0,0.0,0.0,0.0,0.0,0.0,0.0,2.9861,2.9216,2.9225,0.0,0.0,0.0,0.0,0.0,0.0,0.0,0.0,0.0,0.0,0.0,0.0,0.0,0.0,0.0,0.0,0.0,0.0,0.0,0.0,0.0,0.0,0.0,0.0,0.0,0.0,5.8414,6.2022,6.423,6.616,6.6458,6.179,5.6697,5.1569,0.0,0.0,3.6712,3.4881,3.5151,3.5705,3.5757,3.7388,3.9239,4.0855,0.0,4.2213,4.6819,0.0,0.0,0.0,0.0,6.0358,0.0,6.4511,6.6237,6.6806,6.6402,6.6256,6.6494,6.4732,6.3833,6.409,6.3503,6.3062,6.2805,6.2805,6.2695,6.2438,6.1062,6.0291,6.0015,5.8639,5.7997,5.7997,5.7997,5.7997,5.7997,5.7997,5.7666,5.7152,5.7152,5.6804,5.6363,5.695,5.7152,5.7207,0.0,0.0,0.0,0.0,0.0,0.0,2.6949,2.7547,2.8081,2.8883,2.8994,2.8705,2.7897,2.6374,2.5421,2.5403,2.6869,0.0,0.0,0.0,0.0,0.0,0.0,0.0,0.0,0.0,2.8994,2.8994,2.9806,3.0191,3.0191,3.0167,2.9787,2.9053,0.0,0.0,0.0,0.0,0.0,0.0,0.0,0.0,0.0,0.0,0.0,0.0,0.0,0.0,0.0,0.0,0.0,0.0,0.0,0.0,0.0,0.0,5.1165,5.6009,5.833,6.0695,6.1924,5.961,5.5108,5.0159,0.0,0.0,3.5915,3.6925,3.5971,3.5526,3.75,3.8332,3.9239,4.0855,4.1772,0.0,4.7719,0.0,0.0,0.0,0.0,5.8761,6.0537,6.493,6.7669,6.7687,6.6219,6.5668,6.6457,6.4163,6.3209,6.4053,6.409,6.3668,6.2823,6.2805,6.2401,6.1594,6.0786,5.9997,5.9189,5.8364,5.7997,5.7997,5.7997,5.7997,5.7997,5.7997,5.7997,5.7997,5.7997,5.7978,5.7978,5.7978,5.7997,5.7868,0.0,0.0,0.0,0.0,0.0,0.0,0.0,2.7195,2.7611,2.8833,2.8521,2.8081,2.7824,2.6376,2.5403,2.5403,2.6374,0.0,0.0,0.0,0.0,0.0,0.0,0.0,0.0,0.0,3.0099,3.0632,3.0889,3.1166,3.142,3.0295,2.9357,2.8617,2.8234,0.0,0.0,0.0,0.0,0.0,0.0,0.0,0.0,0.0,0.0,0.0,0.0,0.0,0.0,0.0,0.0,0.0,0.0,0.0,0.0,0.0,0.0,0.0,5.3123,5.4873,5.5531,5.2264,4.8899,4.5672,4.2906,0.0,3.6409,3.5701,3.5864,3.6157,3.6287,3.7635,3.9423,0.0,0.0,0.0,0.0,0.0,0.0,0.0,6.0176,6.4259,0.0,0.0,6.7687,6.7687,6.7228,6.6806,6.6512,6.5228,6.4383,6.409,6.3521,6.3099,6.2805,6.2254,6.1851,6.1575,6.0236,5.9465,5.9189,5.8364,5.7997,5.7997,5.7997,5.7997,5.7997,5.7997,5.7997,5.7997,5.7997,5.7997,5.7997,5.7997,5.7997,5.796,0.0,0.0,0.0,0.0,0.0,0.0,0.0,2.7025,2.7395,2.8819,2.8044,2.7457,2.7769,2.608,2.5072,2.5384,2.6135,0.0,0.0,0.0,0.0,0.0,0.0,0.0,0.0,2.9494,3.0283,3.1384,3.1524,3.1719,3.1964,3.1081,2.9923,2.8635,2.8417,0.0,0.0,0.0,0.0,0.0,0.0,0.0,2.9751,0.0,0.0,0.0,0.0,0.0,0.0,0.0,0.0,0.0,0.0,0.0,0.0,0.0,4.0579,0.0,0.0,5.0012,5.0996,4.8635,4.601,0.0,0.0,0.0,3.6395,3.5552,3.5861,3.6298,3.6308,3.7619,3.9294,0.0,0.0,0.0,0.0,0.0,0.0,0.0,0.0,0.0,0.0,6.7155,6.7687,6.7687,6.7136,6.6586,6.6072,6.4971,6.4145,6.3631,6.3099,6.2658,6.2346,6.1851,6.13,6.0676,5.9685,5.9061,5.8731,5.8235,5.7997,5.7997,5.7997,5.7997,0.0,5.7997,5.7997,5.7997,5.7997,5.7997,5.7997,5.7997,5.7997,5.796,0.0,0.0,0.0,0.0,0.0,0.0,0.0,2.7005,2.7378,2.8654,2.7585,2.6924,2.7548,2.5621,2.4557,2.5256,0.0,0.0,0.0,0.0,0.0,0.0,0.0,0.0,0.0,2.9049,2.9861,3.1384,3.1827,3.209,3.218,3.241,3.1331,2.916,2.9113,0.0,0.0,0.0,0.0,0.0,0.0,0.0,0.0,0.0,0.0,0.0,0.0,0.0,0.0,0.0,0.0,0.0,0.0,0.0,0.0,0.0,0.0,0.0,0.0,0.0,0.0,0.0,0.0,0.0,0.0,0.0,0.0,0.0,3.5872,3.5968,3.7253,3.8102,3.8946,0.0,0.0,0.0,0.0,0.0,0.0,0.0,6.0668,0.0,6.4057,6.6311,6.7687,6.7687,6.6329,6.5466,6.5393,6.387,6.297,6.2897,6.2787,6.2365,6.1594,6.1539,6.075,5.9208,5.9153,5.8731,5.7997,5.7997,5.7997,5.7997,5.7997,5.7997,5.7997,5.7997,5.7997,5.7997,5.7997,5.7997,5.7997,5.7997,5.7997,5.7886,0.0,0.0,0.0,0.0,0.0,0.0,0.0,0.0,0.0,0.0,2.7365,2.7108,2.6082,2.5476,2.4962,0.0,0.0,0.0,0.0,0.0,0.0,0.0,0.0,0.0,0.0,2.9604,3.0393,3.1384,3.2692,3.353,3.3815,3.359,3.2534,3.0809,3.018,2.9521,0.0,0.0,0.0,0.0,0.0,0.0,0.0,0.0,0.0,0.0,2.9292,2.9934,0.0,0.0,0.0,0.0,0.0,0.0,0.0,0.0,3.4816,3.5823,3.6942,0.0,3.9174,3.8143,3.7678,0.0,0.0,0.0,0.0,0.0,0.0,3.5619,3.7221,3.7643,3.8836,0.0,0.0,0.0,0.0,0.0,0.0,0.0,6.4427,6.6003,6.5118,6.6641,6.7687,6.7687,6.7338,6.6861,6.6256,6.5264,6.4439,6.3796,6.2548,6.1796,6.1594,6.0988,6.0181,5.9208,5.8584,5.818,5.7997,5.7997,5.7997,5.7997,5.7997,5.7997,5.7997,5.7997,5.7997,5.7997,5.7997,5.7997,5.7997,5.7997,5.7997,5.7886,0.0,0.0,0.0,0.0,0.0,0.0,0.0,0.0,0.0,0.0,0.0,0.0,0.0,0.0,0.0,0.0,0.0,0.0,0.0,0.0,0.0,0.0,0.0,0.0,2.8994,2.9439,3.0411,3.1953,3.2611,3.3615,3.4929,3.4117,3.2875,3.1324,2.999,2.915,0.0,0.0,0.0,0.0,2.8994,0.0,0.0,0.0,0.0,0.0,2.8994,2.9531,0.0,3.0705,3.1641,3.2687,0.0,0.0,0.0,0.0,3.4119,3.4468,3.4468,3.5999,3.7439,3.6739,3.6747,3.6867,0.0,0.0,0.0,0.0,0.0,0.0,3.7239,0.0,0.0,0.0,0.0,0.0,0.0,0.0,0.0,0.0,6.5283,6.6549,6.6402,6.7173,6.754,6.7173,6.6806,6.6237,6.543,6.4622,6.3778,6.297,6.2071,6.141,6.1043,6.0254,5.9465,5.8657,5.8217,5.7997,5.7997,5.7997,5.7997,5.7997,5.7997,5.7997,5.7997,5.7997,5.7776,5.7446,5.7446,5.7226,5.6895,5.6895,5.6895,5.684,0.0,0.0,0.0,0.0,0.0,0.0,0.0,0.0,0.0,0.0,0.0,0.0,0.0,0.0,0.0,0.0,0.0,0.0,0.0,0.0,0.0,0.0,0.0,2.9049,2.9177,2.9049,3.0167,3.2614,3.2337,3.3358,3.5562,3.4543,3.3148,3.1386,2.9448,2.8528,0.0,0.0,0.0,0.0,2.8994,0.0,0.0,0.0,0.0,0.0,0.0,0.0,0.0,3.0173,3.1201,3.2449,3.2577,0.0,0.0,0.0,0.0,0.0,3.41,3.6395,3.8579,3.8083,3.8248,3.8267,0.0,0.0,0.0,0.0,0.0,0.0,0.0,0.0,0.0,0.0,0.0,0.0,0.0,0.0,0.0,6.3649,6.5026,6.6054,6.7045,6.7357,6.7173,6.6384,6.5705,6.4952,6.4127,6.3282,6.2438,6.163,6.1355,6.0915,6.0236,5.9557,5.8804,5.7997,5.7997,5.7997,5.7997,5.7997,5.7997,5.7997,5.7997,5.7923,5.7813,5.7813,5.7336,5.662,5.662,5.6198,5.5592,5.5592,5.5592,5.5574,0.0,0.0,0.0,0.0,0.0,0.0,0.0,0.0,0.0,0.0,0.0,0.0,0.0,0.0,0.0,0.0,0.0,0.0,0.0,0.0,0.0,0.0,2.8994,2.9305,3.0008,2.9342,3.0167,3.2614,3.3221,3.4186,3.5515,3.6008,3.463,3.1745,3.0142,2.9236,2.8905,0.0,0.0,0.0,0.0,0.0,0.0,0.0,0.0,0.0,0.0,0.0,0.0,2.9971,3.0815,3.1696,3.2394,0.0,0.0,0.0,0.0,0.0,3.5532,3.7276,3.8028,3.5257,3.6119,3.7276,0.0,0.0,0.0,0.0,0.0,0.0,0.0,0.0,0.0,0.0,0.0,0.0,0.0,0.0,6.1796,6.3851,0.0,6.6623,6.4824,6.587,6.6347,6.554,6.5375,6.4952,6.4127,6.3282,6.2438,6.163,6.0291,5.952,5.941,5.9281,5.8804,5.7997,5.7997,5.7997,5.7997,5.7997,5.7997,5.7997,5.7997,5.7611,5.6987,5.6987,5.651,5.5776,5.5776,5.5702,5.5592,5.5592,5.5592,5.5482,0.0,0.0,0.0,0.0,0.0,0.0,0.0,0.0,0.0,0.0,0.0,0.0,0.0,0.0,0.0,0.0,0.0,0.0,0.0,0.0,0.0,2.8994,2.8994,2.936,3.0173,3.0265,3.1274,3.3256,3.4064,3.5027,3.6128,3.4963,3.344,3.1556,2.9755,2.8953,2.8994,2.8994,2.8994,2.8994,0.0,0.0,0.0,0.0,0.0,0.0,0.0,0.0,0.0,0.0,3.0375,3.1458,3.1825,0.0,0.0,0.0,0.0,0.0,3.4743,3.6468,3.7569,3.5642,3.7312,0.0,0.0,0.0,0.0,0.0,0.0,0.0,0.0,0.0,0.0,0.0,0.0,5.5684,5.8786,5.985,6.108,0.0,6.4383,6.4971,6.4769,6.543,6.5521,6.4714,6.4659,6.409,6.2805,6.2365,6.1594,6.0346,5.9612,5.9006,5.8565,5.8547,5.8364,5.7997,5.7997,5.7997,5.7997,5.7997,5.7758,5.7354,5.7354,5.6895,5.6143,5.6143,5.5666,5.495,5.495,5.4693,5.4308,5.4308,5.4308,5.4252,0.0,0.0,0.0,0.0,0.0,0.0,0.0,0.0,0.0,0.0,0.0,0.0,0.0,0.0,0.0,0.0,0.0,0.0,0.0,0.0,2.8994,2.8994,2.9177,2.9769,3.0742,3.1182,3.2467,3.4669,3.5092,3.5684,3.6363,3.3695,3.2031,3.1159,2.9445,2.8814,2.8994,2.8994,2.8994,2.8994,0.0,0.0,0.0,0.0,0.0,0.0,0.0,0.0,0.0,0.0,0.0,0.0,0.0,0.0,0.0,3.3807,3.3807,3.388,3.4284,3.5771,3.711,3.6688,0.0,0.0,0.0,0.0,0.0,0.0,0.0,0.0,0.0,0.0,0.0,0.0,5.6198,5.807,6.0089,6.0364,6.119,6.3411,6.3521,6.3833,6.4916,6.4842,6.4383,6.3576,6.3337,6.2658,6.1392,6.1135,6.0474,5.9263,5.9024,5.8621,5.7997,5.7997,5.7997,5.7997,5.7997,5.7997,5.7997,5.7997,5.7556,5.6804,5.6804,5.6235,5.5317,5.5317,5.484,5.4124,5.4124,5.3739,5.3206,5.3206,5.3206,5.3206,0.0,0.0,0.0,0.0,0.0,0.0,0.0,0.0,0.0,0.0,0.0,0.0,0.0,0.0,0.0,0.0,0.0,0.0,0.0,0.0,2.8994,2.8994,2.9732,3.0852,3.2394,3.1751,3.3311,3.7221,3.6541,3.5987,3.5551,3.3395,3.1813,3.0718,2.9881,2.9315,2.8994,2.8994,2.8994,2.8994,2.8994,0.0,0.0,0.0,0.0,0.0,0.0,0.0,0.0,0.0,0.0,0.0,0.0,0.0,3.3807,3.3807,3.3807,3.4137,3.5697,3.6248,3.6541,3.7221,0.0,0.0,0.0,0.0,0.0,0.0,0.0,0.0,0.0,0.0,0.0,0.0,5.7501,6.0144,6.3301,0.0,6.4365,6.6035,6.5576,6.4879,6.4237,6.3447,6.2658,6.1832,6.108,6.0621,6.0493,5.9795,5.9336,5.9208,5.8492,5.8052,5.7997,5.7997,5.7997,5.7997,5.7997,5.7997,5.7997,5.7997,5.7556,5.6804,5.6804,5.5923,5.4491,5.4491,5.4014,5.3298,5.3298,5.3261,5.3206,5.3206,5.3206,5.3206,0.0,0.0,0.0,0.0,0.0,0.0,0.0,0.0,0.0,0.0,0.0,0.0,0.0,0.0,0.0,0.0,0.0,0.0,0.0,0.0,2.916,2.9017,2.9287,3.021,3.1825,3.3036,3.4731,3.7003,3.6348,3.5512,3.4397,3.2829,3.148,3.0345,2.9569,2.9132,2.8994,2.8994,2.8994,2.8994,2.8994,2.8994,0.0,0.0,0.0,0.0,0.0,0.0,0.0,0.0,3.0081,3.1384,3.1384,3.2485,3.3807,3.3807,3.3807,3.3935,3.4578,3.5862,3.7221,3.8046,0.0,0.0,0.0,0.0,0.0,0.0,0.0,0.0,0.0,0.0,0.0,5.6638,5.9116,6.13,6.3062,6.3301,6.3521,6.4145,6.3943,6.3631,6.3319,6.2548,6.1924,6.1612,6.086,6.0181,5.9685,5.9391,5.8988,5.8474,5.8162,5.7997,5.7997,5.7501,5.7262,5.7262,5.7758,5.774,5.7262,5.7262,5.6547,5.5317,5.5317,5.4693,5.3665,5.3665,5.3482,5.3206,5.3206,5.3206,5.3206,5.3206,5.2894,5.2454,0.0,0.0,0.0,0.0,0.0,0.0,0.0,0.0,0.0,0.0,0.0,0.0,0.0,0.0,0.0,0.0,0.0,0.0,2.9394,2.9412,2.9289,2.9017,2.9232,3.0008,3.1366,3.3532,3.5389,3.6953,3.6335,3.5115,3.3403,3.201,3.0937,3.0173,2.9365,2.9122,2.9365,2.9104,2.8994,2.8994,2.8994,2.8994,0.0,0.0,0.0,0.0,0.0,0.0,0.0,0.0,3.0081,3.1384,3.1384,3.2485,3.3807,3.3807,3.3623,3.3476,3.3733,3.5037,3.6578,0.0,0.0,0.0,0.0,0.0,0.0,0.0,0.0,0.0,0.0,0.0,0.0,0.0,5.9648,6.1686,6.3025,6.2989,6.2915,6.3191,6.2989,6.2713,6.2456,6.1686,6.1117,6.086,6.0107,5.941,5.8859,5.8822,5.8584,5.8015,5.7758,5.7611,5.7611,5.6822,5.6418,5.6436,5.6969,5.695,5.6418,5.6418,5.5684,5.4399,5.4399,5.394,5.3206,5.3206,5.3059,5.2858,5.3115,5.3059,5.2821,5.2821,5.2472,5.1958,0.0,0.0,0.0,0.0,0.0,0.0,0.0,0.0,0.0,0.0,0.0,0.0,0.0,0.0,0.0,0.0,0.0,0.0,2.9433,2.9412,2.9289,2.9017,2.9769,3.0558,3.1347,3.2944,3.4981,3.7441,3.667,3.5018,3.2559,3.0962,3.021,3.0155,2.9384,2.9475,3.0136,2.9342,2.8994,2.8994,2.8994,2.8994,2.8994,0.0,0.0,0.0,0.0,0.0,0.0,0.0,3.0081,3.1384,3.1384,3.2485,3.3807,3.3807,3.3238,3.2797,3.3587,3.3825,0.0,0.0,0.0,0.0,0.0,0.0,0.0,0.0,0.0,0.0,0.0,0.0,0.0,5.6418,5.8822,6.1245,6.3704,6.3319,6.3099,6.3961,6.3301,6.2475,6.1667,6.086,6.007,5.9281,5.8455,5.7997,5.7997,5.7997,5.7978,5.7978,5.7207,5.6804,5.6804,5.5978,5.5574,5.5574,5.5556,5.5556,5.5574,5.5574,5.5133,5.4381,5.4381,5.3922,5.3206,5.3206,5.2711,5.2068,5.2876,5.2692,5.1977,5.1977,5.1977,5.1848,0.0,0.0,0.0,0.0,0.0,0.0,0.0,0.0,0.0,0.0,0.0,0.0,0.0,0.0,0.0,0.0,0.0,0.0,2.9829,2.9813,2.9661,2.931,2.9511,2.9662,2.9714,3.1292,3.3018,3.489,3.4896,3.352,3.0925,3.0999,3.0448,2.9402,3.0283,3.0191,2.936,2.9714,2.9531,2.8994,2.8994,2.8994,2.8994,0.0,0.0,0.0,0.0,0.0,0.0,0.0,0.0,0.0,3.1384,3.2485,3.3807,3.3807,3.3623,3.3495,3.3733,0.0,0.0,0.0,0.0,0.0,0.0,0.0,0.0,0.0,0.0,0.0,0.0,0.0,0.0,5.6602,5.8364,6.0015,6.1318,6.1282,6.1208,6.1465,6.1282,6.1025,6.0786,6.0034,5.9483,5.9245,5.8455,5.7758,5.7189,5.7171,5.6895,5.6326,5.6069,5.5959,5.5959,5.5152,5.4748,5.473,5.361,5.3647,5.4748,5.4748,5.3995,5.2711,5.2711,5.2582,5.2362,5.2362,5.1885,5.1187,5.1426,5.1371,5.1151,5.1151,5.0802,5.027,0.0,0.0,0.0,0.0,0.0,0.0,0.0,0.0,0.0,0.0,0.0,0.0,0.0,0.0,0.0,0.0,0.0,0.0,0.0,2.9999,2.9813,2.9433,2.9412,2.9416,2.9475,3.1054,3.2045,3.2375,3.2903,3.2156,3.021,3.0705,3.0577,3.0008,3.0962,3.0852,2.9989,3.0467,3.021,2.9512,2.9824,2.9769,2.9494,0.0,0.0,0.0,0.0,0.0,0.0,0.0,0.0,0.0,3.177,3.2761,3.3807,3.3807,3.3568,3.3458,3.41,0.0,0.0,0.0,0.0,0.0,0.0,0.0,0.0,0.0,0.0,0.0,5.6069,5.5812,0.0,5.7097,5.8364,5.9501,6.0291,6.0401,6.0401,6.0401,6.0401,6.0272,5.996,5.9501,5.8951,5.8309,5.7813,5.7171,5.6363,5.6326,5.6106,5.5611,5.528,5.5115,5.5115,5.4326,5.3757,5.3427,5.2454,5.2325,5.2968,5.2968,5.2619,5.1977,5.1665,5.1518,5.1518,5.1518,5.1041,5.0362,5.0674,5.06,5.0306,5.0306,5.0013,4.9481,0.0,0.0,0.0,0.0,0.0,0.0,0.0,0.0,0.0,0.0,0.0,0.0,0.0,0.0,0.0,0.0,0.0,0.0,0.0,0.0,2.9845,2.9454,2.9392,2.9598,3.0081,3.1531,3.1568,3.0099,3.0962,3.098,3.021,3.0283,3.0705,3.1384,3.1476,3.1421,3.1274,3.1274,3.087,3.0265,3.0999,3.0889,3.0301,3.0228,0.0,0.0,0.0,0.0,0.0,0.0,0.0,0.0,3.2375,3.3146,3.3807,3.3807,3.3293,3.3073,0.0,0.0,0.0,0.0,0.0,0.0,0.0,0.0,0.0,0.0,0.0,5.7005,5.6932,5.6308,5.629,5.7758,5.8621,5.9355,6.0089,6.0181,6.0181,6.0181,6.0181,5.9869,5.9079,5.9006,5.8364,5.6822,5.6693,5.6345,5.5519,5.5482,5.5445,5.5372,5.4601,5.4179,5.4179,5.339,5.2619,5.1885,5.1811,5.1389,5.0692,5.0765,5.1151,5.1738,5.1004,5.0637,5.0582,5.0582,5.0141,4.9536,5.0215,5.005,4.9462,4.9462,4.9426,4.9132,0.0,0.0,0.0,0.0,0.0,0.0,0.0,0.0,0.0,0.0,0.0,0.0,0.0,0.0,0.0,0.0,0.0,0.0,0.0,0.0,3.0114,2.9662,2.9272,2.9136,2.9274,2.9604,2.9599,2.925,3.0705,3.098,3.021,3.0852,3.1219,3.1421,3.2063,3.1641,3.0467,3.0467,3.0356,3.0228,3.0393,3.0723,3.1072,3.0448,3.0485,0.0,0.0,0.0,0.0,0.0,0.0,0.0,3.2559,3.3146,3.3807,3.3807,3.3678,3.3899,0.0,0.0,0.0,0.0,0.0,0.0,0.0,0.0,0.0,0.0,0.0,5.851,5.7868,5.7593,5.7593,5.7941,5.8143,5.8327,5.8492,5.851,5.851,5.851,5.851,5.8198,5.7409,5.7336,5.6914,5.5923,5.5849,5.55,5.4693,5.4656,5.4363,5.3739,5.2931,5.2509,5.2509,5.172,5.1242,5.1041,5.0417,5.0013,4.9866,5.0508,5.0545,5.0086,4.9866,4.9426,4.8838,4.8838,4.8746,4.8526,4.8086,4.8196,4.8581,4.8581,4.8177,4.7609,0.0,0.0,0.0,0.0,0.0,0.0,0.0,0.0,0.0,0.0,0.0,0.0,0.0,0.0,0.0,0.0,0.0,0.0,0.0,0.0,0.0,2.9731,2.9622,2.9402,2.8994,2.936,2.9402,2.8994,3.0228,3.0613,0.0,0.0,3.1604,3.2008,3.2816,3.2284,3.0797,3.1201,3.1127,3.0815,3.1201,3.1604,3.1935,3.1513,3.1366,3.1347,3.0925,0.0,0.0,0.0,0.0,0.0,0.0,0.0,3.3807,3.3807,3.3807,3.4174,0.0,0.0,0.0,0.0,0.0,0.0,0.0,0.0,0.0,0.0,5.7207,5.7941,5.7501,5.774,5.774,5.6969,5.7171,5.7281,5.6895,5.684,5.684,5.684,5.684,5.6675,5.6271,5.6235,5.5886,5.5078,5.5023,5.4675,5.3867,5.3463,5.3059,5.2637,5.1848,5.1426,5.1426,5.1004,5.0618,5.0215,4.937,4.8563,4.7847,4.8655,4.8802,4.8379,4.7957,4.7535,4.715,4.715,4.715,4.715,4.7131,4.7131,4.7205,4.759,4.7223,4.6471,0.0,0.0,0.0,0.0,0.0,0.0,0.0,0.0,0.0,0.0,0.0,0.0,0.0,0.0,0.0,0.0,0.0,0.0,0.0,0.0,0.0,2.9713,3.0073,2.9871,2.9012,2.9787,2.9824,2.8994,0.0,0.0,0.0,0.0,0.0,3.2834,3.3366,3.2779,3.1439,3.2118,3.2008,3.1458,3.2284,3.2687,3.2797,3.2669,3.2284,3.1788,3.1659,3.1696,3.1916,3.2596,0.0,0.0,0.0,0.0,3.3807,3.3807,3.3807,3.4174,0.0,0.0,0.0,0.0,0.0,0.0,0.0,0.0,0.0,5.5335,5.6033,5.6602,5.6602,5.7134,5.7152,5.5812,5.6161,5.6363,5.5684,5.5592,5.5592,5.5592,5.5592,5.5537,5.5409,5.5372,5.4987,5.4051,5.3995,5.3628,5.2839,5.2142,5.1775,5.1775,5.0875,5.0435,5.0582,5.0178,4.9682,4.915,4.8159,4.7058,4.5902,4.6305,4.6654,4.6874,4.6195,4.5902,4.5883,4.5755,4.5773,4.5957,4.6489,4.6361,4.5975,4.6654,4.6397,4.5608,0.0,0.0,0.0,0.0,0.0,0.0,0.0,0.0,0.0,0.0,0.0,0.0,0.0,0.0,0.0,0.0,0.0,0.0,3.0398,0.0,0.0,2.9713,3.0241,3.0058,2.9035,2.9787,2.9824,2.8994,0.0,0.0,0.0,0.0,0.0,3.3605,0.0,0.0,3.1403,3.1513,3.1494,3.1458,3.2284,3.3036,3.3568,3.2871,3.2981,3.3385,3.2706,3.2889,3.3495,3.3605,3.3642,0.0,0.0,0.0,3.3807,3.3807,3.3807,0.0,0.0,0.0,0.0,0.0,0.0,0.0,0.0,0.0,5.2876,0.0,5.5188,5.5757,5.5757,5.5849,5.5831,5.5611,5.5684,5.5702,5.5611,5.5592,5.5592,5.5592,5.5592,5.5317,5.4638,5.4564,5.394,5.2417,5.2307,5.1958,5.1169,5.1022,5.0967,5.0967,4.9462,4.9003,4.9738,4.7627,4.6856,4.7425,4.5902,4.5443,4.5865,4.4562,4.4727,4.6049,4.5957,4.5902,4.5847,4.5149,4.5278,4.5847,4.5259,4.5388,4.5902,4.6012,4.5553,4.4873,0.0,0.0,0.0,0.0,0.0,0.0,0.0,0.0,0.0,0.0,0.0,0.0,0.0,0.0,0.0,3.0398,3.0398,3.0398,3.0398,3.015,3.0179,3.0576,3.0752,3.0541,2.9916,3.0379,3.0111,2.8994,0.0,0.0,0.0,3.3505,3.4394,0.0,0.0,0.0,0.0,0.0,3.2063,3.21,3.2467,3.2816,3.3146,3.3238,3.322,3.3146,3.3238,0.0,0.0,0.0,3.3807,3.3807,3.3807,0.0,0.0,0.0,0.0,0.0,0.0,0.0,0.0,0.0,0.0,0.0,0.0,0.0,5.1536,5.2234,5.2656,5.3316,5.4675,5.5299,5.5299,5.4399,5.4638,5.4766,5.4326,5.3867,5.3573,5.3573,5.317,5.2766,5.2417,5.238,5.2087,5.1371,5.1334,5.0967,5.016,4.9664,4.9205,4.8746,4.7572,4.7131,4.7517,4.6452,4.5847,4.5755,4.5057,4.4654,4.4525,4.3809,4.4121,4.5204,4.4745,4.4562,4.4525,4.4176,4.4232,4.4562,4.4672,4.4635,4.4634,4.5263,4.5012,4.4374,0.0,0.0,0.0,0.0,0.0,0.0,0.0,0.0,0.0,0.0,0.0,0.0,0.0,0.0,0.0,0.0,3.059,3.0641,3.0398,3.0209,3.0362,3.0929,3.1225,3.1166,3.0711,3.1092,3.0789,0.0,0.0,0.0,3.323,3.4422,3.5697,0.0,3.5587,0.0,0.0,0.0,0.0,0.0,3.2614,3.2614,3.2651,3.3036,3.2944,3.2687,3.3293,0.0,0.0,0.0,0.0,0.0,3.3807,3.3807,0.0,0.0,0.0,0.0,0.0,0.0,0.0,0.0,0.0,0.0,0.0,0.0,4.9921,0.0,5.016,5.071,5.2527,5.3683,5.3995,5.2803,5.3096,5.328,5.2674,5.2068,5.1701,5.1701,5.1169,5.0802,5.0802,5.0802,5.0729,5.0508,5.0288,4.9811,4.9003,4.8159,4.7425,4.6819,4.6012,4.5681,4.5902,4.57,4.5186,4.4397,4.4397,4.4085,4.3497,4.3497,4.3828,4.436,4.3754,4.3497,4.3497,4.3497,4.3497,4.3552,4.4158,4.4081,4.3719,4.4581,4.458,4.4204,0.0,0.0,0.0,0.0,0.0,0.0,0.0,0.0,0.0,0.0,0.0,0.0,3.0398,3.1141,3.1295,3.0456,3.116,3.1275,3.0436,3.0398,3.0286,3.009,3.1565,0.0,3.0996,3.1732,0.0,0.0,0.0,0.0,3.4862,3.4954,3.6274,3.8469,3.6083,3.411,3.2724,0.0,0.0,0.0,0.0,0.0,0.0,0.0,0.0,0.0,0.0,0.0,0.0,0.0,0.0,0.0,0.0,0.0,0.0,0.0,0.0,0.0,0.0,0.0,0.0,0.0,0.0,0.0,0.0,0.0,4.7517,4.8269,4.8434,4.8471,4.86,4.9958,5.1022,5.0949,5.0967,5.0967,5.093,5.0894,5.0857,5.0857,5.0839,5.0802,5.0802,5.0802,5.0472,4.9701,4.8893,4.8086,4.7297,4.6471,4.6012,4.5957,4.5186,4.5131,4.5883,4.5149,4.436,4.3552,4.3552,4.3534,4.3497,4.3497,4.3516,4.3552,4.3516,4.3497,4.3497,4.3497,4.3497,4.3497,4.3534,4.373,4.3986,4.4023,4.427,4.4606,0.0,0.0,0.0,0.0,0.0,0.0,0.0,0.0,0.0,0.0,0.0,0.0,0.0,3.1506,3.1564,3.1256,3.1525,3.1333,3.0456,3.141,3.1962,3.1859,3.2971,3.3345,3.2866,3.3283,0.0,0.0,0.0,3.3306,3.4247,3.4752,3.5467,3.6303,3.5394,3.4972,3.4926,3.4137,0.0,0.0,0.0,0.0,0.0,0.0,0.0,0.0,0.0,0.0,0.0,0.0,0.0,0.0,0.0,0.0,0.0,0.0,0.0,0.0,0.0,0.0,0.0,0.0,0.0,4.1056,4.2158,4.4048,4.5645,4.5938,4.6397,4.6764,4.6764,4.8545,5.0013,4.9976,5.0435,5.0802,5.0802,5.0362,4.9811,4.926,4.8746,4.8233,4.7719,4.7664,4.7535,4.7241,4.6929,4.6416,4.5608,4.5296,4.4892,4.4378,4.4066,4.4066,4.436,4.4066,4.3791,4.3479,4.2983,4.2727,4.2727,4.2727,4.2727,4.2727,4.2727,4.302,4.3497,4.3497,4.3185,4.2782,4.3296,4.3379,4.333,4.4102,4.4612,4.4966,0.0,0.0,0.0,0.0,0.0,0.0,0.0,0.0,0.0,0.0,0.0,0.0,0.0,0.0,3.2429,3.2122,3.2102,3.1737,3.0891,3.2141,3.2891,3.2891,3.3718,3.4139,3.4006,0.0,0.0,0.0,0.0,0.0,0.0,3.4486,3.4908,3.5422,3.4853,3.4926,0.0,0.0,0.0,3.377,0.0,0.0,3.2706,0.0,0.0,0.0,0.0,0.0,0.0,0.0,0.0,0.0,0.0,0.0,0.0,0.0,0.0,0.0,0.0,0.0,0.0,0.0,0.0,3.8891,3.9717,4.1552,4.3167,4.3442,4.414,4.4764,4.5039,4.6654,4.8031,4.8251,4.8783,4.9169,4.9169,4.8691,4.8141,4.7572,4.7021,4.6489,4.5957,4.5902,4.5902,4.5902,4.5645,4.5259,4.4745,4.4452,4.4048,4.3516,4.3497,4.3369,4.3094,4.321,4.3129,4.2853,4.2318,4.206,4.206,4.1948,4.1901,4.1901,4.1901,4.2359,4.3075,4.28,4.2378,4.1956,4.2617,4.2748,4.2706,4.3895,4.4376,4.4498,0.0,0.0,0.0,0.0,0.0,0.0,0.0,0.0,0.0,0.0,0.0,0.0,0.0,0.0,0.0,3.3006,3.2949,3.2602,3.1795,3.2506,3.2968,3.2949,3.3776,3.4237,3.4237,0.0,0.0,0.0,0.0,0.0,0.0,0.0,3.4669,3.6156,3.4523,3.3807,3.3807,0.0,3.3807,3.377,0.0,3.2687,3.2761,0.0,0.0,0.0,3.4697,3.5009,0.0,3.5027,0.0,0.0,0.0,0.0,0.0,0.0,0.0,0.0,0.0,0.0,0.0,0.0,0.0,0.0,3.7239,3.8652,4.0047,4.0836,4.1662,4.2488,4.3277,4.4085,4.4892,4.57,4.5865,4.5902,4.5902,4.5902,4.5883,4.5865,4.5865,4.5865,4.5828,4.5828,4.5828,4.5828,4.5112,4.4672,4.4672,4.392,4.3479,4.3461,4.3442,4.3075,4.2301,4.26,4.2385,4.1613,4.1566,4.1547,4.1566,4.123,4.1075,4.1075,4.1056,4.1497,4.2176,4.1423,4.1093,4.1107,4.1456,4.1798,4.2189,4.3327,4.3484,4.3201,0.0,0.0,0.0,0.0,0.0,0.0,0.0,0.0,0.0,0.0,0.0,0.0,0.0,3.391,3.4103,3.3853,3.3833,3.3468,3.2622,3.3968,3.4507,3.3872,3.468,3.5141,3.5141,0.0,0.0,0.0,0.0,0.0,0.0,0.0,0.0,0.0,3.4009,3.3807,3.3807,3.3807,0.0,0.0,3.4422,3.433,0.0,0.0,0.0,0.0,0.0,3.5422,3.5936,0.0,3.6174,3.6285,0.0,0.0,0.0,0.0,0.0,0.0,3.3815,0.0,0.0,0.0,0.0,0.0,3.5642,3.6964,3.8212,3.845,3.9588,4.0818,4.1625,4.2433,4.324,4.403,4.5131,4.5902,4.5902,4.5902,4.5681,4.5112,4.5039,4.48,4.4213,4.4158,4.4158,4.4158,4.3956,4.3828,4.3828,4.3608,4.3222,4.2653,4.2635,4.2345,4.1809,4.188,4.1904,4.1867,4.1045,4.0654,4.0654,4.0363,4.023,4.0194,3.9625,3.9827,4.0579,4.0965,4.0763,4.0317,4.1234,4.1443,4.1369,4.2455,4.2967,4.3124,0.0,0.0,0.0,0.0,0.0,0.0,0.0,0.0,0.0,0.0,0.0,0.0,0.0,0.0,3.4603,3.4218,3.4526,3.4372,3.3506,3.4737,3.5276,3.4757,3.5238,3.5493,3.5493,0.0,0.0,0.0,0.0,0.0,0.0,0.0,0.0,0.0,0.0,0.0,0.0,0.0,0.0,0.0,3.4504,0.0,0.0,3.5293,3.5257,0.0,0.0,0.0,3.7202,3.6523,3.6597,0.0,0.0,0.0,0.0,0.0,0.0,0.0,0.0,0.0,0.0,0.0,0.0,0.0,3.4917,3.5771,3.656,3.6909,3.7991,3.9129,3.9955,4.0487,4.1056,4.1864,4.2782,4.3754,4.4745,4.4892,4.4709,4.4268,4.3901,4.3644,4.3497,4.3185,4.313,4.3461,4.3497,4.3332,4.302,4.3133,4.2765,4.1827,4.1711,4.1479,4.1063,4.0963,4.0834,4.0662,3.9889,3.9495,3.9444,3.9058,3.8891,3.8854,3.8395,3.8469,3.894,3.9534,3.9686,3.9653,4.0466,4.0672,4.0715,4.18,4.2139,4.2066,0.0,0.0,0.0,3.1564,3.1852,3.2199,0.0,0.0,0.0,0.0,0.0,0.0,0.0,0.0,0.0,3.441,3.5045,3.518,3.4391,3.5064,3.5493,3.5493,3.5493,3.5493,3.5493,0.0,0.0,0.0,0.0,0.0,0.0,0.0,0.0,0.0,0.0,0.0,0.0,0.0,0.0,3.3807,3.3899,3.3935,0.0,0.0,3.6156,3.6266,3.7074,3.7881,3.8358,3.7019,3.645,0.0,0.0,0.0,0.0,0.0,3.4663,0.0,0.0,0.0,0.0,0.0,0.0,0.0,3.4825,3.499,3.5174,3.5881,3.6652,3.7459,3.8285,3.8505,3.8836,3.9643,3.9827,4.0671,4.291,4.3222,4.3222,4.3222,4.2598,4.2451,4.3149,4.2598,4.2451,4.3167,4.3222,4.2944,4.2261,4.2489,4.2143,4.0964,4.0857,4.0534,3.9981,3.9905,3.949,3.8708,3.8393,3.8244,3.8203,3.7654,3.7419,3.7429,3.7366,3.744,3.7598,3.7642,3.8257,3.9152,3.9529,3.9859,4.0234,4.1272,4.1162,4.0604,3.0003,0.0,0.0,3.1635,3.2814,3.3526,3.2987,0.0,0.0,0.0,0.0,0.0,0.0,0.0,0.0,3.5257,3.5411,3.543,3.5257,3.5411,3.5493,3.5493,3.5493,3.5493,3.5493,3.5493,0.0,0.0,0.0,0.0,0.0,0.0,0.0,0.0,0.0,0.0,0.0,0.0,0.0,3.3862,3.4523,0.0,3.4789,3.5119,3.5247,3.5385,3.6229,3.7037,3.7771,3.812,3.7367,3.6413,0.0,0.0,0.0,0.0,0.0,0.0,0.0,0.0,0.0,0.0,0.0,0.0,3.4954,3.499,3.4844,3.4394,3.4926,3.5752,3.6615,3.7294,3.7991,3.8799,3.9478,4.0286,4.1423,4.1589,4.1589,4.1589,4.1442,4.1405,4.1552,4.1442,4.1405,4.157,4.1589,4.1609,4.1728,4.1816,4.1204,3.9864,4.044,3.9909,3.8057,3.8708,3.8744,3.8159,3.7603,3.7463,3.7642,3.7093,3.6956,3.7146,3.6494,3.6944,3.8051,3.6806,3.7403,3.9178,3.9775,4.0042,4.0158,4.0581,4.0642,4.0508,3.0385,0.0,0.0,0.0,3.3239,3.3792,3.3792,0.0,0.0,0.0,0.0,0.0,0.0,0.0,0.0,0.0,3.6507,3.6392,3.5551,3.5892,3.593,3.5526,3.5493,3.5493,3.5493,3.5493,3.5304,0.0,0.0,0.0,0.0,0.0,0.0,0.0,0.0,0.0,0.0,0.0,3.4252,3.4615,3.4475,0.0,3.4468,3.4844,3.5275,3.5771,3.6597,3.7147,3.7661,3.8891,3.823,0.0,0.0,3.7533,3.6798,0.0,3.5973,3.5569,0.0,0.0,0.0,3.499,0.0,0.0,0.0,3.4412,3.4412,3.4412,3.4412,3.4669,3.5514,3.5642,3.6064,3.7294,3.7477,3.79,3.9129,3.9992,4.0359,3.9955,3.9551,3.946,3.9863,3.9669,3.9649,4.0074,4.0344,4.0474,4.0356,4.0483,4.004,3.8949,3.8817,3.8347,3.7508,3.767,3.7632,3.7353,3.6916,3.6768,3.6899,3.6481,3.6366,3.6481,3.6088,3.6371,3.7049,3.6385,3.6969,3.8373,3.9144,3.9546,3.9766,4.0303,4.0239,3.995,3.1053,0.0,0.0,0.0,3.3541,3.3901,3.46,3.487,0.0,0.0,0.0,0.0,0.0,0.0,0.0,0.0,0.0,3.7161,0.0,0.0,0.0,3.5757,3.557,3.557,3.5738,3.5584,3.5366,3.5097,0.0,0.0,0.0,0.0,0.0,0.0,0.0,0.0,0.0,0.0,0.0,3.5324,0.0,3.4137,3.4357,3.5018,3.5789,3.6633,3.7422,3.7716,3.7918,3.9221,3.8799,3.7826,3.8505,3.8248,0.0,0.0,0.0,0.0,0.0,0.0,0.0,0.0,0.0,3.5156,0.0,0.0,0.0,3.4688,3.4266,3.4009,3.4669,3.4247,3.4192,3.5385,3.5275,3.5367,3.6395,3.7808,3.8652,3.8487,3.7753,3.7569,3.8395,3.7831,3.7705,3.8348,3.882,3.9007,3.8712,3.8973,3.8779,3.8031,3.7321,3.6995,3.7122,3.6842,3.6622,3.6454,3.6214,3.6094,3.615,3.5875,3.5757,3.5836,3.5836,3.5912,3.6064,3.6117,3.6719,3.7675,3.8363,3.881,3.9123,3.9777,3.97,3.9392,3.1837,3.2362,0.0,0.0,3.4033,3.46,3.4675,3.4733,0.0,0.0,0.0,0.0,0.0,0.0,0.0,0.0,0.0,0.0,3.8719,0.0,0.0,3.6546,3.5892,3.5834,3.6546,3.5872,3.5825,3.6473,0.0,0.0,0.0,0.0,0.0,0.0,3.4996,0.0,0.0,0.0,3.5236,0.0,3.4926,3.5349,0.0,3.6119,3.6652,3.7459,3.8267,3.856,3.8597,0.0,3.8707,3.8579,0.0,3.8634,3.8414,3.7698,0.0,0.0,0.0,0.0,0.0,0.0,3.7028,0.0,0.0,0.0,3.5039,3.4144,0.0,3.3825,3.3917,0.0,0.0,3.3128,3.411,3.455,3.3348,3.3935,3.5275,3.7386,3.6927,3.6743,3.7551,3.6453,3.572,3.5813,3.6096,3.6581,3.7291,3.7583,3.7467,3.6899,3.7516,3.7166,3.5734,3.6378,3.6353,3.5628,3.5356,3.5356,3.558,3.5308,3.5324,3.5552,3.5552,3.5955,3.655,3.5869,3.6522,3.7959,3.8055,3.8108,3.8161,3.8257,3.8719,3.9296,3.2336,0.0,0.0,0.0,3.4064,3.4401,3.4401,3.5244,0.0,0.0,0.0,0.0,0.0,0.0,0.0,0.0,0.0,3.843,0.0,0.0,0.0,0.0,0.0,0.0,3.6699,3.6372,3.6065,3.5771,3.5359,0.0,0.0,0.0,0.0,0.0,3.4945,0.0,3.4933,0.0,3.5764,0.0,0.0,0.0,0.0,3.6652,3.7092,3.823,3.8579,3.8707,3.8707,0.0,3.8707,0.0,0.0,0.0,0.0,0.0,0.0,0.0,0.0,0.0,0.0,0.0,0.0,0.0,3.6106,0.0,3.5053,3.4605,0.0,0.0,0.0,0.0,0.0,0.0,3.4174,3.4082,3.3403,3.332,3.385,3.5193,3.4229,3.3707,3.4372,3.3848,3.3548,3.3712,3.4578,3.5356,3.5913,3.6007,3.6031,3.5993,3.5391,3.4699,3.4007,3.4334,3.4584,3.4737,3.4635,3.4904,3.5493,3.5383,3.5383,3.5493,3.5493,3.5699,3.5988,3.5641,3.5911,3.6546,3.6546,3.6834,3.7315,3.7815,3.7911,3.7853,3.2952,0.0,0.0,0.0,0.0,0.0,0.0,0.0,0.0,0.0,0.0,0.0,3.9524,3.9819,0.0,0.0,0.0,3.9682,0.0,0.0,3.7892,3.7642,3.7873,0.0,0.0,0.0,3.655,3.6255,3.5665,0.0,0.0,0.0,0.0,0.0,0.0,3.5069,3.4725,0.0,0.0,3.6502,3.6353,3.7129,3.8267,3.7312,3.7679,3.8707,3.8707,3.8707,3.8689,3.8773,3.8762,3.8719,3.8773,3.8803,3.8803,0.0,0.0,0.0,3.8719,0.0,0.0,0.0,0.0,0.0,0.0,0.0,0.0,0.0,3.5155,0.0,0.0,0.0,3.3917,3.4275,0.0,3.3497,3.3276,3.2762,3.2678,3.3401,3.2691,3.2261,3.2524,3.2336,3.2293,3.2499,3.3311,3.3977,3.4363,3.4413,3.4546,3.4782,3.3564,3.2891,3.2891,3.2891,3.3333,3.4199,3.4199,3.4661,3.5474,3.5257,3.5276,3.5488,3.5257,3.5276,3.5474,3.5238,3.5276,3.5488,3.5257,3.568,3.6488,3.7103,3.7103,3.6853,3.3884,3.4018,0.0,0.0,0.0,0.0,0.0,0.0,0.0,0.0,0.0,0.0,0.0,0.0,0.0,0.0,0.0,3.9452,4.1091,0.0,3.7623,3.6776,3.7546,3.7988,0.0,0.0,0.0,3.9181,0.0,0.0,0.0,0.0,0.0,0.0,0.0,3.5864,3.588,3.6446,3.6044,3.5156,3.5954,3.6798,3.7606,0.0,3.867,3.8707,3.8707,3.8707,3.875,3.8999,3.8923,3.875,3.8999,3.9099,3.9036,0.0,0.0,0.0,3.8762,3.8913,3.916,3.9467,3.9155,3.867,3.8364,3.7656,3.6892,0.0,0.0,3.499,3.499,3.4357,3.355,0.0,3.2859,0.0,0.0,3.135,3.1386,3.25,3.35,3.39,3.3408,3.2821,3.248,3.2496,3.2062,3.2018,3.2553,3.2842,3.2955,3.2987,3.2929,3.2891,3.2891,3.2891,3.3333,3.4199,3.4199,3.4661,3.5468,3.4622,3.4699,3.5449,3.4603,3.4718,3.543,3.4584,3.4737,3.543,3.4641,3.4872,3.5641,3.568,3.6185,3.6897,0.0,0.0,0.0,0.0,0.0,0.0,0.0,3.6738,0.0,0.0,0.0,0.0,0.0,4.375,4.4049,0.0,0.0,4.2181,4.2467,4.0498,0.0,0.0,0.0,3.9411,0.0,0.0,0.0,0.0,0.0,0.0,0.0,0.0,0.0,0.0,0.0,3.4988,0.0,0.0,0.0,0.0,0.0,3.7569,3.8267,3.7991,3.823,3.8707,3.8707,3.8815,3.8961,3.8855,3.9045,3.9242,3.8942,3.9109,3.9383,3.9054,3.9036,3.9125,3.9249,3.9358,3.951,3.9859,3.9394,3.8842,3.8746,3.8169,3.7287,3.6017,3.5836,3.5532,3.4412,3.399,3.3776,0.0,0.0,3.3388,0.0,3.0923,3.0526,3.16,3.2053,3.1973,3.1225,3.114,3.1117,3.1117,3.1488,3.1789,3.1955,3.2564,3.266,3.2122,3.2102,3.1833,3.1256,3.1256,3.1679,3.2545,3.2545,3.2994,3.3846,3.4103,3.4077,3.3866,3.4097,3.4045,3.3757,3.3468,3.3872,3.4622,3.3763,3.4342,3.567,3.5663,3.5859,3.6106,3.4043,0.0,0.0,0.0,0.0,0.0,0.0,0.0,0.0,0.0,4.2658,0.0,4.5438,0.0,4.6006,0.0,4.4266,4.3426,4.2354,4.1417,0.0,4.0454,4.0469,0.0,0.0,0.0,0.0,0.0,0.0,3.6711,0.0,0.0,0.0,0.0,0.0,3.4596,3.4773,0.0,3.4971,0.0,0.0,3.7734,0.0,3.812,3.8248,3.8719,3.8803,3.8581,3.8298,3.8633,3.8733,3.8719,3.8719,3.8995,3.9312,3.9289,3.9264,3.9314,3.9552,3.9599,3.9668,4.0022,3.9775,3.9446,3.9356,3.8896,3.8222,3.7178,3.6898,3.6574,3.5595,3.4952,3.4599,0.0,0.0,3.3579,0.0,3.0836,3.0217,3.0892,3.1172,3.1314,3.1352,3.1059,3.1121,3.1718,3.1429,3.1371,3.1679,3.191,3.1775,3.1256,3.1237,3.0987,3.0448,3.0448,3.0891,3.1768,3.1768,3.2237,3.3071,3.3296,3.3265,3.309,3.3288,3.325,3.2968,3.2667,3.3083,3.3827,3.2987,3.3754,3.5311,3.5316,3.5512,3.5781,0.0,0.0,0.0,0.0,3.5953,0.0,0.0,0.0,4.3205,0.0,4.5571,4.611,4.649,4.6583,4.6116,4.4908,4.4364,4.3229,4.1142,4.1965,0.0,0.0,3.9707,3.9762,3.8146,0.0,0.0,0.0,0.0,0.0,0.0,0.0,0.0,0.0,3.4877,0.0,3.4274,3.4731,3.4559,3.4064,3.5661,3.7294,3.8762,3.867,3.8652,3.8695,3.8925,3.8037,3.6926,3.8245,3.8019,3.7319,3.8384,3.8766,3.8918,3.9429,3.9584,3.9599,3.9645,3.9622,3.9668,4.0022,4.0321,4.0422,4.0177,3.9861,3.9603,3.9566,3.8689,3.8004,3.8237,3.6961,3.5905,3.5849,3.4698,3.3333,3.1943,3.1006,3.0436,3.0398,3.0923,3.1878,0.0,3.2459,3.2333,3.3891,3.1814,3.0814,3.1602,3.0929,3.0513,3.0456,3.0533,3.0583,3.0564,3.0564,3.0999,3.1831,3.1823,3.2274,3.3038,3.2266,3.2337,3.3019,3.2235,3.2343,3.3012,3.2179,3.2352,3.3057,3.2254,3.2998,3.4552,3.4641,3.519,3.5892,3.3944,3.4916,3.6056,0.0,3.7251,3.8103,0.0,0.0,0.0,0.0,4.709,4.8267,4.8735,4.928,4.8628,4.6182,4.5908,0.0,0.0,0.0,0.0,4.2316,4.1273,4.0361,3.9582,3.9336,0.0,3.8627,0.0,0.0,3.747,0.0,0.0,0.0,0.0,0.0,3.4548,3.4252,3.4706,3.5697,3.6119,3.7624,3.946,3.8248,3.7808,3.7849,3.8099,3.7704,3.7058,3.7414,3.7623,3.7747,3.758,3.829,3.915,3.9033,3.9283,3.9712,4.0157,3.9925,3.9735,4.0248,4.0457,4.0489,4.0406,4.0195,3.9792,3.9184,3.8656,3.7928,3.6772,3.6187,3.5757,0.0,0.0,0.0,0.0,0.0,3.1141,3.0475,3.0535,3.0797,3.1239,3.1539,3.1641,3.1468,3.141,3.1198,3.0833,3.1737,3.1987,3.1391,3.2564,3.2622,3.141,3.1436,3.1263,3.0864,3.0905,3.107,3.1345,3.1728,3.1709,3.1359,3.1748,3.167,3.1251,3.1037,3.1487,3.2216,3.1364,3.2088,3.379,3.5081,3.5699,3.5892,3.4357,0.0,0.0,3.8395,0.0,0.0,4.1165,4.2884,0.0,4.694,4.8187,0.0,4.9044,4.973,4.9272,4.6919,4.64,0.0,4.4421,0.0,0.0,4.3243,4.18,4.0629,3.9768,3.9051,0.0,3.8233,0.0,0.0,3.7507,0.0,0.0,0.0,0.0,3.4183,3.482,3.4463,3.5293,3.678,3.6431,3.7533,0.0,3.7973,3.7276,3.6996,3.7019,3.6614,3.6151,3.673,3.6924,3.6983,3.7373,3.8051,3.8839,3.9382,3.9662,3.9903,4.0389,4.0176,3.9924,4.0389,4.0489,4.0489,4.0489,4.0285,4.0005,3.9674,3.9357,3.8874,3.8061,3.7317,3.6476,0.0,0.0,0.0,0.0,0.0,0.0,0.0,3.0717,3.0487,3.0487,3.091,3.1321,3.1642,3.1397,3.1177,3.1064,3.1917,3.2199,3.1718,3.3365,3.3481,3.1802,3.223,3.1864,3.0672,3.0715,3.075,3.0788,3.1265,3.1216,3.0801,3.1265,3.1188,3.0723,3.0723,3.1042,3.1534,3.1741,3.2206,3.2923,3.4584,3.543,3.5699,0.0,0.0,0.0,0.0,0.0,0.0,0.0,4.5477,0.0,4.8922,0.0,4.9137,4.8675,4.9114,4.8746,4.7095,0.0,4.5217,4.4011,4.427,4.3945,4.2753,4.1784,4.0672,3.9372,3.8174,0.0,0.0,0.0,0.0,0.0,0.0,0.0,0.0,0.0,0.0,0.0,3.5119,3.6009,3.7276,3.6688,3.7349,3.8597,3.7679,3.6919,3.6325,3.6002,3.5392,3.4887,3.6124,3.6084,3.5776,3.7334,3.7911,3.8315,3.9873,4.0245,4.0158,4.0441,4.0285,4.0158,4.0422,4.0489,4.0469,4.0354,4.0149,4.0022,4.015,3.9996,3.985,3.9977,3.8815,3.7353,3.5892,3.5045,3.4526,0.0,0.0,0.0,0.0,3.124,0.0,3.0621,3.0656,3.128,3.2749,3.1572,3.1025,3.162,3.1754,3.1782,3.1737,3.3339,3.3537,3.2081,3.2767,3.248,3.1203,3.0995,3.0957,3.1074,3.0957,3.0898,3.0898,3.0898,3.0898,3.0898,3.0898,3.0955,3.1189,3.2578,3.2712,3.2281,3.3654,3.4589,3.5114,0.0,0.0,0.0,0.0,0.0,4.5736,4.647,4.7905,4.9306,5.0315,5.1032,5.1198,5.0435,4.926,4.7884,4.625,4.5369,0.0,0.0,0.0,0.0,4.3745,4.2073,4.0635,3.9564,3.8418,3.7624,0.0,0.0,0.0,0.0,0.0,0.0,0.0,0.0,0.0,3.5045,3.5771,3.6229,3.656,3.7074,3.7845,3.8542,3.7074,3.6546,3.6589,3.6095,3.5394,3.4793,3.5492,3.5622,3.568,3.6642,3.743,3.82,3.92,3.9804,4.0158,4.0441,4.0285,4.0158,4.0422,4.0489,4.0315,3.9662,3.9458,3.925,3.8584,3.8401,3.8155,3.7493,3.7142,3.6834,3.6546,3.6454,3.6185,0.0,0.0,0.0,0.0,0.0,3.1413,3.0741,3.1263,3.1502,3.1153,3.1465,3.1451,3.0919,3.1463,3.1826,3.1866,3.2763,3.3153,3.2967,3.2482,3.2454,3.2871,3.1529,3.1289,3.1953,3.123,3.0898,3.0898,3.0898,3.0898,3.0898,3.0898,3.1261,3.1846,3.2119,3.2468,3.2859,3.3192,3.3229,3.3104,0.0,0.0,0.0,0.0,0.0,0.0,0.0,5.0417,5.1316,5.0857,5.038,4.9939,4.9554,4.8416,4.7388,4.6599,4.5424,4.4544,4.4158,4.4077,4.4136,4.429,4.3182,4.1982,4.0788,3.9188,3.8336,3.8249,0.0,0.0,0.0,3.6568,0.0,0.0,0.0,3.6911,0.0,3.7042,3.7368,3.7729,3.7566,3.7973,3.8591,3.7525,3.719,3.7212,3.6398,3.6141,3.6197,3.6136,3.6122,3.6276,3.7103,3.7969,3.8834,3.9681,4.0117,4.0339,4.0473,4.0425,4.0339,4.0473,4.0489,4.0277,3.9469,3.9296,3.9046,3.818,3.8007,3.7738,3.6873,3.6699,3.6699,3.6699,3.6416,3.6247,3.6327,3.5291,3.4251,0.0,0.0,0.0,3.1526,3.1419,3.1227,3.082,3.1153,3.1172,3.0723,3.1461,3.1899,3.1903,3.3154,3.3641,3.3256,3.3363,3.3369,3.334,3.2137,3.1797,3.2168,3.1309,3.0898,3.0898,3.0898,3.0894,3.0923,3.1312,3.1654,3.199,3.2374,3.2179,3.1731,3.2051,3.1776,3.1325,0.0,4.2011,0.0,0.0,4.7131,4.8545,5.0508,5.2032,5.2491,5.1224,4.9756,4.8765,4.86,4.7553,4.6856,4.6856,4.5369,4.4452,4.4452,4.4407,4.4364,4.4364,4.3937,4.2974,4.1514,3.991,3.9125,0.0,0.0,3.7777,3.9258,3.7488,0.0,0.0,3.8241,3.8395,3.8392,3.8284,3.8488,3.8801,3.8192,3.8272,3.8741,3.8223,3.8022,3.7976,3.7148,3.7083,3.7362,3.7064,3.6988,3.7103,3.7777,3.8604,3.945,4.0258,4.0489,4.0489,4.0489,4.0489,4.0489,4.0489,4.0354,4.0027,3.92,3.8873,3.8507,3.7642,3.7469,3.7257,3.6584,3.6584,3.6719,3.6738,3.6281,3.6164,3.691,3.5805,3.4781,0.0,0.0,0.0,3.1923,3.1297,3.0879,3.0838,3.1018,3.1021,3.0762,3.1523,3.1889,3.168,3.3049,3.3641,3.3321,3.3887,3.4099,3.3919,3.2731,3.2253,3.2378,3.1323,3.0834,3.0834,3.0834,3.0842,3.0886,3.1456,3.1772,3.1911,3.2274,3.1699,3.0682,3.0886,3.0494,2.9972,0.0,0.0,0.0,0.0,0.0,5.0527,5.0765,5.1555,5.205,5.1903,5.1114,5.0288,4.9554,4.7388,4.6012,4.6012,4.4544,4.3608,4.3608,4.3618,4.3597,4.3597,4.3144,4.2118,4.0485,4.0135,3.9605,0.0,0.0,3.8373,3.9277,3.83,3.8137,3.869,3.8485,3.8395,3.8452,3.9142,3.8901,3.8082,3.9032,3.9258,3.9005,3.8536,3.8504,3.8708,3.867,3.7855,3.6901,3.7642,3.7873,3.7892,3.7969,3.8604,3.945,4.0258,4.0489,4.0489,4.0489,4.0489,4.0489,4.0489,3.995,3.9181,3.8315,3.7507,3.6719,3.5911,3.5738,3.5718,3.5641,3.6219,3.6724,3.6858,3.6872,3.6934,3.706,3.6384,3.529,3.3711,0.0,0.0,3.1002,3.0885,3.0818,3.0638,3.142,3.1601,3.0917,3.1523,3.1621,3.1012,3.1045,3.1812,3.3372,3.2753,3.352,3.5637,3.3191,3.2404,3.3053,3.1387,3.0623,3.0623,3.0623,3.0625,3.0639,3.0698,3.1162,3.173,3.0815,3.078,3.1115,3.0191,2.9682,2.9472,0.0,0.0,4.5902,4.8196,4.86,4.9426,5.1885,5.1683,5.1279,5.1279,5.0582,4.9958,4.9627,4.7388,4.5902,4.5902,4.4415,4.3497,4.3497,4.3693,4.3804,4.3804,4.4035,4.3623,4.2427,4.157,4.0952,0.0,3.9384,3.92,3.9988,3.9161,3.8885,3.9131,3.9485,3.966,3.9661,3.9624,3.934,3.8939,3.9183,3.9212,3.9122,3.9331,3.9488,3.9471,3.8657,3.8312,3.8142,3.745,3.7565,3.8007,3.8007,3.8931,4.0065,4.0412,4.0489,4.0489,4.0489,4.0489,4.0373,3.9892,3.9527,3.8931,3.7546,3.6949,3.6469,3.568,3.5545,3.5565,3.5565,3.5872,3.6295,3.6867,3.6608,3.6507,3.7034,3.6476,3.5547,3.4336,0.0,3.2898,3.1607,3.106,3.0723,3.06,3.0984,3.1075,3.0731,3.1006,3.1308,3.1543,3.1081,3.1874,3.4093,3.3281,3.3846,3.5766,3.3693,3.3161,3.3897,3.1632,3.0898,3.1371,3.1371,3.1623,3.1988,3.1353,3.1255,3.1436,3.088,3.0532,3.0269,2.972,2.9318,2.9005,4.6507,4.6342,4.6929,4.9499,4.9169,4.9444,5.2105,5.1334,5.0362,5.0105,4.9352,4.8857,4.8857,4.6874,4.5553,4.5553,4.4287,4.3497,4.3497,4.3726,4.3912,4.4016,4.4612,4.4497,4.3531,4.2642,4.1961,4.1513,4.0252,3.9931,4.0489,3.9912,3.9642,3.9681,4.0239,4.0489,4.0473,4.0043,3.9821,3.9712,3.958,3.9467,3.9419,3.9737,3.9869,3.9696,3.8447,3.8392,3.8681,3.7199,3.7276,3.8007,3.8007,3.8988,4.0142,4.0142,4.0296,4.0489,4.0489,4.0489,4.0296,3.9488,3.9104,3.8527,3.7046,3.6526,3.6199,3.5622,3.5565,3.5603,3.5603,3.5644,3.5925,3.6568,3.6232,3.6113,3.669,3.6324,3.5586,3.4453,3.3769,3.2926,3.17,3.1056,3.0653,3.0548,3.0828,3.0898,3.0611,3.0879,3.1315,3.196,3.1472,3.2279,3.4554,3.3968,3.4326,3.5648,3.4206,3.3827,3.4334,3.1911,3.1264,3.2056,3.1736,3.2039,3.2664,3.1654,3.1225,3.1143,3.0694,3.0077,2.94,2.9193,2.8847,2.8524,4.7957,4.8893,4.9719,5.0637,5.1426,5.1683,5.0949,5.0123,4.9297,4.8453,4.7645,4.715,4.715,4.57,4.4727,4.4727,4.3975,4.3497,4.3497,4.3479,4.3646,4.3986,4.4392,4.4052,4.2845,4.2999,4.2336,4.082,4.0577,4.0489,4.0489,4.0489,4.0489,4.0489,4.0489,4.0489,4.0489,4.0489,4.0339,4.012,4.0372,4.0319,4.0024,3.9506,3.9315,3.9181,3.8315,3.8007,3.7873,3.7007,3.7276,3.8007,3.8007,3.8604,3.9296,3.9296,3.9873,4.0489,4.0489,4.0489,4.0296,3.9488,3.8642,3.7777,3.6911,3.6103,3.5512,3.5493,3.5565,3.5603,3.5603,3.565,3.5752,3.5901,3.5911,3.5929,3.6009,3.6016,3.5351,3.3613,3.3418,3.2668,3.0792,3.0666,3.0621,3.0429,3.1263,3.1436,3.0641,3.1352,3.1823,3.1896,3.1884,3.2726,3.4484,3.4488,3.4864,3.5584,3.4699,3.427,3.4141,3.2178,3.173,3.2422,3.1369,3.1356,3.2053,3.1242,3.0922,3.0809,2.9811,2.9172,2.8792,2.8511,2.821,2.7926,4.8214,4.8508,4.8967,4.9829,4.9701,4.9774,5.0655,4.915,4.7994,4.8269,4.6654,4.548,4.548,4.5021,4.4709,4.4709,4.3956,4.3497,4.3497,4.3497,4.3548,4.3646,4.4252,4.444,4.4025,4.3424,4.2864,4.2374,4.1116,4.0489,4.0489,4.0489,4.0489,4.0489,4.0489,4.0489,4.0489,4.0285,4.0177,4.0101,4.0195,4.0177,4.0101,4.0101,3.9777,3.9181,3.8315,3.7623,3.7065,3.6796,3.6526,3.6392,3.6949,3.8123,3.9296,3.9296,3.9873,4.0489,4.0489,4.0085,3.9623,3.9354,3.82,3.7046,3.6757,3.6084,3.5493,3.5493,3.5603,3.5669,3.567,3.5797,3.5918,3.5966,3.5977,3.5981,3.5996,3.5996,3.5566,3.4414,3.4241,3.3738,3.2493,3.2318,3.1994,3.1352,3.1564,3.1621,3.1352,3.1634,3.2316,3.3497,3.2466,3.2976,3.5234,3.4668,3.4659,3.5242,3.4381,3.3538,3.2781,3.3373,3.3412,3.3091,3.2751,3.275,3.29,3.1931,3.1033,3.0243,2.9722,2.8982,2.8228,2.8663,2.8264,2.7539,4.8306,4.8563,4.8857,4.9058,4.893,4.893,4.9352,4.8122,4.7076,4.6966,4.5645,4.458,4.4287,4.425,4.425,4.425,4.3791,4.3497,4.3497,4.3497,4.3548,4.366,4.4136,4.4296,4.4127,4.3306,4.2735,4.2409,4.113,4.0489,4.0489,4.0489,4.0489,4.0489,4.0489,4.0489,4.0489,4.0321,4.025,4.025,4.025,4.025,4.0248,4.0095,3.9738,3.9181,3.8315,3.7642,3.7142,3.6815,3.6372,3.5988,3.6199,3.7199,3.8315,3.8315,3.9142,4.0046,4.0046,3.9892,3.9604,3.8969,3.8238,3.7584,3.7257,3.6603,3.6031,3.6031,3.5892,3.5785,3.5786,3.5903,3.5996,3.5996,3.5996,3.5898,3.5566,3.5781,3.5566,3.4355,3.4451,3.4218,3.3277,3.3091,3.275,3.2199,3.2449,3.2506,3.2179,3.1903,3.2377,3.3737,3.3015,3.3513,3.5392,3.4764,3.4611,3.4925,3.4394,3.3752,3.3089,3.3761,3.3926,3.3679,3.3272,3.3198,3.3245,3.2275,3.132,3.0396,2.9683,2.8845,2.8122,2.8298,2.8001,2.7482,4.8306,4.8912,4.9169,4.8361,4.8838,4.8802,4.726,4.704,4.6471,4.4911,4.4709,4.4397,4.3589,4.3497,4.3497,4.3497,4.3497,4.3497,4.3497,4.3497,4.3646,4.3986,4.4016,4.382,4.3429,4.2829,4.2082,4.1245,4.0756,4.0489,4.0489,4.0489,4.0489,4.0489,4.0489,4.0489,4.0489,4.0431,4.0412,4.0412,4.0335,4.0354,4.0315,3.9585,3.9296,3.9181,3.8373,3.8046,3.7873,3.7065,3.6796,3.6661,3.5911,3.6161,3.6699,3.6699,3.793,3.9296,3.9296,3.9835,4.0046,3.8546,3.8738,3.9046,3.8123,3.7377,3.6897,3.6897,3.6372,3.5892,3.5892,3.5943,3.5996,3.5996,3.5996,3.5723,3.4902,3.5488,3.5391,3.3769,3.4225,3.4339,3.3459,3.3242,3.3115,3.3006,3.3724,3.3801,3.2917,3.2257,3.2218,3.2955,3.3502,3.4211,3.5051,3.4813,3.4694,3.4674,3.471,3.4689,3.4614,3.3583,3.3501,3.4067,3.3084,3.2848,3.3082,3.2331,3.1732,3.1111,2.9695,2.8837,2.8349,2.7624,2.7536,2.7582,4.8306,4.7976,4.7645,4.7443,4.7058,4.6636,4.625,4.6177,4.5828,4.4837,4.4709,4.4397,4.3589,4.3497,4.3497,4.3497,4.3497,4.3497,4.3497,4.3497,4.3646,4.3986,4.4016,4.4224,4.4661,4.3262,4.1896,4.0696,4.0569,4.0489,4.0489,4.0489,4.0489,4.0489,4.0489,4.0489,4.045,3.9835,3.9565,3.9527,3.8854,3.8988,3.9546,3.9373,3.9296,3.9258,3.9065,3.8565,3.7969,3.7757,3.77,3.7661,3.7469,3.7084,3.6699,3.6699,3.793,3.9296,3.9296,3.9431,3.9642,3.9854,3.9604,3.8892,3.7353,3.6954,3.6897,3.6897,3.6372,3.5892,3.5892,3.5943,3.5996,3.5996,3.5996,3.5937,3.5723,3.5879,3.5859,3.543,3.5412,3.5359,3.5136,3.4993,3.4628,3.393,3.3901,3.3509,3.2649,3.3443,3.3805,3.3586,3.3745,3.4124,3.4793,3.4734,3.4572,3.4311,3.4742,3.4615,3.4005,3.4389,3.4128,3.3421,3.3161,3.2913,3.2631,3.2453,3.1782,3.0802,3.0436,2.9713,2.8813,2.8199,2.7677,2.716,4.8306,4.7957,4.7664,4.7664,4.6985,4.6324,4.5957,4.559,4.5057,4.4268,4.4158,4.3993,4.3534,4.3497,4.3497,4.3497,4.3497,4.3497,4.3497,4.3497,4.3563,4.3772,4.3772,4.3919,4.4279,4.297,4.1682,4.0489,4.0489,4.0489,4.0489,4.0489,4.0489,4.0489,4.0489,4.0489,4.0469,4.0027,3.9835,3.9796,3.9335,3.9431,3.9835,3.9835,3.9835,3.9835,3.9835,3.9296,3.8584,3.8584,3.8334,3.8007,3.8007,3.768,3.7219,3.6815,3.7642,3.87,3.87,3.9258,3.995,4.0392,3.9892,3.9161,3.8642,3.8031,3.7555,3.7593,3.6712,3.5954,3.5954,3.5981,3.5996,3.5996,3.5996,3.5859,3.5469,3.5724,3.595,3.5949,3.6133,3.6389,3.6771,3.6699,3.6234,3.5224,3.5018,3.4348,3.2974,3.4356,3.4715,3.3655,3.4244,3.454,3.4467,3.4703,3.4742,3.4567,3.5266,3.5367,3.4963,3.5404,3.4929,3.3756,3.3756,3.3148,3.2161,3.2161,3.1689,3.0876,3.0262,2.9644,2.8965,2.8092,2.7713,2.7502,4.8104,4.7921,4.7774,4.7774,4.7095,4.6342,4.5645,4.5057,4.4415,4.3608,4.3608,4.3626,4.3497,4.3497,4.3497,4.3497,4.3497,4.3497,4.3497,4.3497,4.3513,4.3563,4.3513,4.3521,4.3574,4.2772,4.181,4.07,4.07,4.0623,4.0489,4.0489,4.0489,4.0489,4.0489,4.0489,4.0489,4.0354,4.0315,4.0296,4.0181,4.02,4.0296,4.0162,4.02,4.0296,4.0162,3.9758,3.9296,3.9296,3.8892,3.8373,3.8373,3.8296,3.8046,3.7315,3.7623,3.8161,3.8046,3.9219,4.0469,4.0335,3.9892,3.9662,4.035,3.9461,3.8522,3.8577,3.7416,3.6387,3.6387,3.6289,3.6191,3.6191,3.6094,3.5741,3.499,3.5474,3.594,3.6044,3.6565,3.7224,3.8012,3.8046,3.7586,3.6552,3.6441,3.5685,3.399,3.5321,3.5431,3.3888,3.504,3.5311,3.4519,3.4971,3.5192,3.5192,3.6064,3.6413,3.6303,3.6227,3.5496,3.4263,3.4074,3.3119,3.1679,3.1588,3.1376,3.0948,2.97,2.9231,2.9066,2.7726,2.7624,2.7942,4.7168,4.6195,4.5278,4.5278,4.4599,4.4011,4.3883,4.4342,4.4415,4.3608,4.4085,4.425,4.3552,4.3497,4.3497,4.3497,4.3497,4.3497,4.3497,4.3497,4.3631,4.3893,4.3646,4.3918,4.4798,4.425,4.3171,4.1604,4.1604,4.1219,4.0489,4.0489,4.0489,4.0489,4.0489,4.0489,4.045,3.9758,3.9488,3.9411,3.8681,3.8834,3.9411,3.8661,3.8854,3.9392,3.8642,3.8777,3.9296,3.9296,3.9662,4.0104,4.0104,3.9642,3.9065,3.8931,3.8988,3.8931,3.82,3.9219,4.0335,3.9662,3.9892,4.0196,3.9696,3.9507,3.9432,3.9475,3.8804,3.8203,3.8203,3.7598,3.7109,3.7109,3.6484,3.5935,3.5736,3.5824,3.6128,3.6752,3.6863,3.7224,3.8012,3.8046,3.7801,3.7336,3.7088,3.6742,3.6224,3.685,3.6823,3.5901,3.6281,3.6356,3.5984,3.6056,3.6101,3.6101,3.6909,3.6945,3.6303,3.5884,3.5001,3.3768,3.2652,3.1854,3.1235,3.0747,3.0502,3.0377,2.9648,2.938,2.9195,2.7915,2.7547,2.744,4.6379,4.5865,4.5351,4.5351,4.469,4.4158,4.4158,4.4085,4.392,4.3534,4.3809,4.3901,4.3534,4.3497,4.3497,4.3497,4.3497,4.3497,4.3497,4.3497,4.3563,4.3726,4.3563,4.3472,4.3412,4.4001,4.3239,4.1104,4.1566,4.1354,4.0489,4.0489,4.0489,4.0469,4.0046,3.9835,3.9796,3.895,3.8604,3.8604,3.8661,3.8931,3.9296,3.9335,3.9335,3.9238,3.8834,3.895,3.9296,3.9296,3.9815,4.0489,4.0489,4.0239,3.9854,3.9431,3.9296,3.9296,3.9335,3.9912,4.0412,4.0027,4.0219,4.0446,4.0215,3.9871,3.9762,4.0369,3.9481,3.873,3.9219,3.8203,3.7441,3.793,3.6875,3.6293,3.7134,3.682,3.6935,3.8151,3.8223,3.8507,3.9315,3.9224,3.8802,3.8038,3.7702,3.72,3.65,3.7124,3.7342,3.6945,3.6657,3.6436,3.6303,3.6725,3.6945,3.6945,3.7484,3.7521,3.7158,3.6694,3.5545,3.3948,3.3341,3.2205,3.0699,3.0418,3.0123,2.9761,2.9134,2.8919,2.8779,2.7917,2.7555,2.7367,4.5571,4.5461,4.5333,4.5333,4.4837,4.4415,4.4415,4.3901,4.3497,4.3497,4.3497,4.3497,4.3497,4.3497,4.3497,4.3497,4.3497,4.3497,4.3497,4.3497,4.3497,4.3497,4.3646,4.3379,4.2624,4.3713,4.3239,4.1104,4.1566,4.1354,4.0489,4.0489,4.0392,4.0181,3.9565,3.9181,3.895,3.8277,3.8007,3.8084,3.895,3.9296,3.9373,3.9988,3.9835,3.9238,3.8834,3.895,3.9258,3.9065,3.9662,4.0489,4.0489,4.0489,4.0373,3.9758,3.9565,3.97,4.0315,4.0489,4.0489,4.0489,4.0508,4.06,4.0754,4.0346,4.021,4.1265,4.041,3.9687,4.0351,3.9394,3.8574,3.8867,3.7773,3.7256,3.8228,3.793,3.804,3.9242,3.9508,3.98,4.0348,4.0213,3.9656,3.8625,3.8303,3.7811,3.6919,3.7422,3.7723,3.7613,3.7088,3.6806,3.6668,3.7272,3.7533,3.7439,3.7623,3.772,3.7702,3.6875,3.5668,3.4185,3.3571,3.2138,3.0293,2.9995,2.9629,2.9134,2.8559,2.8286,2.8222,2.776,2.7509,2.7181,4.4654,4.4195,4.3663,4.3663,4.3626,4.3589,4.3589,4.3534,4.3497,4.3497,4.3497,4.3497,4.3497,4.3497,4.3497,4.3497,4.3497,4.3497,4.3497,4.3497,4.3497,4.3497,4.4136,4.4471,4.441,4.4344,4.3835,4.2912,4.2162,4.1354,4.0489,4.0489,4.0085,3.9392,3.9315,3.8854,3.8084,3.8027,3.8007,3.8084,3.895,3.9296,3.9296,3.9373,3.9354,3.9084,3.7469,3.793,3.9181,3.8373,3.9161,4.0489,4.0489,4.0489,4.0489,4.0431,4.0412,4.0412,4.0469,4.0489,4.0489,4.0489,4.06,4.0716,4.0773,4.0862,4.1176,4.2119,4.2207,4.2148,4.2207,4.2109,4.1543,4.0059,3.9707,3.9305,3.8432,3.8936,3.9372,3.9335,3.995,4.0332,4.0158,4.0101,3.98,3.9111,3.9032,3.886,3.8554,3.8579,3.8373,3.7889,3.8269,3.8282,3.7765,3.7819,3.763,3.7214,3.723,3.7248,3.7212,3.5294,3.4345,3.4077,3.1648,3.0476,3.0208,2.9088,2.8606,2.8511,2.791,2.7675,2.766,2.7625,2.7152,2.6549,4.3901,4.3699,4.3497,4.3497,4.3497,4.3497,4.3497,4.3497,4.3497,4.3497,4.3497,4.3497,4.3497,4.3497,4.3497,4.3497,4.3497,4.3497,4.3497,4.3693,4.3804,4.3804,4.4308,4.4436,4.4117,4.4231,4.3643,4.2297,4.197,4.1354,4.0489,3.9988,3.9585,3.9238,3.8161,3.7507,3.7161,3.6661,3.6449,3.6526,3.7353,3.77,3.7757,3.8296,3.8488,3.8411,3.7738,3.8277,3.9238,3.8911,3.9546,4.0489,4.0489,4.0873,4.1412,4.195,4.2104,4.1989,4.145,4.0912,4.0489,4.0489,4.06,4.0718,4.0773,4.0907,4.1422,4.29,4.2773,4.2578,4.3105,4.2754,4.2187,4.1543,4.0961,4.078,4.1371,4.1216,4.0962,4.0873,4.1604,4.179,4.092,4.1155,4.1141,4.0691,3.9989,3.954,3.9441,3.8656,3.7998,3.747,3.7667,3.7667,3.747,3.747,3.736,3.719,3.6882,3.6684,3.6666,3.558,3.4347,3.3102,3.2094,3.0705,2.9134,2.8701,2.8271,2.7894,2.766,2.7306,2.6974,2.7302,2.6759,2.5784,4.3497,4.3497,4.3497,4.3497,4.3497,4.3497,4.3497,4.3497,4.3497,4.3497,4.3497,4.3497,4.3497,4.3497,4.3497,4.3497,4.3497,4.3497,4.3497,4.3804,4.4076,4.4175,4.4535,4.4588,4.4217,4.4019,4.3355,4.222,4.1662,4.1085,4.0489,3.9931,3.9527,3.9238,3.7757,3.6969,3.6661,3.5853,3.5493,3.557,3.6392,3.6699,3.6834,3.7969,3.8411,3.8411,3.8411,3.895,3.9642,3.9392,3.9815,4.0546,4.0816,4.1508,4.2335,4.2912,4.3104,4.297,4.2374,4.1777,4.1258,4.1024,4.127,4.1576,4.1671,4.178,4.2274,4.3803,4.3633,4.3398,4.4004,4.3848,4.3434,4.2871,4.2446,4.2464,4.3238,4.2975,4.259,4.2258,4.2864,4.2852,4.1673,4.1548,4.1405,4.1086,4.0333,3.9818,3.9652,3.8222,3.7268,3.696,3.6803,3.6724,3.6724,3.6865,3.6865,3.6666,3.6333,3.6037,3.5812,3.5228,3.4031,3.2504,3.2073,3.0816,2.9098,2.8916,2.8475,2.7919,2.7839,2.7281,2.6558,2.7058,2.6273,2.5046,4.3497,4.3497,4.3497,4.3497,4.3497,4.3497,4.3497,4.3497,4.3497,4.3497,4.3497,4.3497,4.3497,4.3497,4.3497,4.3497,4.3497,4.3497,4.3479,4.3818,4.4175,4.458,4.4919,4.5096,4.5096,4.3789,4.3104,4.3085,4.1354,4.0489,4.0489,4.0489,4.0046,3.9258,3.8392,3.7526,3.6661,3.5872,3.5526,3.5584,3.6392,3.6699,3.6892,3.8623,3.9277,3.9277,3.9296,3.9815,4.0373,3.9565,3.9835,4.0642,4.1527,4.2412,4.3104,4.3104,4.3104,4.3124,4.3104,4.3124,4.2948,4.221,4.2722,4.3432,4.3567,4.3654,4.3945,4.4824,4.5,4.5,4.5,4.5703,4.5707,4.3894,4.4282,4.4434,4.3376,4.3972,4.4165,4.322,4.3522,4.3365,4.2227,4.1023,4.0232,3.9932,3.9918,3.9652,3.912,3.7404,3.6392,3.6392,3.5854,3.5577,3.5577,3.6139,3.6139,3.5622,3.5577,3.5253,3.4559,3.3851,3.3144,3.2426,3.1092,3.0505,3.0454,2.9872,2.919,2.8562,2.8376,2.7564,2.6562,2.684,2.5837,2.4385,4.3497,4.3497,4.3497,4.3497,4.3497,4.3497,4.3497,4.3497,4.3497,4.3497,4.3497,4.3497,4.3497,4.3497,4.3497,4.3497,4.3497,4.3597,4.3836,4.3633,4.3667,4.4026,4.4728,4.4914,4.4556,4.359,4.2797,4.22,4.1046,4.0489,4.0489,3.9912,3.9527,3.9258,3.8392,3.7526,3.6719,3.7103,3.6911,3.6372,3.6603,3.6699,3.6757,3.7276,3.7853,3.8469,3.9084,3.9815,4.045,4.0219,4.0296,4.0642,4.1527,4.2797,4.3932,4.3932,4.4374,4.472,4.4105,4.4451,4.466,4.3195,4.3124,4.3438,4.3569,4.3654,4.3945,4.4824,4.5,4.5,4.5,4.5638,4.5783,4.4622,4.503,4.5393,4.5066,4.4959,4.4591,4.3693,4.4049,4.3882,4.2717,4.276,4.2612,4.1905,4.0937,3.9921,3.8813,3.7763,3.6791,3.5927,3.5238,3.4688,3.4202,3.5283,3.5783,3.5577,3.5098,3.4783,3.4576,3.3876,3.2971,3.1862,3.1467,3.076,2.9872,2.9672,2.9104,2.8361,2.831,2.7381,2.6148,2.6596,2.5876,2.4645,4.3497,4.3497,4.3497,4.3497,4.3497,4.3497,4.3497,4.3497,4.3497,4.3497,4.3497,4.3497,4.3497,4.3497,4.3497,4.3497,4.3497,4.3564,4.3708,4.377,4.3739,4.3522,4.4345,4.448,4.3835,4.3008,4.2335,4.1797,4.0931,4.0489,4.0489,3.9988,3.9758,3.9738,3.8892,3.8219,3.7738,3.7911,3.77,3.7219,3.7219,3.7219,3.7257,3.7603,3.8065,3.8623,3.9469,4.0085,4.0546,4.0893,4.145,4.2104,4.2624,4.372,4.4797,4.4797,4.5182,4.549,4.4951,4.5297,4.5541,4.4529,4.4356,4.4505,4.4637,4.4699,4.4883,4.541,4.5508,4.5502,4.5442,4.5803,4.5911,4.5297,4.5528,4.5741,4.5534,4.5279,4.4862,4.4174,4.4259,4.4093,4.3364,4.3093,4.2664,4.1916,4.0601,3.9608,3.9101,3.816,3.7051,3.5729,3.5251,3.4578,3.3582,3.4399,3.4816,3.48,3.4399,3.4087,3.3786,3.3391,3.2607,3.1564,3.1564,3.0951,2.9864,2.9864,2.9232,2.8175,2.8116,2.7183,2.5949,2.6453,2.583,2.4793,4.3497,4.3497,4.3497,4.3497,4.3497,4.3497,4.3497,4.3497,4.3497,4.3497,4.3497,4.3497,4.3497,4.3497,4.3497,4.3497,4.3424,4.3384,4.3363,4.3931,4.3885,4.3073,4.3626,4.3624,4.2874,4.2181,4.1758,4.1681,4.0893,4.0489,4.0489,4.0489,4.0489,4.0469,3.9719,3.9373,3.9238,3.8527,3.818,3.8123,3.8123,3.8123,3.82,3.8988,3.9296,3.9411,4.02,4.0489,4.0623,4.1508,4.2912,4.4297,4.422,4.4836,4.5566,4.5509,4.5528,4.5586,4.5605,4.5719,4.5822,4.5908,4.6015,4.6153,4.6273,4.6308,4.6308,4.6308,4.6287,4.6236,4.6117,4.6084,4.6007,4.5834,4.5759,4.5573,4.5159,4.5033,4.4896,4.458,4.4194,4.3955,4.3875,4.2357,4.1175,4.0665,3.946,3.9064,3.9772,3.8679,3.7299,3.5843,3.5745,3.5049,3.3618,3.3566,3.3607,3.3582,3.3531,3.3182,3.2586,3.2532,3.212,3.1482,3.1409,3.097,3.0269,3.0208,2.9304,2.7933,2.7786,2.6947,2.602,2.6333,2.5757,2.4747,4.3497,4.3497,4.3497,4.3497,4.3497,4.3497,4.3497,4.3497,4.3497,4.3497,4.3497,4.3497,4.3497,4.3497,4.3497,4.3497,4.291,4.2941,4.3789,4.2457,4.1912,4.2602,4.1792,4.1239,4.1066,4.1546,4.147,4.0777,4.0585,4.0489,4.0489,4.0489,4.0489,4.0489,4.0315,3.9892,3.9315,3.9758,3.9585,3.9008,3.9008,3.9008,3.9027,3.9219,3.9296,3.9411,4.02,4.0489,4.0623,4.1508,4.2912,4.4182,4.3566,4.4393,4.547,4.4778,4.5066,4.5605,4.5738,4.5815,4.5909,4.6028,4.6152,4.625,4.6293,4.6308,4.6308,4.6308,4.6227,4.6134,4.61,4.5969,4.5853,4.5815,4.5496,4.5218,4.5096,4.4612,4.4204,4.4146,4.3836,4.3424,4.3032,4.1766,4.0961,4.0844,4.0199,3.9829,4.0048,3.9238,3.812,3.6599,3.6013,3.5007,3.3558,3.3499,3.3568,3.3582,3.3093,3.2749,3.2602,3.2007,3.164,3.1467,3.0837,3.045,3.0269,2.9566,2.8666,2.7748,2.7749,2.7141,2.6371,2.6501,2.5877,2.4646,4.3406,4.3185,4.3039,4.3424,4.3497,4.3497,4.3497,4.3497,4.3497,4.3497,4.3497,4.3497,4.3497,4.3149,4.2763,4.2396,4.2671,4.277,4.2501,4.2171,4.1863,4.1551,4.127,4.0931,4.0508,4.095,4.095,4.0489,4.0489,4.0489,4.0489,4.0489,4.0489,4.0489,4.0489,4.0258,3.9892,4.0315,4.0258,3.9873,3.9873,3.9873,3.9873,3.9873,3.9912,4.0023,4.0446,4.1155,4.2017,4.2813,4.3968,4.4932,4.4451,4.4893,4.5509,4.5047,4.5278,4.5719,4.5776,4.5911,4.6007,4.6084,4.6203,4.6298,4.6305,4.6308,4.6284,4.6208,4.6145,4.6065,4.5969,4.5873,4.5741,4.5496,4.526,4.4966,4.4638,4.4243,4.3924,4.3772,4.3597,4.316,4.2342,4.1446,4.078,4.0546,4.0237,3.9952,3.9542,3.9139,3.8146,3.6279,3.5875,3.4984,3.3499,3.3499,3.3531,3.3531,3.3223,3.284,3.2536,3.2163,3.1575,3.0896,3.0464,2.9827,2.9002,2.8556,2.7855,2.7095,2.7095,2.6837,2.6452,2.5955,2.4838,2.3341,4.313,4.2763,4.2543,4.3351,4.3497,4.3497,4.3497,4.3497,4.3497,4.3497,4.3497,4.3442,4.3296,4.269,4.1992,4.1185,4.2323,4.2514,4.1111,4.2046,4.2101,4.0781,4.1277,4.1239,4.0508,4.0489,4.0489,4.0489,4.0489,4.0489,4.0489,4.0489,4.0489,4.0489,4.0489,4.0489,4.0489,4.0489,4.0489,4.0489,4.0508,4.0543,4.0543,4.0562,4.062,4.0716,4.0714,4.1856,4.3487,4.4114,4.4977,4.5796,4.5699,4.5643,4.5643,4.5643,4.5738,4.5815,4.5853,4.5969,4.6103,4.6123,4.6196,4.6267,4.6267,4.6267,4.622,4.609,4.6059,4.6007,4.5834,4.5741,4.5534,4.5159,4.4988,4.4688,4.4087,4.3955,4.3804,4.3548,4.3321,4.281,4.175,4.1087,4.0577,4.0121,4.007,3.9731,3.8962,3.8908,3.7954,3.5838,3.5763,3.517,3.3844,3.3844,3.3844,3.3844,3.3844,3.344,3.2677,3.2422,3.1632,3.0413,3.0054,2.9066,2.767,2.7537,2.7095,2.6533,2.6533,2.6383,2.6094,2.4921,2.3441,2.1889,4.2304,4.2378,4.2543,4.3351,4.3497,4.3497,4.3497,4.3497,4.3497,4.3497,4.3497,4.3222,4.2543,4.2378,4.1992,4.1185,4.1313,4.157,4.1908,4.0788,4.0566,4.1588,4.1008,4.0623,4.0489,4.0489,4.0489,4.0489,4.0489,4.0489,4.0489,4.0489,4.0489,4.0489,4.0489,4.0489,4.0489,4.0489,4.0489,4.0508,4.0639,4.0677,4.0677,4.0735,4.0773,4.08,4.0789,4.1915,4.3421,4.3519,4.4596,4.5873,4.5873,4.5853,4.5853,4.5853,4.5873,4.5911,4.6026,4.6084,4.6123,4.6238,4.6208,4.6128,4.6128,4.6128,4.609,4.5958,4.5891,4.5834,4.5815,4.5477,4.5159,4.5096,4.4542,4.4117,4.3998,4.3758,4.3548,4.3532,4.2639,4.175,4.1087,4.0546,4.0154,4.0138,4.007,3.9731,3.8962,3.8908,3.8165,3.6537,3.646,3.6044,3.5235,3.5235,3.5235,3.5235,3.5235,3.4577,3.3335,3.2009,3.1242,3.0941,2.8954,2.792,2.767,2.6973,2.6589,2.6533,2.6533,2.5955,2.5004,2.3073,2.2253,2.1824,4.2047,4.1937,4.1882,4.269,4.3185,4.3332,4.2892,4.3204,4.3332,4.2892,4.2818,4.2525,4.1735,4.2029,4.1809,4.0543,4.1414,4.1667,4.0764,4.0628,4.071,4.105,4.07,4.0489,4.0489,4.0046,3.9815,3.9815,4.0277,4.0258,3.9835,4.0277,4.0258,3.9815,3.9815,4.0065,4.0469,4.0062,4.0177,4.062,4.0716,4.077,4.0746,4.0784,4.0862,4.1036,4.2065,4.3232,4.4367,4.4777,4.5401,4.5994,4.5922,4.5912,4.5912,4.5912,4.5935,4.6026,4.6084,4.6164,4.6203,4.6191,4.6144,4.6065,4.5969,4.593,4.5924,4.5858,4.5661,4.5512,4.5418,4.509,4.4757,4.4535,4.4204,4.3924,4.3758,4.3597,4.341,4.3105,4.2003,4.1161,4.0949,4.04,4.007,4.007,4.007,3.9558,3.8358,3.8318,3.7557,3.6054,3.6006,3.5831,3.5504,3.5504,3.5504,3.5504,3.5504,3.4996,3.4038,3.28,3.1782,3.0895,2.9322,2.8186,2.7447,2.7113,2.6741,2.6452,2.5873,2.4696,2.322,2.2328,2.1669,2.1125]},{"header":{"parameterUnit":"m.s-1","parameterCategory":1,"la1":30.6,"la2":28.766,"lo1":-90.7593,"lo2":-88.6598,"dy":0.0162,"dx":0.0183,"nx":116,"ny":114,"refTime":"2023-05-20T12:00:00:Z","depth":0,"parameterNumber":3,"parameterNumberName":"V-component_of_WINDS"},"data":[0.0,0.0,0.0,0.0,0.0,0.0,0.0,0.0,0.0,0.0,0.0,0.0,0.0,0.0,0.0,0.0,0.0,0.0,0.0,0.0,0.0,0.0,0.0,0.0,0.0,0.0,0.0,0.0,0.0,0.0,0.0,0.0,0.0,0.0,0.0,0.0,0.0,0.0,0.0,0.0,0.0,0.0,0.0,0.0,0.0,0.0,0.0,0.0,0.0,0.0,0.0,0.0,0.0,0.0,0.0,0.0,0.0,0.0,0.0,0.0,0.0,0.0,0.0,0.0,0.0,0.0,0.0,0.0,0.0,0.0,0.0,0.0,0.0,0.0,0.0,0.0,0.0,0.0,0.0,0.0,0.0,0.0,0.0,0.0,0.0,0.0,0.0,0.0,0.0,0.0,0.0,0.0,0.0,0.0,0.0,0.0,0.0,0.0,0.0,0.0,0.0,0.0,0.0,0.0,0.0,0.0,0.0,0.0,0.0,0.0,0.0,0.0,0.0,0.0,0.0,0.0,0.0,0.0,0.0,0.0,0.0,0.0,0.0,0.0,0.0,0.0,0.0,0.0,0.0,0.0,0.0,0.0,0.0,0.0,0.0,0.0,0.0,0.0,0.0,0.0,0.0,0.0,0.0,0.0,0.0,0.0,0.0,0.0,0.0,0.0,0.0,0.0,0.0,0.0,0.0,0.0,0.0,0.0,0.0,0.0,0.0,0.0,0.0,0.0,0.0,0.0,0.0,0.0,0.0,0.0,0.0,0.0,0.0,0.0,0.0,0.0,0.0,0.0,0.0,0.0,0.0,0.0,0.0,0.0,0.0,0.0,0.0,0.0,0.0,0.0,0.0,0.0,0.0,0.0,0.0,0.0,0.0,0.0,0.0,0.0,0.0,0.0,0.0,0.0,0.0,0.0,0.0,0.0,0.0,0.0,0.0,0.0,0.0,0.0,0.0,0.0,0.0,0.0,0.0,0.0,0.0,0.0,0.0,0.0,0.0,0.0,0.0,0.0,0.0,0.0,0.0,0.0,0.0,0.0,0.0,0.0,0.0,0.0,0.0,0.0,0.0,0.0,0.0,0.0,0.0,0.0,0.0,0.0,0.0,0.0,0.0,0.0,0.0,0.0,0.0,0.0,0.0,0.0,0.0,0.0,0.0,0.0,0.0,0.0,0.0,0.0,0.0,0.0,0.0,0.0,0.0,0.0,0.0,0.0,0.0,0.0,0.0,0.0,0.0,0.0,0.0,0.0,0.0,0.0,0.0,0.0,0.0,0.0,0.0,0.0,0.0,0.0,0.0,0.0,0.0,0.0,0.0,0.0,0.0,0.0,0.0,0.0,0.0,0.0,0.0,0.0,0.0,0.0,0.0,0.0,0.0,0.0,0.0,0.0,0.0,0.0,0.0,0.0,0.0,0.0,0.0,0.0,0.0,0.0,0.0,0.0,0.0,0.0,0.0,0.0,0.0,0.0,0.0,0.0,0.0,0.0,0.0,0.0,0.0,0.0,0.0,0.0,0.0,0.0,0.0,0.0,0.0,0.0,0.0,0.0,0.0,0.0,0.0,0.0,0.0,0.0,0.0,0.0,0.0,0.0,0.0,0.0,0.0,0.0,0.0,0.0,0.0,0.0,0.0,0.0,0.0,0.0,0.0,0.0,0.0,0.0,0.0,0.0,0.0,0.0,0.0,0.0,0.0,0.0,0.0,0.0,0.0,0.0,0.0,0.0,0.0,0.0,0.0,0.0,0.0,0.0,0.0,0.0,0.0,0.0,0.0,0.0,0.0,0.0,0.0,0.0,0.0,0.0,0.0,0.0,0.0,0.0,0.0,0.0,0.0,0.0,0.0,0.0,0.0,0.0,0.0,0.0,0.0,0.0,0.0,0.0,0.0,0.0,0.0,0.0,0.0,0.0,0.0,0.0,0.0,0.0,0.0,0.0,0.0,0.0,0.0,0.0,0.0,0.0,0.0,0.0,0.0,0.0,0.0,0.0,0.0,0.0,0.0,0.0,0.0,0.0,0.0,0.0,0.0,0.0,0.0,0.0,0.0,0.0,0.0,0.0,0.0,0.0,0.0,0.0,0.0,0.0,0.0,0.0,0.0,0.0,0.0,0.0,0.0,0.0,0.0,0.0,0.0,0.0,0.0,0.0,0.0,0.0,0.0,0.0,0.0,0.0,0.0,0.0,0.0,0.0,0.0,0.0,0.0,0.0,0.0,0.0,0.0,0.0,0.0,0.0,0.0,0.0,0.0,0.0,0.0,0.0,0.0,0.0,0.0,0.0,0.0,0.0,0.0,0.0,0.0,0.0,0.0,0.0,0.0,0.0,0.0,0.0,0.0,0.0,0.0,0.0,0.0,0.0,0.0,0.0,0.0,0.0,0.0,0.0,0.0,0.0,0.0,0.0,0.0,0.0,0.0,0.0,0.0,0.0,0.0,0.0,0.0,0.0,0.0,0.0,0.0,0.0,0.0,0.0,0.0,0.0,0.0,0.0,0.0,0.0,0.0,0.0,0.0,0.0,0.0,0.0,0.0,0.0,0.0,0.0,0.0,0.0,0.0,0.0,0.0,0.0,0.0,0.0,0.0,0.0,0.0,0.0,0.0,0.0,0.0,0.0,0.0,0.0,0.0,0.0,0.0,0.0,0.0,0.0,0.0,0.0,0.0,0.0,0.0,0.0,0.0,0.0,0.0,0.0,0.0,0.0,0.0,0.0,0.0,0.0,0.0,0.0,0.0,0.0,0.0,0.0,0.0,0.0,0.0,0.0,0.0,0.0,0.0,0.0,0.0,0.0,0.0,0.0,0.0,0.0,0.0,0.0,0.0,0.0,0.0,0.0,0.0,0.0,0.0,0.0,0.0,0.0,0.0,0.0,0.0,0.0,0.0,0.0,0.0,0.0,0.0,0.0,0.0,0.0,0.0,0.0,0.0,0.0,0.0,0.0,0.0,0.0,0.0,0.0,0.0,0.0,0.0,0.0,0.0,0.0,0.0,0.0,0.0,0.0,0.0,0.0,0.0,0.0,0.0,0.0,0.0,0.0,0.0,0.0,0.0,0.0,0.0,0.0,0.0,0.0,0.0,0.0,0.0,0.0,0.0,0.0,0.0,0.0,0.0,0.0,0.0,0.0,0.0,0.0,0.0,0.0,0.0,0.0,0.0,0.0,0.0,0.0,0.0,0.0,0.0,0.0,0.0,0.0,0.0,0.0,0.0,0.0,0.0,0.0,0.0,0.0,0.0,0.0,0.0,0.0,0.0,0.0,0.0,0.0,0.0,0.0,0.0,0.0,0.0,0.0,0.0,0.0,0.0,0.0,0.0,0.0,0.0,0.0,0.0,0.0,0.0,0.0,0.0,0.0,0.0,0.0,0.0,0.0,0.0,0.0,0.0,0.0,0.0,0.0,0.0,0.0,0.0,0.0,0.0,0.0,0.0,0.0,0.0,0.0,0.0,0.0,0.0,0.0,0.0,0.0,0.0,0.0,0.0,0.0,0.0,0.0,0.0,0.0,0.0,0.0,0.0,0.0,0.0,0.0,0.0,0.0,0.0,0.0,0.0,0.0,0.0,0.0,0.0,0.0,0.0,0.0,0.0,0.0,0.0,0.0,0.0,0.0,0.0,0.0,0.0,0.0,0.0,0.0,0.0,0.0,0.0,0.0,0.0,0.0,0.0,0.0,0.0,0.0,0.0,0.0,0.0,0.0,0.0,0.0,0.0,0.0,0.0,0.0,0.0,0.0,0.0,0.0,0.0,0.0,0.0,0.0,0.0,0.0,0.0,0.0,0.0,0.0,0.0,0.0,0.0,0.0,0.0,0.0,0.0,0.0,0.0,0.0,0.0,0.0,0.0,0.0,0.0,0.0,0.0,0.0,0.0,0.0,0.0,0.0,0.0,0.0,0.0,0.0,0.0,0.0,0.0,0.0,0.0,0.0,0.0,0.0,0.0,0.0,0.0,0.0,0.0,0.0,0.0,0.0,0.0,0.0,0.0,0.0,0.0,0.0,0.0,0.0,0.0,0.0,0.0,0.0,0.0,0.0,0.0,0.0,0.0,0.0,0.0,0.0,0.0,0.0,0.0,0.0,0.0,0.0,0.0,0.0,0.0,0.0,0.0,0.0,0.0,0.0,0.0,0.0,0.0,0.0,0.0,0.0,0.0,0.0,0.0,0.0,0.0,0.0,0.0,0.0,0.0,0.0,0.0,0.0,0.0,0.0,0.0,0.0,0.0,0.0,0.0,0.0,0.0,0.0,0.0,0.0,0.0,0.0,0.0,0.0,0.0,0.0,0.0,0.0,0.0,0.0,0.0,0.0,0.0,0.0,0.0,0.0,0.0,0.0,0.0,0.0,0.0,0.0,0.0,0.0,0.0,0.0,0.0,0.0,0.0,0.0,0.0,0.0,0.0,0.0,0.0,0.0,0.0,0.0,0.0,0.0,0.0,0.0,0.0,0.0,0.0,0.0,0.0,0.0,0.0,0.0,0.0,0.0,0.0,0.0,0.0,0.0,0.0,0.0,0.0,0.0,0.0,0.0,0.0,0.0,0.0,0.0,0.0,0.0,0.0,0.0,0.0,0.0,0.0,0.0,0.0,0.0,0.0,0.0,0.0,0.0,0.0,0.0,0.0,0.0,0.0,0.0,0.0,0.0,0.0,0.0,0.0,0.0,0.0,0.0,0.0,0.0,0.0,0.0,0.0,0.0,0.0,0.0,0.0,0.0,0.0,0.0,0.0,0.0,0.0,0.0,0.0,0.0,0.0,0.0,0.0,0.0,0.0,0.0,0.0,0.0,0.0,0.0,0.0,0.0,0.0,0.0,0.0,0.0,0.0,0.0,0.0,0.0,0.0,0.0,0.0,0.0,0.0,0.0,0.0,0.0,0.0,0.0,0.0,0.0,0.0,0.0,0.0,0.0,0.0,0.0,0.0,0.0,0.0,0.0,0.0,0.0,0.0,0.0,0.0,0.0,0.0,0.0,0.0,0.0,0.0,0.0,0.0,0.0,0.0,0.0,0.0,0.0,0.0,0.0,0.0,0.0,0.0,0.0,0.0,0.0,0.0,0.0,0.0,0.0,0.0,0.0,0.0,0.0,0.0,0.0,0.0,0.0,0.0,0.0,0.0,0.0,0.0,0.0,0.0,0.0,0.0,0.0,0.0,0.0,0.0,0.0,0.0,0.0,0.0,0.0,0.0,0.0,0.0,0.0,0.0,0.0,0.0,0.0,0.0,0.0,0.0,0.0,0.0,0.0,0.0,0.0,0.0,0.0,0.0,0.0,0.0,0.0,0.0,0.0,0.0,0.0,0.0,0.0,0.0,0.0,0.0,0.0,0.0,0.0,0.0,0.0,0.0,0.0,0.0,0.0,0.0,0.0,0.0,0.0,0.0,0.0,0.0,0.0,0.0,0.0,0.0,0.0,0.0,0.0,0.0,0.0,0.0,0.0,0.0,0.0,0.0,0.0,0.0,0.0,0.0,0.0,0.0,0.0,0.0,0.0,0.0,0.0,0.0,0.0,0.0,0.0,0.0,0.0,0.0,0.0,0.0,0.0,0.0,0.0,0.0,0.0,0.0,0.0,0.0,0.0,0.0,0.0,0.0,0.0,0.0,0.0,0.0,0.0,0.0,0.0,0.0,0.0,0.0,0.0,0.0,0.0,0.0,0.0,0.0,0.0,0.0,0.0,0.0,0.0,0.0,0.0,0.0,0.0,0.0,0.0,0.0,0.0,0.0,0.0,0.0,0.0,0.0,0.0,0.0,0.0,0.0,0.0,0.0,0.0,0.0,0.0,0.0,0.0,0.0,0.0,0.0,0.0,0.0,0.0,0.0,0.0,0.0,0.0,0.0,0.0,0.0,0.0,0.0,0.0,0.0,0.0,0.0,0.0,0.0,0.0,0.0,0.0,0.0,0.0,0.0,0.0,0.0,0.0,0.0,0.0,0.0,0.0,0.0,0.0,0.0,0.0,0.0,0.0,0.0,0.0,0.0,0.0,0.0,0.0,0.0,0.0,0.0,0.0,0.0,0.0,0.0,0.0,0.0,0.0,0.0,0.0,0.0,0.0,0.0,0.0,0.0,0.0,0.0,0.0,0.0,0.0,0.7215,0.6956,0.0,0.0,0.0,0.0,0.0,0.0,0.0,0.0,0.0,0.0,0.0,0.0,0.0,0.0,0.0,0.0,0.0,0.0,0.0,0.0,0.0,0.0,0.0,0.0,0.0,0.0,0.0,0.0,0.0,0.0,0.0,0.0,0.0,0.0,0.0,0.0,0.0,0.0,0.0,0.0,0.0,0.0,0.0,0.0,0.0,0.0,0.0,0.0,0.0,0.0,0.0,0.0,0.0,0.0,0.0,0.0,0.0,0.0,0.0,0.0,0.0,0.0,0.0,0.0,0.0,0.0,0.0,0.0,0.0,0.0,0.0,0.0,0.0,0.0,0.0,0.0,0.0,0.0,0.0,0.0,0.0,0.0,0.0,0.0,0.0,0.0,0.0,0.0,0.0,0.0,0.0,0.0,0.0,0.0,0.0,0.0,0.0,0.0,0.0,0.0,0.0,0.0,0.0,0.0,0.0,0.0,0.0,0.0,0.0,0.0,0.0,0.0,0.0,0.0,0.7955,0.7061,0.0,0.0,0.0,0.0,0.0,0.0,0.0,0.0,0.0,0.0,0.0,0.0,0.0,0.0,0.0,0.0,0.0,0.0,0.0,0.0,0.0,0.0,0.0,0.0,0.0,0.0,0.0,0.0,0.0,0.0,0.0,0.0,0.0,0.0,0.0,0.0,0.0,0.0,0.0,0.0,0.0,0.0,0.0,0.0,0.0,0.0,0.0,0.0,0.0,0.0,0.0,0.0,0.0,0.0,0.0,0.0,0.0,0.0,0.0,0.0,0.0,0.0,0.0,0.0,0.0,0.0,0.0,0.0,0.0,0.0,0.0,0.0,0.0,0.0,0.0,0.0,0.0,0.0,0.0,0.0,0.0,0.0,0.0,0.0,0.0,0.0,0.0,0.0,0.0,0.0,0.0,0.0,0.0,0.0,0.0,0.0,0.0,0.0,0.0,0.0,0.0,0.0,0.0,0.0,0.0,0.0,0.0,0.0,1.2661,1.2297,1.2541,1.1264,1.1292,1.2203,0.9554,0.8068,0.7793,0.9173,0.0,0.0,0.0,0.0,0.0,0.0,0.0,0.0,0.0,0.0,0.0,0.0,0.0,0.0,0.0,0.0,0.0,0.0,0.0,0.0,0.0,0.0,1.1943,1.3086,1.3045,1.3031,0.0,0.0,0.0,0.0,0.0,0.0,0.0,0.0,0.0,0.0,0.0,0.0,1.8141,1.9942,2.1079,2.168,2.0967,0.0,0.0,0.0,0.0,0.0,0.0,0.0,0.0,0.0,0.0,0.0,0.0,0.0,0.0,0.0,0.0,0.0,0.0,0.0,0.0,0.0,0.0,0.0,0.0,0.0,0.0,0.0,0.0,0.0,0.0,0.0,0.0,0.0,0.0,0.0,0.0,0.0,0.0,0.0,0.0,0.0,0.0,0.0,1.3227,1.3267,0.0,0.0,0.0,0.0,0.0,0.0,0.0,0.0,0.0,0.0,0.0,0.0,0.0,1.1563,1.1745,1.2464,1.2809,1.287,1.318,1.3291,1.3137,1.2934,1.3017,1.3262,1.2588,0.0,1.077,1.1766,0.0,0.0,0.0,0.0,0.0,0.0,0.0,0.0,0.0,0.0,0.0,0.0,0.0,0.0,0.0,0.0,0.0,0.0,0.0,0.0,0.0,1.2373,1.3031,1.4269,1.4992,1.4912,0.0,0.0,0.0,0.0,0.0,0.0,0.0,0.0,0.0,0.0,1.7308,1.8979,2.0036,2.1298,2.2178,2.2578,2.2187,2.1963,2.1865,2.1475,0.0,0.0,0.0,0.0,0.0,0.0,0.0,0.0,0.0,0.0,0.0,0.0,0.0,0.0,0.0,0.0,0.0,0.0,0.0,0.0,0.0,0.0,0.0,0.0,0.0,0.0,0.0,0.0,0.0,0.0,0.0,0.0,0.0,0.0,0.0,0.0,0.0,0.0,0.0,1.3921,1.4255,1.3761,1.4476,1.4843,0.0,0.0,0.0,0.0,0.0,0.0,0.0,0.0,0.0,1.2898,1.3155,1.3505,1.3739,1.4826,1.5482,1.567,1.5907,1.6154,1.619,1.5308,1.5474,1.6241,1.5235,1.4821,1.4692,1.3023,1.2496,1.2632,0.0,0.0,0.0,0.0,1.1849,1.1949,0.0,0.0,0.0,0.0,0.0,0.0,0.0,0.0,0.0,0.0,0.0,0.0,1.2766,1.3469,1.4361,1.5825,1.6553,1.6374,1.5061,0.0,0.0,0.0,0.0,0.0,0.0,0.0,0.0,1.7805,1.9492,2.0926,2.207,2.293,2.3506,2.3809,2.3809,2.3271,2.2353,2.2021,2.1504,0.0,0.0,0.0,0.0,0.0,0.0,0.0,0.0,0.0,0.0,0.0,0.0,0.0,0.0,0.0,0.0,0.0,0.0,0.0,0.0,0.0,0.0,0.0,0.0,0.0,0.0,0.0,0.0,0.0,0.0,0.0,0.0,0.0,0.0,0.0,0.0,0.0,0.0,1.4389,1.4877,1.4068,1.495,1.5418,0.0,0.0,0.0,0.0,0.0,0.0,1.5378,1.41,1.3842,1.4967,1.5444,1.576,1.5994,1.7279,1.8016,1.8384,1.8457,1.8571,1.8711,1.7547,1.766,1.8711,1.7472,1.7313,1.7716,1.4637,1.3512,1.3845,1.3607,1.4053,1.4754,1.376,1.3634,1.3701,0.0,0.0,0.0,0.0,0.0,0.0,0.0,0.0,0.0,0.0,0.0,1.1613,1.2928,1.4006,1.5539,1.777,1.7162,1.681,1.7224,1.5359,0.0,0.0,0.0,0.0,0.0,0.0,0.0,2.0985,2.151,2.259,2.4277,2.5166,2.5586,2.5605,2.5605,2.4893,2.3613,2.2402,2.1865,2.1748,0.0,0.0,0.0,0.0,0.0,0.0,0.0,0.0,0.0,0.0,0.0,0.0,0.0,0.0,0.0,0.0,0.0,0.0,0.0,0.0,0.0,0.0,0.0,0.0,0.0,0.0,0.0,0.0,0.0,0.0,0.0,0.0,0.0,0.0,0.0,0.0,0.0,0.0,0.0,1.3741,1.5184,0.0,0.0,0.0,0.0,1.5738,1.5903,1.6293,1.66,1.7052,1.7244,1.7088,1.8081,1.8552,1.8293,1.9239,1.9539,1.9305,1.9579,1.9573,1.9325,1.9319,1.9319,1.9305,1.8904,1.8771,1.8738,1.7158,1.6374,1.6029,1.5478,1.5425,1.5732,1.5358,1.5438,1.5611,0.0,0.0,0.0,0.0,0.0,0.0,0.0,0.0,0.0,1.1288,1.2163,1.3427,1.5274,1.6837,1.83,1.9602,1.9621,1.9136,1.8266,1.6269,0.0,0.0,0.0,0.0,0.0,0.0,1.9888,2.206,2.3603,2.4814,2.5703,2.6289,2.6562,2.6562,2.6562,2.6152,2.5342,2.3486,2.2383,2.1807,2.0918,2.0469,0.0,0.0,0.0,0.0,0.0,0.0,0.0,0.0,0.0,0.0,0.0,0.0,0.0,0.0,0.0,0.0,0.0,0.0,0.0,0.0,0.0,0.0,0.0,0.0,0.0,0.0,0.0,0.0,0.0,0.0,0.0,0.0,0.0,0.0,0.0,0.0,0.0,1.5879,1.6794,0.0,1.6547,1.6433,1.6473,1.6667,1.6947,1.7328,1.7829,1.823,1.8571,1.8844,1.9265,1.9533,1.9613,1.992,1.9933,1.9646,1.9746,1.9646,1.9366,1.9366,1.9366,1.9359,1.9259,1.9205,1.9152,1.843,1.7622,1.682,1.6607,1.6473,1.64,1.6493,1.6707,1.6901,0.0,0.0,0.0,0.0,0.0,0.0,0.0,0.0,0.0,1.1695,1.3061,1.4726,1.6981,1.8788,2.0229,2.1387,2.1045,2.0361,1.9355,1.6788,0.0,0.0,0.0,0.0,0.0,1.9771,2.1608,2.3369,2.4961,2.6103,2.6826,2.71,2.7305,2.7441,2.7295,2.708,2.6699,2.4814,2.3359,2.2236,2.1367,2.1016,2.0889,0.0,0.0,0.0,0.0,0.0,0.0,0.0,0.0,0.0,0.0,0.0,0.0,0.0,0.0,0.0,0.0,0.0,0.0,0.0,0.0,0.0,0.0,0.0,0.0,0.0,0.0,0.0,0.0,0.0,0.0,0.0,0.0,0.0,0.0,0.0,1.7014,1.7408,1.807,1.833,1.7929,1.7622,1.7575,1.7876,1.8163,1.8551,1.9052,1.9352,1.9646,1.994,2.014,2.0287,2.0381,2.0481,2.0381,2.0094,2.0094,1.994,1.9659,1.9559,1.9512,1.9506,1.9412,1.9366,1.9352,1.9152,1.8551,1.7742,1.7635,1.7482,1.7335,1.7528,1.7722,1.7849,0.0,0.0,0.0,0.0,0.0,0.0,0.0,0.0,1.0519,1.1665,1.3348,1.5376,1.7852,1.964,2.1328,2.3018,2.1172,2.0088,2.0518,1.7051,0.0,0.0,0.0,0.0,1.932,2.147,2.3408,2.5107,2.5576,2.6445,2.7685,2.7685,2.791,2.8271,2.7861,2.7685,2.7598,2.6338,2.4824,2.3203,2.2295,2.1924,2.1826,0.0,0.0,0.0,0.0,0.0,0.0,0.0,0.0,0.0,0.0,0.0,0.0,0.0,0.0,0.0,0.0,0.0,0.0,0.0,0.0,0.0,0.0,0.0,0.0,0.0,0.0,0.0,0.0,0.0,0.0,0.0,0.0,0.0,1.5845,1.7148,1.8083,1.811,1.8878,1.9185,1.8617,1.8811,1.9098,1.9386,1.9679,1.996,2.0241,2.0535,2.0555,2.0267,2.0815,2.0975,2.0695,2.0969,2.0962,2.0675,2.0675,2.0521,2.0221,1.994,1.9813,1.98,1.9506,1.9379,1.9379,1.9372,1.9199,1.8911,1.8631,1.851,1.8504,1.8517,1.851,1.8464,0.0,0.0,0.0,0.0,0.0,0.0,0.0,1.0033,1.0756,1.2586,1.4765,1.7031,1.9192,2.1186,2.2627,2.3105,2.1162,1.9961,2.0088,1.7076,0.0,0.0,0.0,0.0,2.1508,2.3057,2.459,2.6025,2.6768,2.7471,2.8125,2.8125,2.8184,2.8291,2.8174,2.8125,2.8076,2.7412,2.668,2.5771,2.3662,2.2812,2.2715,0.0,0.0,0.0,0.0,0.0,0.0,0.0,0.0,0.0,0.0,0.0,0.0,0.0,0.0,0.0,0.0,0.0,0.0,0.0,0.0,0.0,0.0,0.0,0.0,0.0,0.0,0.0,0.0,0.0,0.0,0.0,0.0,1.6767,1.7061,1.8016,1.8918,1.9553,2.004,2.0254,2.0087,2.0147,2.0227,2.0307,2.0588,2.0782,2.0862,2.0949,2.0955,2.0875,2.1022,2.1069,2.0989,2.1069,2.0962,2.0675,2.0675,2.0521,2.0227,2.0147,2.0114,2.01,1.9806,1.9679,1.9659,1.9452,1.9319,1.9239,1.9158,1.8991,1.8831,1.9045,1.8991,1.8764,0.0,0.0,0.0,0.0,0.0,0.0,0.0,1.0107,1.1027,1.2736,1.5575,1.8004,1.9713,2.1846,2.3066,2.2891,2.123,2.0039,1.9678,1.8046,0.0,0.0,0.0,2.1066,2.3271,2.458,2.5879,2.7187,2.7685,2.8242,2.8828,2.8828,2.8828,2.8828,2.8828,2.8828,2.8799,2.8369,2.8144,2.792,2.6064,2.499,2.4404,2.334,2.3174,2.3212,2.1336,2.1062,2.1069,1.8177,0.0,0.0,0.0,0.0,0.0,0.0,0.0,0.0,0.0,0.0,0.0,0.0,0.0,0.0,0.0,0.0,0.0,0.0,0.0,0.0,0.0,0.0,0.0,0.0,1.7315,1.8123,1.8784,1.9219,1.98,2.0681,2.0828,2.0855,2.0855,2.0855,2.0855,2.0855,2.1015,2.1109,2.1109,2.1109,2.1109,2.1109,2.1109,2.1109,2.1109,2.1109,2.1029,2.0855,2.0855,2.0768,2.0595,2.0474,2.0421,2.0394,1.998,1.98,1.978,1.9486,1.9366,1.9366,0.0,0.0,0.0,0.0,1.9259,1.9052,0.0,0.0,0.0,0.0,0.0,0.0,0.0,1.0386,1.1321,1.2539,1.5765,1.8443,1.9652,2.1611,2.2734,2.2461,2.1162,2.0049,1.9336,0.0,0.0,1.8638,2.1508,2.3643,2.4551,2.5908,2.7158,2.8291,2.8389,2.8828,2.957,2.957,2.957,2.957,2.957,2.957,2.9541,2.916,2.9219,2.9502,2.874,2.7695,2.6465,2.5244,2.5244,2.5518,2.3411,2.2456,2.1898,2.0043,0.0,0.0,0.0,0.0,0.0,0.0,0.0,0.0,0.0,0.0,0.0,0.0,0.0,0.0,0.0,0.0,0.0,0.0,0.0,0.0,0.0,0.0,0.0,0.0,1.8504,1.9492,2.0702,2.0615,2.0708,2.1463,2.1323,2.1149,2.1109,2.1109,2.1109,2.1109,2.1142,2.1149,2.1109,2.1142,0.0,0.0,0.0,2.1109,2.1109,2.1109,2.1109,2.1109,2.1109,2.1109,2.1102,2.0842,2.0728,2.0695,2.014,1.99,1.9873,1.9546,1.9399,1.9366,1.9366,1.9366,1.9366,1.9366,1.9366,1.9285,0.0,0.0,0.0,0.0,0.0,0.0,0.0,1.0186,1.1406,1.2879,1.5695,1.784,1.8724,2.0185,2.1318,2.1953,2.0166,1.9092,0.0,0.0,1.9623,2.154,2.294,2.4228,2.5459,2.709,2.8047,2.8291,2.8984,2.9404,2.957,2.957,2.957,2.957,2.957,2.957,2.956,2.9482,2.9492,2.956,2.9394,2.876,2.7861,2.7266,2.6924,2.6641,2.5401,2.5672,2.5882,2.1752,2.1516,2.2275,1.7421,0.0,0.0,0.0,0.0,0.0,0.0,0.0,0.0,0.0,0.0,0.0,0.0,0.0,0.0,0.0,0.0,0.0,0.0,0.0,0.0,1.8784,1.9559,2.0468,2.1884,2.183,2.1623,2.1557,2.1503,2.137,2.1129,2.1109,2.1109,2.1109,2.1329,2.1363,2.1122,2.1336,2.1356,2.1116,2.1109,2.1109,2.1109,2.1109,2.1109,2.1109,2.1109,0.0,2.1109,2.1049,2.1029,2.1002,2.0655,2.0508,2.0468,1.9933,1.9579,1.9366,1.9366,1.9366,1.9366,1.9366,1.9366,1.9285,0.0,0.0,0.0,0.0,0.0,0.0,0.0,1.0639,1.1833,1.2789,1.555,1.752,1.794,1.916,1.9932,1.9941,1.8955,1.8506,0.0,1.998,2.1348,2.3076,2.46,2.5908,2.6992,2.8057,2.8818,2.9248,2.9678,3.0,3.0234,3.0234,3.0234,3.0234,3.0234,3.0234,3.0234,3.0234,3.0234,3.0234,3.0234,2.9971,2.9521,2.8867,2.8486,2.8213,2.7559,2.7607,2.7448,2.4061,2.3684,2.3815,1.8958,1.7905,1.7946,0.0,0.0,0.0,0.0,0.0,0.0,0.0,0.0,0.0,0.0,0.0,0.0,0.0,0.0,1.6233,0.0,0.0,1.8644,1.9826,2.0514,2.1249,2.2271,2.2291,2.2151,2.2004,2.1857,2.171,2.1563,2.1416,2.139,2.1537,2.1416,2.1329,2.1329,2.1329,2.1263,2.1116,2.1109,2.1109,2.1109,2.1109,2.1109,2.1109,2.1109,2.1109,2.1109,2.1109,2.1109,2.1096,2.0802,2.0675,2.0641,2.0201,1.9846,1.9586,1.9586,1.9492,1.9366,1.9366,1.9366,1.9305,0.0,0.0,0.0,0.0,0.0,0.0,0.0,0.0,1.1977,1.2539,1.5139,1.699,1.7129,1.8125,1.8516,1.7822,1.8144,0.0,0.0,2.1416,2.3184,2.4131,2.6162,2.7588,2.8271,2.8867,2.9502,3.0195,3.0293,3.0518,3.0889,3.0889,3.0937,3.1016,3.1016,3.1055,3.1133,3.1045,3.1016,3.1016,3.1016,3.0967,3.082,3.0185,2.9893,2.9746,2.9141,2.8486,2.7544,2.5691,2.4751,2.3644,2.0311,1.9268,1.8709,1.6075,1.5224,0.0,0.0,0.0,0.0,0.0,0.0,0.0,0.0,0.0,1.5939,1.6346,1.6854,1.7462,1.8243,1.9112,1.9973,2.0795,2.1423,2.1971,2.2438,2.2559,2.2572,2.2512,2.2245,2.2044,2.1991,2.177,2.1737,2.1964,2.1597,2.1423,2.1543,2.1376,2.1249,2.1196,2.1196,2.1196,2.1196,2.1196,2.1162,2.1109,2.1109,2.1109,2.1109,2.1109,2.1109,2.1096,2.0862,2.0728,2.0655,2.0354,2.006,1.9793,1.974,1.9573,1.9366,1.9366,1.9366,1.9325,0.0,0.0,0.0,0.0,0.0,0.0,0.0,0.0,0.0,1.2439,1.4212,1.5576,1.6211,1.6699,1.6982,1.6821,1.8603,0.0,2.0889,2.2637,2.4209,2.5459,2.7207,2.8193,2.8291,2.9453,3.0098,3.0195,3.0615,3.084,3.0889,3.0889,3.1094,3.1445,3.1445,3.166,3.2002,3.1611,3.1445,3.1445,3.1445,3.1221,3.0918,3.1201,3.1064,3.0586,2.9365,2.7733,2.6134,2.5176,2.3904,2.2403,2.0557,1.9693,1.8947,1.6794,0.0,1.4656,1.4823,1.491,1.5144,1.5892,1.5952,1.6286,0.0,0.0,1.7575,1.841,1.8838,1.9178,1.9539,2.0321,2.1116,2.1737,2.2331,2.2739,2.2806,2.3053,2.312,2.2846,2.2552,2.2271,2.2011,2.1957,2.1951,2.1984,2.2164,2.2058,2.1577,2.1764,2.177,2.151,2.1503,2.1503,2.1503,2.1503,2.137,2.1109,2.1109,2.1109,2.1109,2.1109,2.1109,2.1109,2.1076,2.0915,2.0655,2.0354,2.006,1.9773,1.9512,1.9399,1.9366,1.9366,1.9366,1.9325,0.0,0.0,0.0,0.0,0.0,0.0,0.0,0.0,0.0,0.0,1.3664,1.4932,1.498,1.554,1.5967,1.5967,1.793,0.0,2.041,2.3018,2.5117,2.6426,2.7881,2.8887,2.9385,2.9922,3.0332,3.0605,3.0801,3.0889,3.0898,3.1143,3.1348,3.1533,3.1787,3.2002,3.2158,3.1973,3.1894,3.1894,3.1894,3.1641,3.125,3.1182,3.0566,2.9527,2.8162,2.6948,0.0,0.0,2.2573,2.2493,1.9777,1.9168,1.907,1.6711,1.5545,0.0,1.5391,1.5718,1.6066,0.0,1.7081,1.7769,1.829,1.839,1.8564,1.9285,1.9806,2.0625,2.206,2.2143,2.2393,0.0,2.3364,2.2926,2.3106,2.2939,2.2686,2.2385,2.2245,2.2251,2.2472,2.2338,2.2305,2.2485,2.2291,2.2131,2.2064,2.2011,2.1931,2.181,2.1804,2.1804,2.1804,2.1804,2.1657,2.137,2.137,2.1276,2.1109,2.1109,2.1109,2.1109,2.1109,2.1042,2.0915,2.0795,2.0468,2.004,1.992,1.9659,1.9366,1.9366,1.9366,1.9352,0.0,0.0,0.0,0.0,0.0,0.0,0.0,0.0,0.0,0.0,0.0,1.3759,1.3853,1.4569,1.505,1.505,0.0,0.0,0.0,2.293,2.5352,2.6777,2.8174,2.9268,3.001,3.0264,3.0615,3.1064,3.1064,3.1123,3.125,3.1553,3.1758,3.1885,3.2197,3.2471,3.2676,3.2441,3.2412,3.249,3.2256,3.1836,3.1289,3.0732,2.9439,2.7601,2.643,2.5267,0.0,0.0,2.0535,2.0742,1.8669,1.8295,1.8343,1.6519,1.5685,1.5444,1.5651,0.0,0.0,1.7114,1.819,1.9118,1.8931,1.9285,1.9905,2.0887,2.1534,2.2504,2.4619,2.4464,2.4321,2.5346,2.4603,2.3694,2.3307,2.2946,2.2498,2.2038,2.1911,2.2038,2.2458,2.2378,2.2418,2.2719,2.2345,2.2198,2.2405,2.2218,2.2104,2.2104,2.2104,2.2104,2.2104,2.2104,2.1924,2.155,2.155,2.1396,2.1109,2.1109,2.1109,2.1109,2.1109,2.1109,2.1102,2.1022,2.0688,2.0227,2.0147,1.9806,1.9366,1.9366,1.9366,1.9366,0.0,0.0,0.0,0.0,0.0,0.0,0.0,0.0,0.0,0.0,0.0,0.0,0.0,0.0,1.4273,0.0,0.0,0.0,0.0,2.2373,2.46,2.6328,2.8018,2.9131,2.958,3.043,3.1074,3.1504,3.1504,3.1709,3.2129,3.2148,3.2363,3.2754,3.2773,3.3232,3.3965,3.3125,3.3008,3.331,3.25,3.166,3.081,2.9941,2.7726,2.5006,2.4507,0.0,0.0,1.9295,1.7324,1.552,1.7379,1.7215,0.0,1.6266,1.5852,1.5398,0.0,0.0,1.6981,1.815,1.9112,1.9993,2.0828,2.1256,2.2059,2.401,2.4732,2.5397,2.6758,2.7539,2.7495,2.5651,2.5911,2.5541,2.3633,2.3313,2.2973,2.2091,2.1737,2.1577,0.0,2.1837,2.2118,2.2412,2.2412,2.2405,2.2418,2.2412,2.2405,2.2405,2.2405,2.2405,2.2405,2.2405,2.2118,2.155,2.155,2.1396,2.1109,2.1109,2.1109,2.1109,2.1109,2.1109,2.1089,2.0808,2.0508,2.0201,1.992,1.9633,1.9366,1.9366,1.9366,1.9366,0.0,0.0,0.0,0.0,0.0,0.0,0.0,0.0,0.0,0.0,0.0,0.0,0.0,0.0,0.0,0.0,0.0,0.0,0.0,2.1611,2.376,2.4629,2.7129,2.8701,2.9131,2.999,3.0654,3.1103,3.1103,3.1318,3.1738,3.2031,3.2393,3.2803,3.3086,3.3369,3.3603,3.3037,3.3203,3.373,3.2305,3.1738,3.1394,2.8577,2.6095,2.3703,0.0,0.0,0.0,1.6012,1.4958,1.4502,1.5127,1.5089,1.4863,1.505,1.5384,1.5852,1.6633,0.0,1.8704,1.9693,2.0454,2.1089,2.1583,2.2653,2.3774,2.4386,2.5026,2.5999,2.7495,2.705,2.6372,2.6198,2.5939,2.5005,2.3302,2.302,2.2545,2.1269,2.1376,0.0,0.0,0.0,0.0,2.2385,2.2418,2.2505,2.2706,2.2712,2.2712,2.2712,2.2712,2.2712,2.2712,2.2712,2.2418,2.1837,2.1443,2.1203,2.1109,2.1109,2.1109,2.1109,2.1109,2.1109,2.1102,2.1002,2.0675,2.0221,2.0127,1.9793,1.9366,1.9366,1.9366,1.9366,0.0,0.0,0.0,0.0,0.0,0.0,0.0,0.0,0.0,0.0,0.0,0.0,0.0,0.0,0.0,0.0,0.0,0.0,0.0,0.0,2.2012,2.3066,2.5107,2.6562,2.7295,2.7851,2.8506,2.9277,2.9434,2.9961,3.083,3.126,3.1777,3.2353,3.2617,3.291,3.3164,3.2588,3.2568,3.2783,3.0692,2.9575,2.9029,2.5496,2.293,0.0,0.0,0.0,1.5006,1.3598,1.336,1.3627,1.3741,1.4062,1.4476,1.4877,1.5611,1.6607,1.7996,1.9092,2.0094,2.1189,2.225,2.3126,2.3301,2.4627,2.5669,2.5921,2.6298,2.6755,2.8007,2.699,2.5932,2.5929,2.5269,2.4298,2.2923,2.2612,2.2164,2.1116,2.1229,2.1129,0.0,0.0,0.0,2.2071,2.2205,2.2392,2.2686,2.2806,2.2859,2.2859,2.2859,2.2859,2.2859,2.2859,2.2565,2.1977,2.1496,2.1216,2.1109,2.1109,2.1109,2.1109,2.1109,2.1109,2.1109,2.1109,2.0828,2.0381,2.0274,1.994,1.9506,1.9406,1.9366,1.9366,0.0,0.0,0.0,0.0,0.0,0.0,0.0,0.0,0.0,0.0,0.0,0.0,0.0,0.0,0.0,0.0,0.0,0.0,0.0,0.0,1.9521,2.1572,2.2187,2.3047,2.4258,2.4355,2.501,2.6289,2.6709,2.7764,2.9385,2.9805,3.0459,3.1289,3.1289,3.1738,3.2441,3.1482,3.0918,3.0412,2.7556,2.5531,2.3877,2.1015,0.0,0.0,0.0,0.0,0.0,0.0,0.0,0.0,0.0,1.4075,1.513,1.5738,1.6567,1.7669,1.9419,2.0341,2.1149,2.2687,2.436,2.5614,2.605,2.6917,2.7738,2.8596,2.8145,2.7678,0.0,0.0,2.5958,2.4647,2.4135,2.3486,2.2565,2.2218,2.1944,0.0,0.0,0.0,0.0,0.0,0.0,2.155,2.183,2.2118,2.2425,2.2712,2.2859,2.2859,2.2859,2.2859,2.2859,2.2832,2.2539,2.1984,2.1677,2.1383,2.1109,2.1109,2.1109,2.1109,2.1109,2.1109,2.1109,2.1109,2.0942,2.0648,2.0347,2.0054,1.9766,1.9472,1.9366,1.9366,0.0,0.0,0.0,0.0,0.0,0.0,0.0,0.0,0.0,0.0,0.0,0.0,0.0,0.0,0.0,0.0,0.0,0.0,0.0,1.6986,1.8281,1.8525,2.0791,2.2197,2.2519,0.0,0.0,2.4922,2.5352,2.5957,2.6719,2.7158,2.7646,2.8164,2.8164,2.8281,2.834,2.7015,2.6583,2.6736,0.0,2.2733,2.2355,0.0,0.0,0.0,0.0,0.0,0.0,0.0,0.0,0.0,0.0,1.4843,1.5812,1.6834,1.8083,1.9412,2.0748,2.1864,2.3052,2.5135,2.5788,2.6246,2.7413,2.805,2.8394,2.7561,2.7281,2.6998,0.0,0.0,0.0,2.4048,2.4408,0.0,2.268,2.2933,0.0,2.1697,0.0,2.1884,2.1376,2.159,0.0,0.0,2.1944,2.2211,2.2719,2.2819,2.2859,2.2859,2.2859,2.2859,2.2859,2.2425,2.2138,2.1977,2.147,2.1182,2.1109,2.1109,2.1109,2.1109,2.1109,2.1109,2.1109,2.1109,2.0942,2.0648,2.0347,2.0054,1.9766,1.9472,1.9366,1.9366,0.0,0.0,0.0,0.0,0.0,0.0,0.0,0.0,0.0,0.0,0.0,0.0,0.0,0.0,0.0,0.0,0.0,0.0,0.0,0.0,1.64,1.6542,1.8024,1.906,1.9525,0.0,0.0,0.0,0.0,0.0,2.31,2.4006,2.4736,2.5322,2.5518,2.5703,2.5742,2.4309,0.0,0.0,0.0,0.0,0.0,0.0,0.0,0.0,0.0,0.0,0.0,0.0,0.0,1.5157,1.5551,1.6286,1.7255,1.8557,0.0,2.0882,2.2325,2.33,2.4351,2.646,2.7122,2.747,2.8202,2.885,2.8704,2.6825,2.6075,0.0,2.4512,0.0,0.0,0.0,0.0,0.0,2.2116,2.2585,2.2726,0.0,2.2218,0.0,2.179,2.2004,2.2231,0.0,2.2251,2.2318,2.2652,2.2792,2.2859,2.2859,2.2859,2.2859,2.2859,2.2532,2.2305,2.2171,2.171,2.143,2.1296,2.1169,2.1109,2.1109,2.1109,2.1109,2.1109,2.1109,2.1009,2.0842,2.0541,2.0247,1.9953,1.9659,1.9472,1.9386,0.0,0.0,0.0,0.0,0.0,0.0,0.0,0.0,0.0,0.0,0.0,0.0,0.0,0.0,0.0,0.0,0.0,0.0,0.0,0.0,0.0,0.0,1.4953,1.5222,1.6374,0.0,0.0,0.0,0.0,0.0,0.0,0.0,0.0,0.0,0.0,0.0,0.0,0.0,0.0,0.0,0.0,0.0,0.0,0.0,0.0,0.0,0.0,0.0,0.0,0.0,1.5838,1.6386,1.7235,1.8143,1.9178,2.0608,2.1416,2.2344,2.4147,2.4963,2.5589,2.7643,2.8622,2.9094,2.9021,2.9094,2.8535,2.6064,0.0,2.3628,2.2447,2.0771,1.9814,2.0853,0.0,2.0327,2.1503,2.1917,2.2198,2.2452,2.2606,2.264,2.2124,2.2626,2.289,2.2846,2.2699,2.2579,2.2539,2.2746,2.2859,2.2859,2.2859,2.2859,2.2859,2.2819,2.2672,2.2412,2.2084,2.1797,2.1543,2.1243,2.1109,2.1109,2.1109,2.1109,2.1109,2.1109,2.1089,2.1029,2.0775,2.0468,2.0147,1.9893,1.9639,1.9459,0.0,0.0,0.0,0.0,0.0,0.0,0.0,0.0,0.0,0.0,0.9726,1.002,0.0,0.0,0.0,0.0,0.0,0.0,0.0,0.0,0.0,0.0,1.4037,1.4262,0.0,0.0,0.0,0.0,0.0,0.0,0.0,0.0,0.0,0.0,0.0,0.0,0.0,0.0,0.0,0.0,0.0,0.0,0.0,0.0,0.0,0.0,0.0,0.0,0.0,0.0,1.7128,1.8497,1.9138,2.0114,2.1263,2.2505,2.3113,2.4025,2.6641,2.7614,2.8615,3.1478,3.1489,3.071,3.061,2.893,0.0,0.0,2.2924,2.1406,2.1108,1.9785,1.916,2.0483,0.0,0.0,0.0,0.0,2.2732,0.0,0.0,0.0,0.0,0.0,0.0,0.0,2.328,2.3427,2.318,2.2973,2.2859,2.2859,2.2859,2.2859,2.2859,2.2619,2.2472,2.2412,2.1884,2.1603,2.1543,2.1243,2.1109,2.1109,2.1109,2.1109,2.1109,2.1109,2.0969,2.0742,2.0695,2.0347,1.9867,1.982,1.9766,1.9733,0.0,0.0,0.0,0.0,0.0,0.0,0.0,0.853,0.9245,0.9833,0.9907,1.0248,1.1114,1.1593,1.1581,0.0,0.0,0.0,0.0,0.0,0.0,0.0,0.0,0.0,0.0,0.0,0.0,0.0,0.0,0.0,0.0,0.0,0.0,0.0,0.0,0.0,0.0,0.0,0.0,0.0,0.0,0.0,0.0,0.0,0.0,0.0,0.0,0.0,0.0,0.0,1.7074,1.9132,2.0334,2.1309,2.2238,2.3434,2.3988,2.4841,2.7791,2.8731,2.9629,3.2464,3.1971,3.0465,2.943,0.0,0.0,0.0,2.1053,1.9824,1.9525,0.0,0.0,0.0,0.0,0.0,0.0,0.0,0.0,0.0,0.0,0.0,0.0,0.0,2.4024,2.3238,2.3374,2.348,2.3333,2.3187,2.3033,2.2866,2.2859,2.2859,2.2859,2.2719,2.2645,2.2645,2.2058,2.1777,2.1764,2.1316,2.1109,2.1109,2.1109,2.1109,2.1109,2.1109,2.0942,2.0675,2.0675,2.0321,1.982,1.9967,1.9927,1.9846,0.0,0.0,0.0,0.0,0.0,0.0,0.0,0.8727,0.9519,1.0047,1.0174,1.0513,1.1345,1.1487,1.1421,0.0,0.0,0.0,0.0,0.0,0.0,0.0,0.0,0.0,0.0,0.0,0.0,0.0,0.0,0.0,0.0,0.0,0.0,0.0,0.0,0.0,0.0,0.0,0.0,0.0,0.0,0.0,0.0,0.0,0.0,0.0,0.0,0.0,0.0,0.0,1.6393,1.8477,2.0247,2.1543,2.2605,2.3547,2.4492,2.582,2.8755,3.0045,3.1213,3.3028,3.2189,3.0254,2.8047,2.5703,0.0,0.0,1.9511,1.8461,1.825,0.0,0.0,0.0,0.0,0.0,0.0,0.0,0.0,0.0,0.0,0.0,0.0,0.0,0.0,2.3407,2.342,2.342,2.342,2.342,2.328,2.2973,2.2966,2.2933,2.2859,2.2859,2.2859,2.2853,2.2265,2.1984,2.1964,2.1376,2.1109,2.1109,2.1109,2.1109,2.1109,2.1109,2.0942,2.0681,2.0742,2.0408,1.9927,2.0221,2.0187,2.0054,0.0,0.0,0.0,0.0,0.0,0.0,0.0,0.8598,0.976,1.0074,1.0354,1.049,1.0302,1.0519,1.0674,0.0,0.0,0.0,0.0,0.0,0.0,0.0,0.0,0.0,0.0,0.0,0.0,0.0,0.0,0.0,0.0,0.0,0.0,0.0,0.0,0.0,0.0,0.0,0.0,0.0,0.0,0.0,0.0,0.0,0.0,0.0,0.0,0.0,0.0,0.0,0.0,1.6032,1.7809,2.0234,2.2438,2.2552,0.0,0.0,3.0681,3.3152,3.5046,3.512,3.3582,3.112,2.7871,0.0,0.0,2.1387,1.8912,1.71,1.7747,0.0,0.0,0.0,0.0,1.7903,0.0,0.0,0.0,0.0,0.0,0.0,0.0,2.5264,2.5626,2.3883,2.3728,2.3728,2.3728,2.3728,2.3594,2.3293,2.3287,2.3146,2.2866,2.2859,2.2859,2.2853,2.2265,2.1984,2.1964,2.1376,2.1109,2.1109,2.1109,2.1109,2.1109,2.1109,2.0942,2.0702,2.0962,2.0708,2.0227,2.0528,2.0621,2.0601,0.0,0.0,0.0,0.0,0.0,0.0,0.7291,0.8661,0.9853,1.0321,1.0551,1.0577,1.0401,1.0327,1.0154,0.98,0.0,0.0,0.0,0.0,0.0,0.0,0.0,0.0,0.0,0.0,0.0,1.0822,0.0,0.0,0.0,0.0,0.0,0.0,0.0,0.0,0.0,0.0,0.0,0.0,0.0,0.0,0.0,0.0,0.0,0.0,0.0,0.0,0.0,0.0,0.0,0.0,1.5284,1.7048,0.0,0.0,2.3352,2.6055,3.047,3.2541,3.3857,3.5072,3.3379,3.0566,2.7363,0.0,2.1738,2.0352,1.8252,1.6719,1.6714,1.5396,0.0,0.0,0.0,0.0,0.0,0.0,0.0,0.0,0.0,0.0,0.0,0.0,2.4793,2.4022,2.4028,2.4028,2.4028,2.3694,2.3447,2.3327,2.3146,2.2986,2.2859,2.2859,2.2859,2.2853,2.2265,2.1984,2.1964,2.1376,2.1109,2.1109,2.1109,2.1109,2.1109,2.1109,2.0942,2.0688,2.0802,2.0595,2.0267,2.0568,2.0675,2.0702,0.0,0.0,0.0,0.0,0.0,0.6789,0.741,0.8794,0.9993,1.0557,1.0624,1.0591,1.0441,1.0087,0.9686,0.9223,0.978,0.0,0.0,0.0,0.0,0.0,0.0,0.0,0.0,0.0,0.0,1.0868,1.1362,1.166,0.0,0.0,0.0,0.0,0.0,0.0,0.0,0.0,0.0,0.0,0.0,0.0,0.0,0.0,0.0,0.0,0.0,0.0,0.0,0.0,0.0,0.0,0.0,0.0,0.0,0.0,2.184,2.4431,2.9271,3.1557,3.2954,3.4604,3.2734,2.9624,0.0,0.0,2.0983,1.9136,1.7525,1.6366,1.6014,1.4916,1.4282,1.487,0.0,1.5364,1.7041,0.0,0.0,0.0,0.0,2.2717,0.0,2.4602,2.4108,2.4315,2.4168,2.4115,2.4202,2.3561,2.3233,2.3327,2.3113,2.2953,2.2859,2.2859,2.2819,2.2726,2.2225,2.1944,2.1844,2.1343,2.1109,2.1109,2.1109,2.1109,2.1109,2.1109,2.0989,2.0802,2.0802,2.0675,2.0514,2.0728,2.0802,2.0822,0.0,0.0,0.0,0.0,0.0,0.0,0.741,0.8951,1.0221,1.0584,1.0624,1.0448,1.0154,0.9599,0.919,0.9183,0.978,0.0,0.0,0.0,0.0,0.0,0.0,0.0,0.0,0.0,1.0624,1.0624,1.0848,1.0989,1.0989,1.1055,1.1884,1.3394,0.0,0.0,0.0,0.0,0.0,0.0,0.0,0.0,0.0,0.0,0.0,0.0,0.0,0.0,0.0,0.0,0.0,0.0,0.0,0.0,0.0,0.0,2.0284,2.4353,2.751,3.0593,3.3099,3.3898,3.1816,2.8668,0.0,0.0,2.001,1.7811,1.6583,1.591,1.5725,1.481,1.4282,1.487,1.5204,0.0,1.7368,0.0,0.0,0.0,0.0,2.197,2.4305,2.46,2.4629,2.4636,2.4102,2.3901,2.4189,2.3354,2.3006,2.3313,2.3327,2.3173,2.2866,2.2859,2.2712,2.2418,2.2124,2.1837,2.1543,2.1243,2.1109,2.1109,2.1109,2.1109,2.1109,2.1109,2.1109,2.1109,2.1109,2.1102,2.1102,2.1102,2.1109,2.1062,0.0,0.0,0.0,0.0,0.0,0.0,0.0,0.8379,0.944,1.0494,1.0381,1.0221,1.0127,0.9535,0.9183,0.9183,0.9599,0.0,0.0,0.0,0.0,0.0,0.0,0.0,0.0,0.0,1.0955,1.1149,1.1243,1.173,1.2535,1.2087,1.2765,1.4346,1.3166,0.0,0.0,0.0,0.0,0.0,0.0,0.0,0.0,0.0,0.0,0.0,0.0,0.0,0.0,0.0,0.0,0.0,0.0,0.0,0.0,0.0,0.0,0.0,2.435,2.632,2.7687,2.9269,2.7525,2.4927,2.2813,0.0,1.8153,1.6838,1.5968,1.5441,1.5031,1.4447,1.4349,0.0,0.0,0.0,0.0,0.0,0.0,0.0,2.22,2.3547,0.0,0.0,2.4636,2.4636,2.4469,2.4315,2.4209,2.3741,2.3434,2.3327,2.312,2.2966,2.2859,2.2659,2.2512,2.2412,2.1924,2.1643,2.1543,2.1243,2.1109,2.1109,2.1109,2.1109,2.1109,2.1109,2.1109,2.1109,2.1109,2.1109,2.1109,2.1109,2.1109,2.1096,0.0,0.0,0.0,0.0,0.0,0.0,0.0,0.8134,0.91,1.0418,1.0207,0.9993,1.0107,0.9492,0.9064,0.9176,0.9512,0.0,0.0,0.0,0.0,0.0,0.0,0.0,0.0,1.0735,1.1022,1.1423,1.1943,1.2575,1.3322,1.3353,1.3794,1.4355,1.3554,0.0,0.0,0.0,0.0,0.0,0.0,0.0,1.0828,0.0,0.0,0.0,0.0,0.0,0.0,0.0,0.0,0.0,0.0,0.0,0.0,0.0,1.477,0.0,0.0,2.2792,2.3645,2.5724,2.4464,0.0,0.0,0.0,1.6875,1.5366,1.5038,1.485,1.4302,1.4159,1.4302,0.0,0.0,0.0,0.0,0.0,0.0,0.0,0.0,0.0,0.0,2.4442,2.4636,2.4636,2.4436,2.4235,2.4048,2.3647,2.3347,2.316,2.2966,2.2806,2.2692,2.2512,2.2311,2.2084,2.1724,2.1496,2.1376,2.1196,2.1109,2.1109,2.1109,2.1109,0.0,2.1109,2.1109,2.1109,2.1109,2.1109,2.1109,2.1109,2.1109,2.1096,0.0,0.0,0.0,0.0,0.0,0.0,0.0,0.8063,0.9028,1.0358,1.004,0.98,1.0027,0.9325,0.8938,0.913,0.0,0.0,0.0,0.0,0.0,0.0,0.0,0.0,0.0,1.0645,1.0868,1.1423,1.2778,1.3374,1.3412,1.46,1.461,1.3675,1.3498,0.0,0.0,0.0,0.0,0.0,0.0,0.0,0.0,0.0,0.0,0.0,0.0,0.0,0.0,0.0,0.0,0.0,0.0,0.0,0.0,0.0,0.0,0.0,0.0,0.0,0.0,0.0,0.0,0.0,0.0,0.0,0.0,0.0,1.386,1.4259,1.3743,1.3868,1.4175,0.0,0.0,0.0,0.0,0.0,0.0,0.0,2.344,0.0,2.3473,2.4135,2.4636,2.4636,2.4142,2.3828,2.3801,2.3247,2.2919,2.2893,2.2853,2.2699,2.2418,2.2398,2.2111,2.155,2.153,2.1376,2.1109,2.1109,2.1109,2.1109,2.1109,2.1109,2.1109,2.1109,2.1109,2.1109,2.1109,2.1109,2.1109,2.1109,2.1109,2.1069,0.0,0.0,0.0,0.0,0.0,0.0,0.0,0.0,0.0,0.0,0.996,0.9866,0.9429,0.921,0.9024,0.0,0.0,0.0,0.0,0.0,0.0,0.0,0.0,0.0,0.0,1.0775,1.1062,1.1423,1.2223,1.3039,1.4007,1.3316,1.3476,1.4203,1.2424,1.1332,0.0,0.0,0.0,0.0,0.0,0.0,0.0,0.0,0.0,0.0,1.0661,1.0895,0.0,0.0,0.0,0.0,0.0,0.0,0.0,0.0,1.2672,1.3216,1.4181,0.0,1.6831,1.7888,1.7171,0.0,0.0,0.0,0.0,0.0,0.0,1.3317,1.3547,1.3701,1.4135,0.0,0.0,0.0,0.0,0.0,0.0,0.0,2.3768,2.435,2.3701,2.4255,2.4636,2.4636,2.4509,2.4335,2.4115,2.3754,2.3454,2.322,2.2766,2.2492,2.2418,2.2198,2.1904,2.155,2.1323,2.1176,2.1109,2.1109,2.1109,2.1109,2.1109,2.1109,2.1109,2.1109,2.1109,2.1109,2.1109,2.1109,2.1109,2.1109,2.1109,2.1069,0.0,0.0,0.0,0.0,0.0,0.0,0.0,0.0,0.0,0.0,0.0,0.0,0.0,0.0,0.0,0.0,0.0,0.0,0.0,0.0,0.0,0.0,0.0,0.0,1.0624,1.0715,1.1069,1.163,1.2437,1.3411,1.4379,1.4044,1.4124,1.444,1.2269,1.1263,0.0,0.0,0.0,0.0,1.0624,0.0,0.0,0.0,0.0,0.0,1.0624,1.0748,0.0,1.1176,1.1516,1.1897,0.0,0.0,0.0,0.0,1.2418,1.2545,1.2545,1.3639,1.4842,1.5218,1.494,1.4429,0.0,0.0,0.0,0.0,0.0,0.0,1.3554,0.0,0.0,0.0,0.0,0.0,0.0,0.0,0.0,0.0,2.3761,2.4222,2.4168,2.4449,2.4583,2.4449,2.4315,2.4108,2.3814,2.3521,2.3213,2.2919,2.2592,2.2352,2.2218,2.1931,2.1643,2.1349,2.1189,2.1109,2.1109,2.1109,2.1109,2.1109,2.1109,2.1109,2.1109,2.1109,2.1029,2.0909,2.0909,2.0828,2.0708,2.0708,2.0708,2.0688,0.0,0.0,0.0,0.0,0.0,0.0,0.0,0.0,0.0,0.0,0.0,0.0,0.0,0.0,0.0,0.0,0.0,0.0,0.0,0.0,0.0,0.0,0.0,1.0645,1.0692,1.0645,1.1055,1.187,1.2819,1.3732,1.4639,1.538,1.5194,1.4304,1.2652,1.1817,0.0,0.0,0.0,0.0,1.0624,0.0,0.0,0.0,0.0,0.0,0.0,0.0,0.0,1.0982,1.1356,1.181,1.1857,0.0,0.0,0.0,0.0,0.0,1.2412,1.3247,1.4041,1.3861,1.3921,1.3928,0.0,0.0,0.0,0.0,0.0,0.0,0.0,0.0,0.0,0.0,0.0,0.0,0.0,0.0,0.0,2.3166,2.3667,2.4042,2.4402,2.4516,2.4449,2.4162,2.3915,2.3641,2.334,2.3033,2.2726,2.2432,2.2331,2.2171,2.1924,2.1677,2.1403,2.1109,2.1109,2.1109,2.1109,2.1109,2.1109,2.1109,2.1109,2.1082,2.1042,2.1042,2.0869,2.0608,2.0608,2.0454,2.0234,2.0234,2.0234,2.0227,0.0,0.0,0.0,0.0,0.0,0.0,0.0,0.0,0.0,0.0,0.0,0.0,0.0,0.0,0.0,0.0,0.0,0.0,0.0,0.0,0.0,0.0,1.0624,1.0739,1.0922,1.0752,1.1055,1.187,1.2256,1.3294,1.4802,1.5192,1.4789,1.3639,1.2717,1.1738,1.0807,0.0,0.0,0.0,0.0,0.0,0.0,0.0,0.0,0.0,0.0,0.0,0.0,1.0909,1.1216,1.1536,1.179,0.0,0.0,0.0,0.0,0.0,1.2933,1.3567,1.3841,1.2832,1.3146,1.3567,0.0,0.0,0.0,0.0,0.0,0.0,0.0,0.0,0.0,0.0,0.0,0.0,0.0,0.0,2.2492,2.324,0.0,2.4249,2.3594,2.3975,2.4148,2.3855,2.3794,2.3641,2.334,2.3033,2.2726,2.2432,2.1944,2.1663,2.1623,2.1577,2.1403,2.1109,2.1109,2.1109,2.1109,2.1109,2.1109,2.1109,2.1109,2.0969,2.0742,2.0742,2.0568,2.0301,2.0301,2.0274,2.0234,2.0234,2.0234,2.0194,0.0,0.0,0.0,0.0,0.0,0.0,0.0,0.0,0.0,0.0,0.0,0.0,0.0,0.0,0.0,0.0,0.0,0.0,0.0,0.0,0.0,1.0624,1.0624,1.0759,1.0982,1.1015,1.1383,1.2104,1.2398,1.3446,1.5057,1.5202,1.4194,1.2351,1.2173,1.1551,1.0624,1.0624,1.0624,1.0624,0.0,0.0,0.0,0.0,0.0,0.0,0.0,0.0,0.0,0.0,1.1056,1.145,1.1583,0.0,0.0,0.0,0.0,0.0,1.2645,1.3273,1.3674,1.2973,1.3581,0.0,0.0,0.0,0.0,0.0,0.0,0.0,0.0,0.0,0.0,0.0,0.0,2.0267,2.1396,2.1784,2.2231,0.0,2.3434,2.3647,2.3574,2.3814,2.3848,2.3554,2.3534,2.3327,2.2859,2.2699,2.2418,2.1964,2.1697,2.1476,2.1316,2.1309,2.1243,2.1109,2.1109,2.1109,2.1109,2.1109,2.1022,2.0875,2.0875,2.0708,2.0434,2.0434,2.0261,2.0,2.0,1.9907,1.9766,1.9766,1.9766,1.9746,0.0,0.0,0.0,0.0,0.0,0.0,0.0,0.0,0.0,0.0,0.0,0.0,0.0,0.0,0.0,0.0,0.0,0.0,0.0,0.0,1.0624,1.0624,1.0692,1.0835,1.1189,1.1349,1.1817,1.2619,1.2772,1.3698,1.5155,1.5267,1.4011,1.1805,1.1897,1.1423,1.0624,1.0624,1.0624,1.0624,0.0,0.0,0.0,0.0,0.0,0.0,0.0,0.0,0.0,0.0,0.0,0.0,0.0,0.0,0.0,1.2305,1.2305,1.2331,1.2478,1.3019,1.3507,1.3353,0.0,0.0,0.0,0.0,0.0,0.0,0.0,0.0,0.0,0.0,0.0,0.0,2.0454,2.1136,2.1871,2.1971,2.2271,2.308,2.312,2.3233,2.3627,2.3601,2.3434,2.314,2.3053,2.2806,2.2345,2.2251,2.2011,2.157,2.1483,2.1336,2.1109,2.1109,2.1109,2.1109,2.1109,2.1109,2.1109,2.1109,2.0949,2.0675,2.0675,2.0468,2.0134,2.0134,1.996,1.97,1.97,1.9559,1.9366,1.9366,1.9366,1.9366,0.0,0.0,0.0,0.0,0.0,0.0,0.0,0.0,0.0,0.0,0.0,0.0,0.0,0.0,0.0,0.0,0.0,0.0,0.0,0.0,1.0624,1.0624,1.0822,1.1229,1.179,1.1557,1.2124,1.3547,1.33,1.3724,1.4817,1.5219,1.4498,1.296,1.253,1.1696,1.0624,1.0624,1.0624,1.0624,1.0624,0.0,0.0,0.0,0.0,0.0,0.0,0.0,0.0,0.0,0.0,0.0,0.0,0.0,1.2305,1.2305,1.2305,1.2425,1.2993,1.3193,1.33,1.3547,0.0,0.0,0.0,0.0,0.0,0.0,0.0,0.0,0.0,0.0,0.0,0.0,2.0929,2.1891,2.304,0.0,2.3427,2.4035,2.3868,2.3614,2.338,2.3093,2.2806,2.2505,2.2231,2.2064,2.2017,2.1764,2.1597,2.155,2.1289,2.1129,2.1109,2.1109,2.1109,2.1109,2.1109,2.1109,2.1109,2.1109,2.0949,2.0675,2.0675,2.0354,1.9833,1.9833,1.9659,1.9399,1.9399,1.9386,1.9366,1.9366,1.9366,1.9366,0.0,0.0,0.0,0.0,0.0,0.0,0.0,0.0,0.0,0.0,0.0,0.0,0.0,0.0,0.0,0.0,0.0,0.0,0.0,0.0,1.004,1.0561,1.0732,1.0995,1.1583,1.2024,1.3072,1.4669,1.5242,1.4709,1.329,1.3935,1.3363,1.18,1.1424,1.1037,1.0624,1.0624,1.0624,1.0624,1.0624,1.0624,0.0,0.0,0.0,0.0,0.0,0.0,0.0,0.0,1.0949,1.1423,1.1423,1.1824,1.2305,1.2305,1.2305,1.2351,1.2585,1.3053,1.3547,1.3848,0.0,0.0,0.0,0.0,0.0,0.0,0.0,0.0,0.0,0.0,0.0,2.0615,2.1516,2.2311,2.2953,2.304,2.312,2.3347,2.3273,2.316,2.3046,2.2766,2.2539,2.2425,2.2151,2.1904,2.1724,2.1617,2.147,2.1283,2.1169,2.1109,2.1109,2.0929,2.0842,2.0842,2.1022,2.1015,2.0842,2.0842,2.0581,2.0134,2.0134,1.9907,1.9533,1.9533,1.9466,1.9366,1.9366,1.9366,1.9366,1.9366,1.9252,1.9092,0.0,0.0,0.0,0.0,0.0,0.0,0.0,0.0,0.0,0.0,0.0,0.0,0.0,0.0,0.0,0.0,0.0,0.0,0.9268,0.9274,0.9658,1.0561,1.0712,1.0922,1.1416,1.2204,1.3319,1.4743,1.5423,1.4545,1.2158,1.2529,1.2109,1.0982,1.0688,1.0672,1.0688,1.0665,1.0624,1.0624,1.0624,1.0624,0.0,0.0,0.0,0.0,0.0,0.0,0.0,0.0,1.0949,1.1423,1.1423,1.1824,1.2305,1.2305,1.2238,1.2184,1.2278,1.2752,1.3313,0.0,0.0,0.0,0.0,0.0,0.0,0.0,0.0,0.0,0.0,0.0,0.0,0.0,2.171,2.2452,2.2939,2.2926,2.2899,2.2999,2.2926,2.2826,2.2732,2.2452,2.2245,2.2151,2.1877,2.1623,2.1423,2.141,2.1323,2.1116,2.1022,2.0969,2.0969,2.0681,2.0535,2.0541,2.0735,2.0728,2.0535,2.0535,2.0267,1.98,1.98,1.9633,1.9366,1.9366,1.9312,1.9239,1.9332,1.9312,1.9225,1.9225,1.9098,1.8911,0.0,0.0,0.0,0.0,0.0,0.0,0.0,0.0,0.0,0.0,0.0,0.0,0.0,0.0,0.0,0.0,0.0,0.0,0.921,0.9274,0.9658,1.0561,1.0835,1.1122,1.141,1.1991,1.2732,1.3627,1.3347,1.2746,1.185,1.1269,1.0995,1.0975,1.0695,1.0728,1.0969,1.0752,1.0624,1.0624,1.0624,1.0624,1.0624,0.0,0.0,0.0,0.0,0.0,0.0,0.0,1.0949,1.1423,1.1423,1.1824,1.2305,1.2305,1.2098,1.1937,1.2225,1.2311,0.0,0.0,0.0,0.0,0.0,0.0,0.0,0.0,0.0,0.0,0.0,0.0,0.0,2.0535,2.141,2.2291,2.3187,2.3046,2.2966,2.328,2.304,2.2739,2.2445,2.2151,2.1864,2.1577,2.1276,2.1109,2.1109,2.1109,2.1102,2.1102,2.0822,2.0675,2.0675,2.0374,2.0227,2.0227,2.0221,2.0221,2.0227,2.0227,2.0067,1.9793,1.9793,1.9626,1.9366,1.9366,1.9185,1.8951,1.9245,1.9178,1.8918,1.8918,1.8918,1.8871,0.0,0.0,0.0,0.0,0.0,0.0,0.0,0.0,0.0,0.0,0.0,0.0,0.0,0.0,0.0,0.0,0.0,0.0,0.7437,0.7502,0.8156,0.9594,0.9731,1.0141,1.0815,1.139,1.2017,1.2699,1.357,1.3119,1.1256,1.1283,1.1082,1.0701,1.1022,1.0989,1.0759,1.0815,1.0748,1.0624,1.0624,1.0624,1.0624,0.0,0.0,0.0,0.0,0.0,0.0,0.0,0.0,0.0,1.1423,1.1824,1.2305,1.2305,1.2238,1.2191,1.2278,0.0,0.0,0.0,0.0,0.0,0.0,0.0,0.0,0.0,0.0,0.0,0.0,0.0,0.0,2.0601,2.1243,2.1844,2.2318,2.2305,2.2278,2.2372,2.2305,2.2211,2.2124,2.185,2.165,2.1563,2.1276,2.1022,2.0815,2.0808,2.0708,2.0501,2.0408,2.0368,2.0368,2.0074,1.9927,1.992,1.9512,1.9526,1.9927,1.9927,1.9653,1.9185,1.9185,1.9138,1.9058,1.9058,1.8885,1.8631,1.8718,1.8698,1.8617,1.8617,1.849,1.8297,0.0,0.0,0.0,0.0,0.0,0.0,0.0,0.0,0.0,0.0,0.0,0.0,0.0,0.0,0.0,0.0,0.0,0.0,0.0,0.6719,0.7502,0.921,0.9274,0.9771,1.0728,1.1303,1.1663,1.1784,1.2713,1.2424,1.0995,1.1176,1.1129,1.0922,1.1269,1.1229,1.0915,1.1089,1.0995,1.0742,1.0855,1.0835,1.0735,0.0,0.0,0.0,0.0,0.0,0.0,0.0,0.0,0.0,1.1563,1.1924,1.2305,1.2305,1.2218,1.2178,1.2412,0.0,0.0,0.0,0.0,0.0,0.0,0.0,0.0,0.0,0.0,0.0,2.0408,2.0314,0.0,2.0782,2.1243,2.1657,2.1944,2.1984,2.1984,2.1984,2.1984,2.1937,2.1824,2.1657,2.1456,2.1223,2.1042,2.0808,2.0514,2.0501,2.0421,2.0241,2.012,2.006,2.006,1.9773,1.9566,1.9446,1.9092,1.9045,1.9279,1.9279,1.9152,1.8918,1.8804,1.8751,1.8751,1.8751,1.8577,1.833,1.8444,1.8417,1.831,1.831,1.8203,1.8009,0.0,0.0,0.0,0.0,0.0,0.0,0.0,0.0,0.0,0.0,0.0,0.0,0.0,0.0,0.0,0.0,0.0,0.0,0.0,0.0,0.7372,0.9075,0.9338,0.9903,1.0949,1.1476,1.149,1.0955,1.1269,1.1276,1.0995,1.1022,1.1176,1.1423,1.1456,1.1436,1.1383,1.1383,1.1236,1.1015,1.1283,1.1243,1.1029,1.1002,0.0,0.0,0.0,0.0,0.0,0.0,0.0,0.0,1.1784,1.2064,1.2305,1.2305,1.2118,1.2037,0.0,0.0,0.0,0.0,0.0,0.0,0.0,0.0,0.0,0.0,0.0,2.0748,2.0722,2.0494,2.0488,2.1022,2.1336,2.1603,2.1871,2.1904,2.1904,2.1904,2.1904,2.179,2.1503,2.1476,2.1243,2.0681,2.0635,2.0508,2.0207,2.0194,2.018,2.0154,1.9873,1.972,1.972,1.9432,1.9152,1.8885,1.8858,1.8704,1.845,1.8477,1.8617,1.8831,1.8564,1.843,1.841,1.841,1.825,1.8029,1.8277,1.8217,1.8003,1.8003,1.7989,1.7883,0.0,0.0,0.0,0.0,0.0,0.0,0.0,0.0,0.0,0.0,0.0,0.0,0.0,0.0,0.0,0.0,0.0,0.0,0.0,0.0,0.647,0.8226,0.9582,1.0461,1.0655,1.0775,1.0846,1.0719,1.1176,1.1276,1.0995,1.1229,1.1363,1.1436,1.167,1.1516,1.1089,1.1089,1.1049,1.1002,1.1062,1.1182,1.1309,1.1082,1.1096,0.0,0.0,0.0,0.0,0.0,0.0,0.0,1.185,1.2064,1.2305,1.2305,1.2258,1.2338,0.0,0.0,0.0,0.0,0.0,0.0,0.0,0.0,0.0,0.0,0.0,2.1296,2.1062,2.0962,2.0962,2.1089,2.1162,2.1229,2.1289,2.1296,2.1296,2.1296,2.1296,2.1182,2.0895,2.0869,2.0715,2.0354,2.0327,2.0201,1.9907,1.9893,1.9786,1.9559,1.9265,1.9112,1.9112,1.8824,1.8651,1.8577,1.835,1.8203,1.815,1.8384,1.8397,1.823,1.815,1.7989,1.7776,1.7776,1.7742,1.7662,1.7502,1.7542,1.7682,1.7682,1.7535,1.7328,0.0,0.0,0.0,0.0,0.0,0.0,0.0,0.0,0.0,0.0,0.0,0.0,0.0,0.0,0.0,0.0,0.0,0.0,0.0,0.0,0.0,0.7897,0.9768,1.0701,1.0624,1.0759,1.0701,1.0624,1.1002,1.1142,0.0,0.0,1.1503,1.165,1.1944,1.175,1.1209,1.1356,1.1329,1.1216,1.1356,1.1503,1.1623,1.147,1.1416,1.141,1.1256,0.0,0.0,0.0,0.0,0.0,0.0,0.0,1.2305,1.2305,1.2305,1.2438,0.0,0.0,0.0,0.0,0.0,0.0,0.0,0.0,0.0,0.0,2.0822,2.1089,2.0929,2.1015,2.1015,2.0735,2.0808,2.0848,2.0708,2.0688,2.0688,2.0688,2.0688,2.0628,2.0481,2.0468,2.0341,2.0047,2.0027,1.99,1.9606,1.9459,1.9312,1.9158,1.8871,1.8718,1.8718,1.8564,1.8424,1.8277,1.7969,1.7675,1.7415,1.7709,1.7762,1.7609,1.7455,1.7301,1.7161,1.7161,1.7161,1.7161,1.7154,1.7154,1.7181,1.7321,1.7188,1.6914,0.0,0.0,0.0,0.0,0.0,0.0,0.0,0.0,0.0,0.0,0.0,0.0,0.0,0.0,0.0,0.0,0.0,0.0,0.0,0.0,0.0,0.7962,0.9771,1.0725,1.0631,1.0842,1.0855,1.0624,0.0,0.0,0.0,0.0,0.0,1.1951,1.2144,1.1931,1.1443,1.169,1.165,1.145,1.175,1.1897,1.1937,1.1891,1.175,1.157,1.1523,1.1536,1.1617,1.1864,0.0,0.0,0.0,0.0,1.2305,1.2305,1.2305,1.2438,0.0,0.0,0.0,0.0,0.0,0.0,0.0,0.0,0.0,2.014,2.0394,2.0601,2.0601,2.0795,2.0802,2.0314,2.0441,2.0514,2.0267,2.0234,2.0234,2.0234,2.0234,2.0214,2.0167,2.0154,2.0013,1.9673,1.9653,1.9519,1.9232,1.8978,1.8844,1.8844,1.8517,1.8357,1.841,1.8263,1.8083,1.7889,1.7528,1.7128,1.6707,1.6854,1.6981,1.7061,1.6814,1.6707,1.67,1.6653,1.666,1.6727,1.6921,1.6874,1.6734,1.6981,1.6887,1.66,0.0,0.0,0.0,0.0,0.0,0.0,0.0,0.0,0.0,0.0,0.0,0.0,0.0,0.0,0.0,0.0,0.0,0.0,0.5428,0.0,0.0,0.7962,0.9173,1.013,1.0568,1.0842,1.0855,1.0624,0.0,0.0,0.0,0.0,0.0,1.2231,0.0,0.0,1.143,1.147,1.1463,1.145,1.175,1.2024,1.2218,1.1964,1.2004,1.2151,1.1904,1.1971,1.2191,1.2231,1.2245,0.0,0.0,0.0,1.2305,1.2305,1.2305,0.0,0.0,0.0,0.0,0.0,0.0,0.0,0.0,0.0,1.9245,0.0,2.0087,2.0294,2.0294,2.0327,2.0321,2.0241,2.0267,2.0274,2.0241,2.0234,2.0234,2.0234,2.0234,2.0134,1.9887,1.986,1.9633,1.9078,1.9038,1.8911,1.8624,1.8571,1.8551,1.8551,1.8003,1.7836,1.8103,1.7335,1.7054,1.7261,1.6707,1.654,1.6693,1.6219,1.6279,1.676,1.6727,1.6707,1.6687,1.6433,1.648,1.6687,1.6473,1.652,1.6707,1.6747,1.658,1.6222,0.0,0.0,0.0,0.0,0.0,0.0,0.0,0.0,0.0,0.0,0.0,0.0,0.0,0.0,0.0,0.5428,0.5428,0.5428,0.5428,0.6203,0.6898,0.7341,0.8312,0.9192,0.9937,0.9651,0.9784,1.0624,0.0,0.0,0.0,1.2278,1.2518,0.0,0.0,0.0,0.0,0.0,1.167,1.1683,1.1817,1.1944,1.2064,1.2098,1.2091,1.2064,1.2098,0.0,0.0,0.0,1.2305,1.2305,1.2305,0.0,0.0,0.0,0.0,0.0,0.0,0.0,0.0,0.0,0.0,0.0,0.0,0.0,1.8758,1.9011,1.9165,1.9406,1.99,2.0127,2.0127,1.98,1.9887,1.9933,1.9773,1.9606,1.9499,1.9499,1.9352,1.9205,1.9078,1.9065,1.8958,1.8698,1.8684,1.8551,1.8257,1.8076,1.7909,1.7742,1.7315,1.7154,1.7295,1.6907,1.6687,1.6653,1.64,1.6253,1.6206,1.5945,1.6059,1.6453,1.6286,1.6219,1.6206,1.6079,1.6099,1.6219,1.6259,1.6246,1.6135,1.5585,1.517,1.474,0.0,0.0,0.0,0.0,0.0,0.0,0.0,0.0,0.0,0.0,0.0,0.0,0.0,0.0,0.0,0.0,0.5463,0.5403,0.5428,0.6009,0.6523,0.6857,0.7568,0.8351,0.917,0.8623,0.8974,0.0,0.0,0.0,1.2177,1.2614,1.2993,0.0,1.2953,0.0,0.0,0.0,0.0,0.0,1.187,1.187,1.1884,1.2024,1.1991,1.1897,1.2118,0.0,0.0,0.0,0.0,0.0,1.2305,1.2305,0.0,0.0,0.0,0.0,0.0,0.0,0.0,0.0,0.0,0.0,0.0,0.0,1.817,0.0,1.8257,1.8457,1.9118,1.9539,1.9653,1.9219,1.9325,1.9392,1.9172,1.8951,1.8818,1.8818,1.8624,1.849,1.849,1.849,1.8464,1.8384,1.8303,1.813,1.7836,1.7528,1.7261,1.7041,1.6747,1.6627,1.6707,1.6633,1.6446,1.6159,1.6159,1.6046,1.5832,1.5832,1.5952,1.6146,1.5925,1.5832,1.5832,1.5832,1.5832,1.5852,1.6072,1.5827,1.5267,1.4485,1.3842,1.3199,0.0,0.0,0.0,0.0,0.0,0.0,0.0,0.0,0.0,0.0,0.0,0.0,0.5428,0.5491,0.5518,0.5439,0.5494,0.5515,0.5435,0.5428,0.5818,0.6671,0.7142,0.0,0.8233,0.8503,0.0,0.0,0.0,0.0,1.2775,1.2808,1.3292,1.4001,1.3133,1.2499,1.1911,0.0,0.0,0.0,0.0,0.0,0.0,0.0,0.0,0.0,0.0,0.0,0.0,0.0,0.0,0.0,0.0,0.0,0.0,0.0,0.0,0.0,0.0,0.0,0.0,0.0,0.0,0.0,0.0,0.0,1.7295,1.7569,1.7629,1.7642,1.7689,1.8183,1.8571,1.8544,1.8551,1.8551,1.8537,1.8524,1.851,1.851,1.8504,1.849,1.849,1.849,1.837,1.809,1.7796,1.7502,1.7215,1.6914,1.6747,1.6727,1.6446,1.6426,1.67,1.6433,1.6146,1.5852,1.5852,1.5845,1.5832,1.5832,1.5838,1.5852,1.5838,1.5832,1.5832,1.5832,1.5832,1.5832,1.5845,1.5057,1.3974,1.3986,1.3113,1.1848,0.0,0.0,0.0,0.0,0.0,0.0,0.0,0.0,0.0,0.0,0.0,0.0,0.0,0.5555,0.5566,0.5511,0.5559,0.5525,0.5439,0.5538,0.578,0.6121,0.6334,0.686,0.7588,0.7151,0.0,0.0,0.0,1.0501,1.2465,1.2735,1.2997,1.3213,1.297,1.2815,1.2712,1.2425,0.0,0.0,0.0,0.0,0.0,0.0,0.0,0.0,0.0,0.0,0.0,0.0,0.0,0.0,0.0,0.0,0.0,0.0,0.0,0.0,0.0,0.0,0.0,0.0,0.0,1.4943,1.5344,1.6032,1.6613,1.672,1.6887,1.7021,1.7021,1.7669,1.8203,1.819,1.8357,1.849,1.849,1.833,1.813,1.7929,1.7742,1.7555,1.7368,1.7348,1.7301,1.7194,1.7081,1.6894,1.66,1.6486,1.6339,1.6152,1.6039,1.6039,1.6146,1.6039,1.5939,1.5825,1.5645,1.5551,1.5551,1.5551,1.5551,1.5551,1.5551,1.5658,1.5832,1.5832,1.5718,1.5571,1.5758,1.4937,1.3454,1.2855,1.1745,1.0485,0.0,0.0,0.0,0.0,0.0,0.0,0.0,0.0,0.0,0.0,0.0,0.0,0.0,0.0,0.5718,0.5664,0.5661,0.5596,0.5447,0.5667,0.58,0.58,0.5945,0.625,0.6841,0.0,0.0,0.0,0.0,0.0,0.0,1.2552,1.2705,1.2893,1.2685,1.2712,0.0,0.0,0.0,1.2291,0.0,0.0,1.1904,0.0,0.0,0.0,0.0,0.0,0.0,0.0,0.0,0.0,0.0,0.0,0.0,0.0,0.0,0.0,0.0,0.0,0.0,0.0,0.0,1.4155,1.4456,1.5124,1.5712,1.5812,1.6066,1.6293,1.6393,1.6981,1.7482,1.7562,1.7756,1.7896,1.7896,1.7722,1.7522,1.7315,1.7114,1.6921,1.6727,1.6707,1.6707,1.6707,1.6613,1.6473,1.6286,1.6179,1.6032,1.5838,1.5832,1.5785,1.5685,1.5302,1.5061,1.4965,1.4778,1.4688,1.4688,1.5061,1.5251,1.5251,1.5251,1.5418,1.5678,1.5578,1.5424,1.5271,1.4987,1.3993,1.2549,1.1557,1.0347,0.9053,0.0,0.0,0.0,0.0,0.0,0.0,0.0,0.0,0.0,0.0,0.0,0.0,0.0,0.0,0.0,0.582,0.581,0.5749,0.5606,0.5732,0.5813,0.581,0.5956,0.6037,0.6037,0.0,0.0,0.0,0.0,0.0,0.0,0.0,1.2619,1.316,1.2565,1.2305,1.2305,0.0,1.2305,1.2291,0.0,1.1897,1.1924,0.0,0.0,0.0,1.2714,1.2829,0.0,1.2835,0.0,0.0,0.0,0.0,0.0,0.0,0.0,0.0,0.0,0.0,0.0,0.0,0.0,0.0,1.3554,1.4068,1.4576,1.4863,1.5164,1.5464,1.5752,1.6046,1.6339,1.6633,1.6693,1.6707,1.6707,1.6707,1.67,1.6693,1.6693,1.6693,1.668,1.668,1.668,1.668,1.642,1.6259,1.6259,1.5985,1.5825,1.5818,1.5812,1.5678,1.5292,1.4254,1.3466,1.3121,1.3205,1.32,1.3205,1.4398,1.495,1.495,1.4943,1.5104,1.5351,1.5077,1.4957,1.486,1.367,1.2381,1.1206,1.0202,0.8847,0.7617,0.0,0.0,0.0,0.0,0.0,0.0,0.0,0.0,0.0,0.0,0.0,0.0,0.0,0.5979,0.6013,0.5969,0.5966,0.5901,0.5752,0.5989,0.6084,0.5973,0.6115,0.6196,0.6196,0.0,0.0,0.0,0.0,0.0,0.0,0.0,0.0,0.0,1.2378,1.2305,1.2305,1.2305,0.0,0.0,1.2614,1.258,0.0,0.0,0.0,0.0,0.0,1.2893,1.308,0.0,1.3166,1.3206,0.0,0.0,0.0,0.0,0.0,0.0,1.2224,0.0,0.0,0.0,0.0,0.0,1.2973,1.3454,1.3908,1.3995,1.4409,1.4856,1.515,1.5444,1.5738,1.6025,1.6426,1.6707,1.6707,1.6707,1.6627,1.642,1.6393,1.6306,1.6092,1.6072,1.6072,1.6072,1.5999,1.5952,1.5952,1.5872,1.5732,1.5524,1.5518,1.4995,1.3787,1.3507,1.2911,1.2005,1.2647,1.2916,1.2916,1.4096,1.4643,1.4629,1.4422,1.4496,1.477,1.491,1.4836,1.4575,1.3597,1.2276,1.0795,0.9899,0.8742,0.7604,0.0,0.0,0.0,0.0,0.0,0.0,0.0,0.0,0.0,0.0,0.0,0.0,0.0,0.0,0.6101,0.6034,0.6088,0.6061,0.5908,0.6125,0.622,0.6129,0.6213,0.6338,0.6338,0.0,0.0,0.0,0.0,0.0,0.0,0.0,0.0,0.0,0.0,0.0,0.0,0.0,0.0,0.0,1.2559,0.0,0.0,1.2846,1.2832,0.0,0.0,0.0,1.354,1.3293,1.332,0.0,0.0,0.0,0.0,0.0,0.0,0.0,0.0,0.0,0.0,0.0,0.0,0.0,1.2795,1.3019,1.3307,1.3434,1.3828,1.4242,1.4543,1.4736,1.4943,1.5237,1.5571,1.5925,1.6286,1.6339,1.6273,1.6112,1.5979,1.5885,1.5832,1.5718,1.5698,1.5818,1.5832,1.5772,1.5658,1.5168,1.5039,1.5224,1.4261,1.3477,1.3046,1.2037,1.1133,1.0327,1.125,1.1699,1.1871,1.3449,1.4155,1.4142,1.3975,1.4001,1.4077,1.3806,1.3665,1.346,1.2468,1.1279,0.9869,0.898,0.8096,0.7417,0.0,0.0,0.0,0.5566,0.5616,0.5677,0.0,0.0,0.0,0.0,0.0,0.0,0.0,0.0,0.0,0.6067,0.6179,0.6203,0.6064,0.6183,0.6338,0.6338,0.6338,0.6338,0.6338,0.0,0.0,0.0,0.0,0.0,0.0,0.0,0.0,0.0,0.0,0.0,0.0,0.0,0.0,1.2305,1.2338,1.2351,0.0,0.0,1.316,1.32,1.3494,1.3788,1.3961,1.3474,1.3267,0.0,0.0,0.0,0.0,0.0,1.1935,0.0,0.0,0.0,0.0,0.0,0.0,0.0,1.2761,1.2822,1.2889,1.306,1.334,1.3634,1.3935,1.4015,1.4135,1.4429,1.4496,1.4803,1.5618,1.5732,1.5732,1.5732,1.5504,1.5451,1.5705,1.5504,1.5451,1.5712,1.5732,1.5524,1.5173,1.4217,1.3897,1.4506,1.2394,1.1623,1.2319,1.0135,0.8845,0.8493,0.9661,1.0158,1.0236,1.2416,1.3343,1.3254,1.314,1.3166,1.313,1.214,1.1879,1.2157,1.0869,0.9753,0.8736,0.7743,0.7258,0.716,0.6789,0.0,0.0,0.5721,0.5786,0.5911,0.5817,0.0,0.0,0.0,0.0,0.0,0.0,0.0,0.0,0.6217,0.6244,0.6247,0.6217,0.6244,0.6338,0.6338,0.6338,0.6338,0.6338,0.6338,0.0,0.0,0.0,0.0,0.0,0.0,0.0,0.0,0.0,0.0,0.0,0.0,0.0,1.2325,1.2565,0.0,1.2748,1.2869,1.2916,1.2879,1.3186,1.348,1.3748,1.3874,1.3601,1.3253,0.0,0.0,0.0,0.0,0.0,0.0,0.0,0.0,0.0,0.0,0.0,0.0,1.2808,1.2822,1.2768,1.2518,1.2712,1.3013,1.3327,1.3574,1.3828,1.4122,1.4369,1.4663,1.5077,1.5137,1.5137,1.5137,1.5084,1.507,1.5124,1.5084,1.507,1.513,1.5137,1.4734,1.3659,1.3385,1.2794,1.1619,1.131,1.0507,0.9312,0.8937,0.8235,0.7072,0.9028,0.9514,0.8864,1.1075,1.1652,1.0827,1.0551,1.0681,1.1001,1.038,1.0991,1.2072,1.0009,0.9061,0.8719,0.7613,0.7166,0.7143,0.7787,0.0,0.0,0.0,0.7445,0.7569,0.7569,0.0,0.0,0.0,0.0,0.0,0.0,0.0,0.0,0.0,0.6437,0.6417,0.6349,0.6329,0.6335,0.6264,0.6338,0.6338,0.6338,0.6338,0.7022,0.0,0.0,0.0,0.0,0.0,0.0,0.0,0.0,0.0,0.0,0.0,1.1627,1.1834,1.2293,0.0,1.2545,1.2768,1.2839,1.3019,1.332,1.352,1.3707,1.4155,1.3915,0.0,0.0,1.3661,1.3394,0.0,1.3093,1.2946,0.0,0.0,0.0,1.2822,0.0,0.0,0.0,1.2525,1.2525,1.2525,1.2525,1.2619,1.2926,1.2973,1.3126,1.3574,1.3641,1.3794,1.4242,1.4556,1.4689,1.4543,1.4396,1.4362,1.4509,1.395,1.3652,1.3798,1.4386,1.4134,1.2821,1.228,1.1576,1.0619,0.9409,0.8677,0.8401,0.7835,0.723,0.6586,0.8184,0.8742,0.8349,0.9946,1.0428,0.9946,0.9754,0.9831,1.0014,0.9156,0.9475,1.0282,0.9217,0.8406,0.782,0.7288,0.7095,0.7044,0.8904,0.0,0.0,0.0,0.9144,0.9163,0.9271,0.8613,0.0,0.0,0.0,0.0,0.0,0.0,0.0,0.0,0.0,0.6552,0.0,0.0,0.0,0.6305,0.6352,0.6352,0.6302,0.6274,0.7115,0.8751,0.0,0.0,0.0,0.0,0.0,0.0,0.0,0.0,0.0,0.0,0.0,1.1563,0.0,1.2425,1.2505,1.2746,1.3026,1.3333,1.3621,1.3728,1.3801,1.4275,1.4122,1.3768,1.4015,1.3921,0.0,0.0,0.0,0.0,0.0,0.0,0.0,0.0,0.0,1.2536,0.0,0.0,0.0,1.2625,1.2472,1.2378,1.2619,1.2465,1.2445,1.2879,1.2839,1.2872,1.3247,1.3761,1.4068,1.4008,1.3741,1.3674,1.3975,1.275,1.207,1.2368,1.3178,1.3052,1.1928,1.09,1.0119,0.9659,0.7593,0.7024,0.7975,0.6995,0.6458,0.651,0.745,0.7919,0.7849,0.8862,0.9247,0.9018,0.9018,0.9037,0.8992,0.809,0.7805,0.8094,0.8242,0.772,0.6898,0.7014,0.7,0.6946,0.9962,1.0049,0.0,0.0,0.9199,0.9271,0.9291,0.9226,0.0,0.0,0.0,0.0,0.0,0.0,0.0,0.0,0.0,0.0,0.6827,0.0,0.0,0.6444,0.6329,0.6318,0.6444,0.6325,0.6478,0.6842,0.0,0.0,0.0,0.0,0.0,0.0,0.7999,0.0,0.0,0.0,1.1704,0.0,1.2712,1.2866,0.0,1.3146,1.334,1.3634,1.3928,1.4035,1.4048,0.0,1.4088,1.4041,0.0,1.4062,1.3981,1.3721,0.0,0.0,0.0,0.0,0.0,0.0,1.1942,0.0,0.0,0.0,1.1554,1.2175,0.0,1.2311,1.2345,0.0,0.0,1.2058,1.2499,1.2661,1.2138,1.2351,1.2839,1.3607,1.344,1.3373,1.3667,1.2374,1.1606,1.1636,1.0864,1.0317,1.0167,0.9196,0.8135,0.7006,0.6784,0.6637,0.6542,0.6496,0.641,0.6362,0.7354,0.7354,0.6514,0.7585,0.7508,0.6669,0.6669,0.6745,0.6857,0.6567,0.6687,0.6864,0.6881,0.6805,0.6729,0.6746,0.6827,0.6929,1.1134,0.0,0.0,0.0,1.0496,1.019,1.019,1.044,0.0,0.0,0.0,0.0,0.0,0.0,0.0,0.0,0.0,0.6776,0.0,0.0,0.0,0.0,0.0,0.0,0.6471,0.6413,0.6684,0.7278,0.7435,0.0,0.0,0.0,0.0,0.0,0.7507,0.0,0.7744,0.0,1.1276,0.0,0.0,0.0,0.0,1.334,1.35,1.3915,1.4041,1.4088,1.4088,0.0,1.4088,0.0,0.0,0.0,0.0,0.0,0.0,0.0,0.0,0.0,0.0,0.0,0.0,0.0,1.1298,0.0,1.2241,1.251,0.0,0.0,0.0,0.0,0.0,0.0,1.2438,1.2405,1.2158,1.1636,1.1656,1.2722,1.2458,1.1771,1.0755,1.0268,0.9699,0.9112,0.9427,0.9391,0.8705,0.8396,0.7659,0.6428,0.624,0.6118,0.5996,0.6054,0.6098,0.6125,0.6576,0.6627,0.6338,0.6718,0.6718,0.6338,0.6338,0.6295,0.6346,0.6285,0.6332,0.6444,0.6444,0.6495,0.658,0.6668,0.6685,0.6675,1.1912,0.0,0.0,0.0,0.0,0.0,0.0,0.0,0.0,0.0,0.0,0.0,1.059,0.9836,0.0,0.0,0.0,0.7534,0.0,0.0,0.6681,0.6637,0.6678,0.0,0.0,0.0,0.6857,0.7541,0.7013,0.0,0.0,0.0,0.0,0.0,0.0,0.7855,0.7223,0.0,0.0,1.1073,1.2606,1.3514,1.3928,1.3581,1.3714,1.4088,1.4088,1.4088,1.4082,1.373,1.3822,1.3997,1.373,1.3646,1.3646,0.0,0.0,0.0,1.3997,0.0,0.0,0.0,0.0,0.0,0.0,0.0,0.0,0.0,1.2882,0.0,0.0,0.0,1.2345,1.256,0.0,1.178,1.1702,1.0724,1.0539,1.1992,1.1657,1.056,0.8867,0.8513,0.8051,0.7354,0.7997,0.8236,0.7697,0.7472,0.7028,0.6211,0.5918,0.58,0.58,0.58,0.5878,0.603,0.603,0.6112,0.6335,0.6217,0.622,0.6257,0.6217,0.622,0.6335,0.6213,0.622,0.6257,0.6217,0.6291,0.6434,0.6542,0.6542,0.6498,1.1916,1.1465,0.0,0.0,0.0,0.0,0.0,0.0,0.0,0.0,0.0,0.0,0.0,0.0,0.0,0.0,0.0,0.8927,0.9204,0.0,0.6634,0.6485,0.662,0.6698,0.0,0.0,0.0,0.6909,0.0,0.0,0.0,0.0,0.0,0.0,0.0,0.961,0.9698,1.1056,1.206,1.2709,1.3086,1.3394,1.3687,0.0,1.4075,1.4088,1.4088,1.4088,1.3913,1.2766,1.3118,1.3913,1.2766,1.2328,1.2589,0.0,0.0,0.0,1.3822,1.3209,1.2066,1.0945,0.9672,0.9017,1.0011,1.009,1.0579,0.0,0.0,1.2822,1.2822,1.2505,1.2211,0.0,1.1234,0.0,0.0,0.9212,0.9297,1.1669,1.129,1.0364,0.9187,0.8031,0.7349,0.7279,0.6305,0.6224,0.7291,0.6384,0.5885,0.5817,0.5806,0.58,0.58,0.58,0.5878,0.603,0.603,0.6112,0.6254,0.6105,0.6118,0.6251,0.6101,0.6122,0.6247,0.6098,0.6125,0.6247,0.6108,0.6149,0.6285,0.6291,0.6462,0.6589,0.0,0.0,0.0,0.0,0.0,0.0,0.0,1.0188,0.0,0.0,0.0,0.0,0.0,1.1416,1.0372,0.0,0.0,0.9158,0.8255,0.8239,0.0,0.0,0.0,0.6949,0.0,0.0,0.0,0.0,0.0,0.0,0.0,0.0,0.0,0.0,0.0,0.9703,0.0,0.0,0.0,0.0,0.0,1.3674,1.3928,1.3828,1.3915,1.4088,1.4088,1.3555,1.2942,1.3379,1.2687,1.1997,1.3124,1.2425,1.1386,1.2595,1.2589,1.2242,1.1906,1.1472,1.0864,0.9753,0.9004,0.8611,0.8945,1.0138,1.1311,1.1703,1.2427,1.2933,1.2525,1.2371,1.2044,0.0,0.0,1.0367,0.0,0.8576,0.8251,0.8689,0.8514,0.812,0.7568,0.6619,0.6048,0.6048,0.5765,0.5748,0.6139,0.5962,0.5759,0.5664,0.5661,0.5613,0.5511,0.5511,0.5586,0.5739,0.5739,0.5892,0.612,0.6013,0.5932,0.5895,0.5935,0.6003,0.5952,0.5901,0.5973,0.6105,0.6029,0.5286,0.438,0.5808,0.5439,0.4513,1.1391,0.0,0.0,0.0,0.0,0.0,0.0,0.0,0.0,0.0,1.2434,0.0,1.4436,0.0,1.1898,0.0,1.1758,1.0626,0.9003,0.9087,0.0,0.7224,0.7136,0.0,0.0,0.0,0.0,0.0,0.0,0.7053,0.0,0.0,0.0,0.0,0.0,1.0494,0.9074,0.0,1.2298,0.0,0.0,1.3734,0.0,1.3874,1.3921,1.3997,1.3646,1.2909,1.2075,1.2181,1.1382,1.0647,1.1838,1.1182,1.0167,1.1359,1.1724,1.1552,1.0783,1.0611,1.0351,0.9148,0.8455,0.8025,0.8455,1.0059,1.1322,1.0924,1.19,1.2504,1.1737,1.1441,1.1075,0.0,0.0,0.9155,0.0,0.7261,0.6907,0.6566,0.6839,0.7014,0.7022,0.6037,0.5488,0.5593,0.5542,0.5532,0.5586,0.5627,0.5603,0.5511,0.5508,0.5464,0.5369,0.5369,0.5447,0.553,0.553,0.5684,0.5906,0.5274,0.5343,0.5909,0.5795,0.5788,0.5813,0.5834,0.5833,0.5889,0.5817,0.512,0.4414,0.5752,0.3498,-0.0078,0.0,0.0,0.0,0.0,1.0309,0.0,0.0,0.0,0.9776,0.0,1.1785,1.3222,1.4993,1.5023,1.5318,1.6124,1.4952,1.332,1.141,1.0269,0.0,0.0,0.718,0.7101,0.6812,0.0,0.0,0.0,0.0,0.0,0.0,0.0,0.0,0.0,1.167,0.0,1.0807,1.2214,1.2579,1.2398,1.2979,1.3574,1.4108,1.4075,1.4068,1.3893,1.2741,1.1993,1.1289,0.9447,0.9303,0.9912,0.9038,0.8683,0.8896,1.0105,1.0514,1.0611,1.0438,1.0524,1.0351,0.9148,0.7929,0.7401,0.854,0.9662,1.0519,1.0509,1.1185,1.1438,1.0335,0.9817,0.9453,0.9438,0.833,0.7009,0.5776,0.5467,0.5435,0.5428,0.6221,0.6994,0.0,0.6309,0.5701,0.5976,0.561,0.5433,0.5572,0.5454,0.5449,0.5439,0.5452,0.5393,0.5389,0.5389,0.5396,0.5398,0.5325,0.5473,0.5751,0.389,0.4114,0.5971,0.5467,0.5412,0.5673,0.5674,0.5705,0.5755,0.547,0.5522,0.5705,0.5642,0.0614,-0.6329,1.2271,1.2279,1.2327,0.0,1.2014,1.1377,0.0,0.0,0.0,0.0,1.4847,1.5334,1.7019,1.5302,1.4289,1.5117,1.4695,0.0,0.0,0.0,0.0,0.9091,0.9719,0.9504,0.8233,0.9081,0.0,0.9363,0.0,0.0,0.8393,0.0,0.0,0.0,0.0,0.0,0.9825,1.1627,1.2632,1.2993,1.3146,1.3694,1.4362,1.3921,1.3761,1.3589,1.2563,1.1348,1.0277,0.9938,0.8859,0.7851,0.937,0.8664,0.761,0.8832,0.9885,1.0178,0.8444,0.9309,1.0091,0.8097,0.7316,0.7139,0.7489,0.8452,0.9278,0.9046,0.9817,1.0429,0.9767,0.9612,0.9247,0.0,0.0,0.0,0.0,0.0,0.5491,0.5442,0.5659,0.5847,0.5931,0.5703,0.5579,0.5549,0.5538,0.5501,0.5437,0.5596,0.564,0.5535,0.5742,0.5752,0.5538,0.5614,0.5583,0.5373,0.4069,0.4159,0.5456,0.3615,0.2356,0.1712,0.3057,0.3608,0.3492,0.3468,0.4285,0.5463,0.546,0.1963,-0.3031,-0.3069,-0.4462,-0.6329,1.2505,0.0,0.0,1.3975,0.0,0.0,1.3177,1.3111,0.0,1.5934,1.5773,0.0,1.7609,1.6519,1.5654,1.5813,1.5638,0.0,1.2948,0.0,0.0,0.9785,1.0035,0.9473,0.791,0.9016,0.0,0.8651,0.0,0.0,0.8315,0.0,0.0,0.0,0.0,1.177,1.0895,1.2035,1.2846,1.3387,1.326,1.3661,0.0,1.3821,1.3567,1.3192,1.1583,1.0413,0.9518,0.8818,0.768,0.6771,0.82,0.7828,0.6936,0.7744,0.8884,0.9488,0.7577,0.8448,0.9401,0.7577,0.7139,0.7139,0.7139,0.8013,0.8686,0.7982,0.8815,0.9423,0.8612,0.8359,0.8003,0.0,0.0,0.0,0.0,0.0,0.0,0.0,0.5416,0.5376,0.5376,0.545,0.5593,0.5793,0.4903,0.4659,0.5477,0.57,0.5677,0.5593,0.5808,0.5828,0.5679,0.5611,0.4691,0.3021,0.2013,0.2083,0.3032,0.1981,0.0954,0.0067,0.1228,0.1634,0.1543,0.1543,0.2103,0.2828,0.1039,-0.2252,-0.5953,-0.6098,-0.6247,-0.6295,0.0,0.0,0.0,0.0,0.0,0.0,0.0,1.3579,0.0,1.566,0.0,1.6322,1.7596,1.7876,1.7742,1.7141,0.0,1.6012,1.4406,1.3113,1.1672,1.0166,0.9935,0.911,0.7386,0.8376,0.0,0.0,0.0,0.0,0.0,0.0,0.0,0.0,0.0,0.0,0.0,1.2869,1.3106,1.3567,1.3353,1.3594,1.4048,1.3714,1.3346,1.2685,1.0494,0.9483,0.9022,0.7104,0.6363,0.6308,0.6583,0.6685,0.6756,0.7031,0.7914,0.8627,0.7404,0.8013,0.8627,0.7401,0.7139,0.7136,0.7115,0.7895,0.8325,0.726,0.7865,0.8289,0.7229,0.6844,0.6586,0.6329,0.6179,0.6088,0.0,0.0,0.0,0.0,0.5018,0.0,0.5399,0.5199,0.5375,0.6144,0.4087,0.3398,0.4867,0.5385,0.5676,0.5596,0.5729,0.5612,0.544,0.5483,0.3916,0.0681,0.0203,0.0,0.0,0.0,0.0,0.0,0.0,0.0,0.0,0.0,-0.0338,-0.1157,-0.4796,-0.5915,-0.5547,-0.5858,-0.6177,-0.635,0.0,0.0,0.0,0.0,0.0,1.6534,1.657,1.6847,1.7219,1.7941,1.8197,1.8256,1.8357,1.7929,1.7428,1.6834,1.6513,0.0,0.0,0.0,0.0,1.3166,1.367,1.2715,1.0048,1.0926,1.0789,0.0,0.0,0.0,0.0,0.0,0.0,0.0,0.0,0.0,1.2842,1.3019,1.3186,1.3307,1.3494,1.3774,1.4028,1.3494,1.2763,1.1712,1.0095,0.9401,0.8998,0.6979,0.6281,0.6291,0.6461,0.66,0.6736,0.6912,0.7827,0.8627,0.7404,0.8013,0.8627,0.7401,0.7139,0.7109,0.6993,0.7135,0.7186,0.6803,0.6944,0.6986,0.6695,0.6549,0.6495,0.6444,0.651,0.6462,0.0,0.0,0.0,0.0,0.0,0.3787,0.5282,0.4046,0.3868,0.5423,0.4003,0.2406,0.108,0.3863,0.554,0.5762,0.5851,0.5177,0.361,0.529,0.5577,0.44,0.1446,0.0,0.0,0.0,0.0,0.0,0.0,0.0,0.0,0.0,-0.2049,-0.5186,-0.5447,-0.5725,-0.5868,-0.5778,-0.6234,-0.6961,0.0,0.0,0.0,0.0,0.0,0.0,0.0,1.835,1.8677,1.851,1.8337,1.8176,1.8036,1.7622,1.7248,1.6961,1.6533,1.6213,1.6072,1.4641,1.3494,1.2909,1.2382,1.1151,0.8949,0.9862,0.9647,0.8305,0.0,0.0,0.0,0.7856,0.0,0.0,0.0,1.0933,0.0,1.2215,1.2594,1.2807,1.3395,1.3821,1.3951,1.2921,1.2264,1.1555,0.9498,0.876,0.8523,0.6942,0.6369,0.6396,0.6542,0.6695,0.6848,0.6997,0.7435,0.7841,0.7228,0.7492,0.7841,0.7228,0.7139,0.7102,0.6959,0.6929,0.6885,0.6732,0.6702,0.6654,0.6502,0.6471,0.6471,0.6471,0.6503,0.5984,0.4783,0.4724,0.3902,0.0,0.0,0.0,0.5205,0.4626,0.3696,0.2696,0.1905,0.1089,0.0067,0.1649,0.3494,0.5554,0.5995,0.5705,0.4748,0.358,0.2919,0.2551,0.0842,0.0,0.0,0.0,0.0,0.0,0.0,-0.1214,-0.325,-0.3291,-0.3746,-0.4496,-0.5345,-0.5674,-0.5738,-0.6157,-0.6537,-0.6873,0.0,1.5291,0.0,0.0,1.7154,1.7669,1.8384,1.8938,1.9105,1.8644,1.811,1.7749,1.7689,1.7308,1.7054,1.7054,1.6513,1.6179,1.6179,1.4002,1.2721,1.2721,1.1159,0.9823,0.8635,0.8665,0.8227,0.0,0.0,0.6661,0.6922,0.7457,0.0,0.0,0.9623,1.0198,1.0287,1.1249,1.1859,1.2234,1.2779,1.3272,1.3529,1.2052,1.1443,1.0979,0.8833,0.7967,0.7686,0.6869,0.6522,0.6542,0.6661,0.6807,0.6956,0.7099,0.7139,0.7139,0.7139,0.7139,0.7139,0.7139,0.7115,0.7058,0.6912,0.6854,0.679,0.6637,0.6607,0.6569,0.6451,0.6451,0.6474,0.6478,0.6479,0.589,0.4205,0.4555,0.3732,0.0,0.0,0.0,0.3074,0.3773,0.2905,-0.0336,-0.1015,-0.0948,-0.0067,-0.0069,0.1253,0.4171,0.5456,0.5705,0.498,0.1628,-0.0446,-0.1333,-0.1215,-0.0915,-0.0565,-0.0547,-0.0605,-0.0605,-0.0605,-0.2427,-0.5585,-0.6043,-0.5032,-0.3565,-0.5473,-0.6018,-0.5825,-0.6777,-0.718,-0.7265,0.0,0.0,0.0,0.0,0.0,1.839,1.8477,1.8764,1.8945,1.8891,1.8604,1.8303,1.8036,1.7248,1.6747,1.6747,1.6213,1.5872,1.5872,1.5553,1.5439,1.5439,1.3914,1.2877,1.2474,1.01,0.878,0.0,0.0,0.6766,0.6926,0.684,0.7499,0.8666,0.9774,1.0198,1.0213,1.058,1.1155,1.1916,1.1192,1.1536,1.2298,1.0868,0.9779,0.8937,0.8484,0.7616,0.6673,0.6637,0.6678,0.6681,0.6695,0.6807,0.6956,0.7099,0.7139,0.7139,0.7139,0.7139,0.7139,0.7139,0.7044,0.6909,0.6756,0.6614,0.6474,0.6332,0.6302,0.6298,0.6285,0.6386,0.6558,0.6582,0.6834,0.6929,0.6785,0.3183,0.0462,0.0074,0.0,0.0,-0.4081,-0.1416,-0.0336,-0.2277,-0.4486,-0.402,-0.0202,-0.0206,-0.0069,0.0474,0.3743,0.3906,0.0655,0.0214,-0.1903,-0.5724,-0.5183,-0.405,-0.2456,-0.247,-0.2477,-0.2477,-0.2477,-0.2679,-0.3153,-0.5068,-0.5705,-0.5523,-0.655,-0.6894,-0.6827,-0.7598,-0.8371,-0.9081,0.0,0.0,1.6707,1.7542,1.7689,1.7989,1.8885,1.8811,1.8664,1.8664,1.841,1.8183,1.8063,1.7248,1.6707,1.6707,1.6166,1.5832,1.5832,1.5045,1.4657,1.4657,1.2523,1.1282,1.1071,0.9026,0.796,0.0,0.7211,0.6912,0.7051,0.6905,0.7119,0.7606,0.8123,0.834,0.843,0.9971,1.0818,1.1165,1.1514,1.1895,1.2054,1.0172,0.9207,0.866,0.7689,0.7101,0.6725,0.6603,0.6624,0.6702,0.6702,0.6865,0.7065,0.7126,0.7139,0.7139,0.7139,0.7139,0.7119,0.7034,0.697,0.6865,0.662,0.6515,0.643,0.6291,0.6268,0.6271,0.6271,0.6325,0.64,0.6418,0.6537,0.6766,0.7031,0.3031,0.0,0.0,0.0,-0.1436,-0.5077,-0.4089,-0.3094,-0.2744,-0.4631,-0.5061,-0.3569,-0.1354,-0.0137,-0.0,0.1425,0.0278,-0.3734,-0.3792,-0.4006,-0.4392,-0.5261,-0.5252,-0.4538,-0.4375,-0.4411,-0.4549,-0.4409,-0.4444,-0.4781,-0.6165,-0.6643,-0.6539,-0.7414,-0.7683,-0.7687,-0.8452,-0.9314,-1.0129,1.6927,1.6867,1.7081,1.8016,1.7896,1.7996,1.8965,1.8684,1.833,1.8237,1.7963,1.7782,1.7782,1.7061,1.658,1.658,1.6119,1.5832,1.5832,1.4949,1.4268,1.3878,1.1745,1.0683,1.0853,0.8579,0.7777,0.8446,0.746,0.7041,0.7139,0.7037,0.699,0.6997,0.7095,0.7139,0.7228,0.8877,0.9744,1.0178,1.0605,1.0945,1.1117,0.9083,0.8293,0.8166,0.7126,0.677,0.682,0.6559,0.6573,0.6702,0.6702,0.6875,0.7078,0.7078,0.7105,0.7139,0.7139,0.7139,0.7105,0.6963,0.6895,0.6793,0.6532,0.6441,0.6383,0.6281,0.6271,0.6278,0.6278,0.5805,0.5529,0.6201,0.6307,0.5962,0.5156,0.2142,0.0,0.0,0.0,-0.1222,-0.4314,-0.5058,-0.4855,-0.3616,-0.4745,-0.5518,-0.5673,-0.3109,-0.1436,-0.0907,-0.0893,-0.2328,-0.5318,-0.5989,-0.5513,-0.4062,-0.5265,-0.5889,-0.5823,-0.5842,-0.6006,-0.6231,-0.6241,-0.6518,-0.6869,-0.7453,-0.7568,-0.7405,-0.8225,-0.8624,-0.8849,-0.9697,-1.0571,-1.1308,1.7455,1.7796,1.8096,1.843,1.8718,1.8811,1.8544,1.8243,1.7943,1.7635,1.7341,1.7161,1.7161,1.6633,1.6279,1.6279,1.6005,1.5832,1.5832,1.5825,1.5242,1.3974,1.2624,1.232,1.3304,0.9533,0.871,1.1033,0.844,0.7139,0.7139,0.7139,0.7139,0.7139,0.7139,0.7139,0.7139,0.7139,0.7841,0.8803,0.7665,0.7837,0.8782,0.7411,0.6932,0.6909,0.6756,0.6702,0.6678,0.6525,0.6573,0.6702,0.6702,0.6807,0.6929,0.6929,0.7031,0.7139,0.7139,0.7139,0.7105,0.6963,0.6814,0.6661,0.6508,0.6366,0.6342,0.6338,0.6271,0.6278,0.6278,0.4535,0.3837,0.5927,0.6332,0.481,0.0707,0.0,0.0,0.0,0.0,-0.0713,-0.2559,-0.4378,-0.5399,-0.5365,-0.5583,-0.5614,-0.5403,-0.5528,-0.4827,-0.3142,-0.307,-0.3079,-0.3169,-0.5231,-0.6304,-0.6274,-0.6118,-0.5966,-0.602,-0.662,-0.7034,-0.7336,-0.804,-0.8548,-0.8739,-0.8518,-0.8358,-0.8472,-0.9043,-0.9761,-1.0551,-1.1447,-1.2266,-1.2948,1.7549,1.7655,1.7822,1.8136,1.809,1.8116,1.8437,1.7889,1.7468,1.7569,1.6981,1.6553,1.6553,1.6386,1.6273,1.6273,1.5999,1.5832,1.5832,1.5832,1.5635,1.5242,1.3108,1.2012,1.2416,0.923,0.7944,0.8717,0.762,0.7139,0.7139,0.7139,0.7139,0.7139,0.7139,0.7139,0.7139,0.8013,0.854,0.889,0.8452,0.854,0.8798,0.7523,0.7014,0.6909,0.6756,0.6634,0.6536,0.6488,0.6441,0.6417,0.6515,0.6722,0.6929,0.6929,0.7031,0.7139,0.7139,0.7068,0.6987,0.6939,0.6736,0.6532,0.6481,0.6363,0.6338,0.6338,0.6278,0.5889,0.438,0.2425,0.1176,0.1885,0.2043,0.1571,0.0157,0.0,0.0,0.0,-0.2545,-0.3919,-0.3057,-0.4686,-0.5713,-0.5528,-0.5566,-0.5576,-0.5528,-0.5507,-0.5335,-0.4857,-0.5142,-0.5297,-0.5266,-0.5957,-0.6659,-0.733,-0.7151,-0.7358,-0.7946,-0.8321,-0.8563,-0.8558,-0.8776,-0.8929,-0.9047,-0.9383,-0.9785,-1.0192,-1.0965,-1.1636,-1.2274,-1.2837,-1.333,-1.3881,1.7582,1.7675,1.7782,1.7856,1.7809,1.7809,1.7963,1.7515,1.7134,1.7094,1.6613,1.6226,1.6119,1.6106,1.6106,1.6106,1.5939,1.5832,1.5832,1.5832,1.5635,1.514,1.3494,1.2389,1.1824,0.9502,0.8307,0.8244,0.7437,0.7139,0.7139,0.7139,0.7139,0.7139,0.7139,0.7139,0.7139,0.7929,0.8189,0.8189,0.8189,0.8189,0.8097,0.7341,0.7007,0.6909,0.6756,0.6637,0.6549,0.6491,0.6413,0.6346,0.6383,0.6559,0.6756,0.6756,0.6902,0.7061,0.7061,0.7034,0.6983,0.6871,0.6742,0.6627,0.6569,0.6454,0.6434,0.6434,0.6329,0.5908,0.4553,0.196,0.0,0.0,0.0,0.0,0.0,0.0,0.0,0.0,-0.3697,-0.5803,-0.4455,-0.5315,-0.5922,-0.5677,-0.5722,-0.5732,-0.5674,-0.5554,-0.5563,-0.5721,-0.6417,-0.6818,-0.688,-0.7231,-0.7752,-0.8385,-0.8257,-0.8494,-0.9021,-0.9522,-0.9728,-0.9737,-1.0014,-1.0388,-1.0882,-1.1192,-1.171,-1.2358,-1.26,-1.3145,-1.3716,-1.3802,-1.4267,-1.4999,1.7582,1.7802,1.7896,1.7602,1.7776,1.7762,1.7201,1.7121,1.6914,1.6346,1.6273,1.6159,1.5865,1.5832,1.5832,1.5832,1.5832,1.5832,1.5832,1.5832,1.5242,1.3974,1.3878,1.3188,1.1637,1.0184,0.9426,0.9144,0.7738,0.7139,0.7139,0.7139,0.7139,0.7139,0.7139,0.7139,0.7139,0.7129,0.7126,0.7126,0.7112,0.7115,0.7109,0.698,0.6929,0.6909,0.6766,0.6709,0.6678,0.6536,0.6488,0.6464,0.6332,0.6376,0.6471,0.6471,0.6688,0.6929,0.6929,0.7024,0.7061,0.6797,0.6831,0.6885,0.6722,0.6675,0.6589,0.6589,0.6413,0.6329,0.6329,0.2829,0.0,0.0,0.0,0.0,0.0,0.0,0.0,0.0,-0.3597,-0.6132,-0.6277,-0.6161,-0.5988,-0.582,-0.6022,-0.6036,-0.5878,-0.5906,-0.5899,-0.5885,-0.6968,-0.7663,-0.7931,-0.8841,-0.9296,-0.9372,-0.9463,-0.9539,-0.9518,-1.0267,-1.0724,-1.1069,-1.1716,-1.2692,-1.3787,-1.3558,-1.3962,-1.4756,-1.4005,-1.4299,-1.4994,-1.4611,-1.5185,-1.6247,1.7582,1.7462,1.7341,1.7268,1.7128,1.6974,1.6834,1.6807,1.668,1.6319,1.6273,1.6159,1.5865,1.5832,1.5832,1.5832,1.5832,1.5832,1.5832,1.5832,1.5242,1.3974,1.3878,1.2785,1.0414,0.9789,0.8905,0.7634,0.7245,0.7139,0.7139,0.7139,0.7139,0.7139,0.7139,0.7139,0.7132,0.7024,0.6976,0.697,0.6851,0.6875,0.6973,0.6943,0.6929,0.6922,0.6888,0.68,0.6695,0.6658,0.6647,0.6641,0.6607,0.6539,0.6471,0.6471,0.6688,0.6929,0.6929,0.6953,0.699,0.7027,0.6983,0.6858,0.6586,0.6599,0.6589,0.6589,0.6413,0.6329,0.6329,0.2829,0.0,0.0,0.0,0.0,0.0,0.0,0.0,0.0,-0.2321,-0.4498,-0.6116,-0.6249,-0.6184,-0.5983,-0.6667,-0.7123,-0.694,-0.7952,-0.8116,-0.7139,-0.7327,-0.7957,-0.8917,-0.9145,-0.9669,-1.049,-1.1456,-1.1834,-1.1626,-1.2009,-1.2506,-1.2997,-1.323,-1.3886,-1.4871,-1.479,-1.5074,-1.561,-1.5424,-1.5716,-1.6302,-1.6777,-1.6961,-1.7054,1.7582,1.7455,1.7348,1.7348,1.7101,1.686,1.6727,1.6593,1.64,1.6112,1.6072,1.6012,1.5845,1.5832,1.5832,1.5832,1.5832,1.5832,1.5832,1.5832,1.5534,1.4752,1.4752,1.3532,1.0835,1.0515,0.9336,0.7139,0.7139,0.7139,0.7139,0.7139,0.7139,0.7139,0.7139,0.7139,0.7136,0.7058,0.7024,0.7017,0.6936,0.6953,0.7024,0.7024,0.7024,0.7024,0.7024,0.6929,0.6803,0.6803,0.6759,0.6702,0.6702,0.6644,0.6563,0.6491,0.6637,0.6824,0.6824,0.6922,0.7044,0.7122,0.7034,0.6905,0.6814,0.6791,0.6791,0.6798,0.4996,0.3383,0.3383,0.1571,0.0,0.0,0.0,0.0,0.0,-0.1638,-0.2987,-0.3224,-0.4117,-0.5195,-0.6401,-0.6471,-0.6634,-0.6927,-0.7443,-0.7851,-0.8145,-0.9045,-0.914,-0.8235,-0.8856,-0.9417,-0.9965,-1.061,-1.1205,-1.1734,-1.2575,-1.2872,-1.2726,-1.2886,-1.3321,-1.3896,-1.3896,-1.4672,-1.586,-1.586,-1.6234,-1.6852,-1.7034,-1.7288,-1.7663,-1.8243,-1.843,-1.8463,1.7508,1.7442,1.7388,1.7388,1.7141,1.6867,1.6613,1.64,1.6166,1.5872,1.5872,1.5879,1.5832,1.5832,1.5832,1.5832,1.5832,1.5832,1.5832,1.5832,1.573,1.5534,1.573,1.4456,1.1472,1.1062,0.9653,0.7177,0.7177,0.7163,0.7139,0.7139,0.7139,0.7139,0.7139,0.7139,0.7139,0.7115,0.7109,0.7105,0.7085,0.7088,0.7105,0.7082,0.7088,0.7105,0.7082,0.701,0.6929,0.6929,0.6858,0.6766,0.6766,0.6753,0.6709,0.658,0.6634,0.6729,0.6709,0.6915,0.7136,0.7112,0.7034,0.6993,0.7024,0.6781,0.6706,0.7063,0.3273,0.0,0.0,0.0,0.0,0.0,0.0,-0.0234,-0.084,-0.4042,-0.6499,-0.7006,-0.6777,-0.6647,-0.6788,-0.6709,-0.7051,-0.802,-0.8162,-0.865,-0.9426,-0.9962,-1.0076,-0.9717,-1.0713,-1.1218,-1.1133,-1.2298,-1.2896,-1.2896,-1.3126,-1.3253,-1.3213,-1.3365,-1.3804,-1.4456,-1.4551,-1.5444,-1.6844,-1.6973,-1.7482,-1.823,-1.8739,-1.8892,-1.8966,-1.9414,-1.9795,-2.0023,1.7168,1.6814,1.648,1.648,1.6233,1.6019,1.5972,1.6139,1.6166,1.5872,1.6046,1.6106,1.5852,1.5832,1.5832,1.5832,1.5832,1.5832,1.5832,1.5832,1.5343,1.4262,1.5242,1.4058,1.0342,0.9003,0.8001,0.7336,0.7336,0.7268,0.7139,0.7139,0.7139,0.7139,0.7139,0.7139,0.7132,0.701,0.6963,0.6949,0.682,0.6848,0.6949,0.6817,0.6851,0.6946,0.6814,0.6837,0.6929,0.6929,0.6993,0.7071,0.7071,0.699,0.6888,0.6865,0.6875,0.6865,0.6736,0.6915,0.7112,0.6993,0.7034,0.6997,0.691,0.5464,0.4667,0.6694,0.331,0.0,0.0,0.0,0.0,0.0,0.0,-0.1255,-0.4784,-0.5914,-0.6452,-0.6729,-0.6666,-0.6647,-0.6788,-0.6709,-0.7177,-0.8277,-0.9161,-1.0103,-1.1248,-1.2419,-1.2859,-1.2537,-1.1964,-1.1988,-1.2831,-1.3034,-1.314,-1.314,-1.3434,-1.3447,-1.3213,-1.4045,-1.4767,-1.5389,-1.6014,-1.6848,-1.7852,-1.8566,-1.8967,-1.9166,-1.9998,-2.0287,-2.0348,-2.0656,-2.0758,-2.0866,1.6881,1.6693,1.6506,1.6506,1.6266,1.6072,1.6072,1.6046,1.5985,1.5845,1.5945,1.5979,1.5845,1.5832,1.5832,1.5832,1.5832,1.5832,1.5832,1.5832,1.5534,1.4949,1.5534,1.423,1.0924,0.8852,0.7624,0.7248,0.7329,0.7292,0.7139,0.7139,0.7139,0.7136,0.7061,0.7024,0.7017,0.6868,0.6807,0.6807,0.6817,0.6865,0.6929,0.6936,0.6936,0.6919,0.6848,0.6868,0.6929,0.6929,0.7021,0.7139,0.7139,0.7095,0.7027,0.6953,0.6929,0.6929,0.6936,0.7037,0.7126,0.7058,0.7092,0.7041,0.7001,0.5249,0.3566,0.3354,0.1551,0.0,0.0,0.0,0.0,0.0,0.0,-0.1585,-0.6131,-0.6575,-0.6596,-0.6899,-0.6826,-0.679,-0.6932,-0.7536,-0.8336,-0.9308,-1.0367,-1.1462,-1.2479,-1.3238,-1.3499,-1.3447,-1.2801,-1.2724,-1.3213,-1.3367,-1.3447,-1.3447,-1.4295,-1.4686,-1.4543,-1.5576,-1.6293,-1.6741,-1.708,-1.776,-1.8721,-1.91,-1.9562,-2.0074,-2.0974,-2.1302,-2.1393,-2.191,-2.2115,-2.2161,1.6587,1.6547,1.65,1.65,1.6319,1.6166,1.6166,1.5979,1.5832,1.5832,1.5832,1.5832,1.5832,1.5832,1.5832,1.5832,1.5832,1.5832,1.5832,1.5832,1.5832,1.5832,1.5242,1.3886,1.1621,0.9092,0.7624,0.7248,0.7329,0.7292,0.7139,0.7139,0.7122,0.7085,0.6976,0.6909,0.6868,0.6749,0.6702,0.6715,0.6868,0.6929,0.6943,0.7051,0.7024,0.6919,0.6848,0.6868,0.6922,0.6888,0.6993,0.7139,0.7139,0.7139,0.7119,0.701,0.6976,0.7,0.7109,0.7139,0.7139,0.7139,0.7143,0.7068,0.7094,0.567,0.3606,0.063,0.0,0.0,0.0,0.0,0.0,0.0,0.0,-0.1464,-0.5713,-0.6688,-0.6964,-0.7008,-0.6966,-0.7107,-0.7478,-0.8364,-0.9429,-1.0621,-1.1528,-1.2377,-1.3346,-1.3621,-1.3823,-1.4063,-1.3682,-1.3487,-1.3801,-1.4028,-1.422,-1.4465,-1.5584,-1.6108,-1.6101,-1.7,-1.7493,-1.7701,-1.7944,-1.8555,-1.9299,-1.9759,-2.0268,-2.0974,-2.1815,-2.2199,-2.2249,-2.2884,-2.3185,-2.342,1.6253,1.6086,1.5892,1.5892,1.5879,1.5865,1.5865,1.5845,1.5832,1.5832,1.5832,1.5832,1.5832,1.5832,1.5832,1.5832,1.5832,1.5832,1.5832,1.5832,1.5832,1.5832,1.3494,1.2124,1.19,0.9224,0.7729,0.7567,0.7434,0.7292,0.7139,0.7139,0.7068,0.6946,0.6932,0.6851,0.6715,0.6705,0.6702,0.6715,0.6868,0.6929,0.6929,0.6943,0.6939,0.6892,0.6607,0.6688,0.6909,0.6766,0.6905,0.7139,0.7139,0.7139,0.7139,0.7129,0.7126,0.7126,0.7136,0.7139,0.7139,0.7139,0.7068,0.7088,0.7098,0.693,0.5512,0.0919,0.0,0.0,0.0,0.0,0.0,0.0,0.0,-0.0943,-0.3531,-0.5993,-0.7386,-0.6936,-0.7044,-0.7566,-0.8627,-0.889,-0.9831,-1.1958,-1.2213,-1.2814,-1.3937,-1.4041,-1.4538,-1.5501,-1.4594,-1.4504,-1.5546,-1.5569,-1.607,-1.7058,-1.7163,-1.7172,-1.7155,-1.7501,-1.7689,-1.7739,-1.8735,-1.9229,-1.9431,-2.1037,-2.1753,-2.1877,-2.2702,-2.3017,-2.3005,-2.3078,-2.3603,-2.4221,1.5979,1.5905,1.5832,1.5832,1.5832,1.5832,1.5832,1.5832,1.5832,1.5832,1.5832,1.5832,1.5832,1.5832,1.5832,1.5832,1.5832,1.5832,1.5832,1.5045,1.4657,1.4657,1.2915,1.1492,1.0592,0.8798,0.7695,0.7458,0.74,0.7292,0.7139,0.7051,0.698,0.6919,0.6729,0.6614,0.6552,0.6464,0.6427,0.6441,0.6586,0.6647,0.6658,0.6753,0.6787,0.6773,0.6654,0.6749,0.6919,0.6861,0.6973,0.7139,0.7139,0.7207,0.7302,0.7397,0.7424,0.7404,0.7309,0.7214,0.7139,0.7139,0.7068,0.6723,0.5277,0.6022,0.5729,0.0936,0.0,0.0,0.0,0.0,0.0,0.0,-0.2774,-0.4736,-0.3984,-0.6068,-0.7592,-0.7207,-0.7336,-0.784,-0.9072,-0.988,-1.112,-1.2732,-1.338,-1.3905,-1.4355,-1.4839,-1.5545,-1.6683,-1.6281,-1.6281,-1.6683,-1.6683,-1.6927,-1.7342,-1.7989,-1.839,-1.8381,-1.9118,-1.9531,-1.9499,-1.9957,-2.042,-2.0974,-2.1628,-2.2187,-2.2689,-2.3005,-2.3424,-2.3865,-2.4261,-2.4628,-2.5118,1.5832,1.5832,1.5832,1.5832,1.5832,1.5832,1.5832,1.5832,1.5832,1.5832,1.5832,1.5832,1.5832,1.5832,1.5832,1.5832,1.5832,1.5832,1.5832,1.4657,1.3686,1.3295,1.2037,1.0807,0.9904,0.8457,0.7645,0.7444,0.7346,0.7244,0.7139,0.7041,0.697,0.6919,0.6658,0.6519,0.6464,0.6322,0.6338,0.6352,0.6417,0.6471,0.6495,0.6695,0.6773,0.6773,0.6773,0.6868,0.699,0.6946,0.7021,0.7149,0.7197,0.7319,0.7465,0.7567,0.76,0.7577,0.7472,0.7366,0.7275,0.7141,0.7091,0.6678,0.5024,0.476,0.3977,0.0669,0.0,0.0,0.0,0.0,-0.0569,-0.2247,-0.5588,-0.7297,-0.5405,-0.6711,-0.7702,-0.7451,-0.7944,-0.8718,-0.9813,-1.1036,-1.2265,-1.3548,-1.4184,-1.469,-1.5023,-1.6126,-1.7082,-1.7827,-1.8149,-1.831,-1.831,-1.798,-1.798,-1.8381,-1.9116,-1.9668,-1.9953,-2.0544,-2.1059,-2.1311,-2.1431,-2.1879,-2.2428,-2.2693,-2.3059,-2.3427,-2.3882,-2.4136,-2.4443,-2.5453,-2.5819,-2.5936,1.5832,1.5832,1.5832,1.5832,1.5832,1.5832,1.5832,1.5832,1.5832,1.5832,1.5832,1.5832,1.5832,1.5832,1.5832,1.5832,1.5832,1.5832,1.5825,1.4555,1.3295,1.1945,1.0681,0.9998,0.9998,0.8413,0.76,0.7597,0.7292,0.7139,0.7139,0.7139,0.7061,0.6922,0.677,0.6617,0.6464,0.6325,0.6264,0.6274,0.6417,0.6471,0.6505,0.681,0.6926,0.6926,0.6929,0.7021,0.7119,0.6976,0.7024,0.7166,0.7322,0.7478,0.76,0.76,0.76,0.7604,0.76,0.7604,0.7476,0.7158,0.7053,0.7073,0.7095,0.3436,0.0,0.0,0.0,0.0,0.0,-0.0,-0.1796,-0.7149,-0.8007,-0.7935,-0.7746,-0.7852,-0.7887,-0.7621,-0.8954,-1.0211,-1.1216,-1.2249,-1.3267,-1.4435,-1.4529,-1.5023,-1.6104,-1.7941,-1.9045,-1.9045,-2.0079,-2.0644,-2.0644,-1.952,-1.952,-2.0566,-2.0644,-2.1078,-2.2017,-2.1565,-2.1937,-2.2917,-2.3323,-2.3513,-2.358,-2.4406,-2.4494,-2.4179,-2.555,-2.5368,-2.4553,-2.6607,-2.699,-2.6611,1.5832,1.5832,1.5832,1.5832,1.5832,1.5832,1.5832,1.5832,1.5832,1.5832,1.5832,1.5832,1.5832,1.5832,1.5832,1.5832,1.5832,1.5439,1.4561,1.3132,1.1803,1.0468,1.0121,0.9547,0.8459,0.7882,0.7546,0.7441,0.7238,0.7139,0.7139,0.7037,0.697,0.6922,0.677,0.6617,0.6474,0.6542,0.6508,0.6413,0.6454,0.6471,0.6481,0.6573,0.6675,0.6783,0.6892,0.7021,0.7132,0.7092,0.7105,0.7166,0.7322,0.7546,0.7746,0.7746,0.7824,0.7885,0.7777,0.7838,0.7774,0.7422,0.5965,0.5045,0.6706,0.3436,0.0,0.0,0.0,0.0,0.0,-0.3091,-0.6129,-0.7768,-0.8041,-0.8004,-0.7946,-0.8739,-0.9377,-0.9188,-1.0372,-1.1758,-1.2856,-1.338,-1.4465,-1.6613,-1.7377,-1.8088,-1.893,-1.9241,-2.008,-2.1587,-2.1594,-2.1886,-2.2638,-2.0991,-2.0245,-2.0644,-2.1298,-2.1735,-2.2027,-2.2635,-2.3194,-2.3793,-2.3928,-2.414,-2.4406,-2.4678,-2.5078,-2.5537,-2.5942,-2.6557,-2.7314,-2.8396,-2.8739,-2.8729,1.5832,1.5832,1.5832,1.5832,1.5832,1.5832,1.5832,1.5832,1.5832,1.5832,1.5832,1.5832,1.5832,1.5832,1.5832,1.5832,1.5832,1.5,1.3155,1.2241,1.0905,0.9052,0.9022,0.8646,0.7729,0.7584,0.7465,0.737,0.7217,0.7139,0.7139,0.7051,0.701,0.7007,0.6858,0.6739,0.6654,0.6685,0.6647,0.6563,0.6563,0.6563,0.6569,0.663,0.6712,0.681,0.6959,0.7068,0.7149,0.721,0.7309,0.7424,0.7516,0.7709,0.7899,0.7899,0.7967,0.8021,0.7926,0.7987,0.7723,0.6357,0.5741,0.5169,0.4495,0.2049,0.0,0.0,0.0,-0.0695,-0.2779,-0.5827,-0.7992,-0.7987,-0.8028,-0.8168,-0.8748,-0.9521,-1.0151,-1.0605,-1.1859,-1.2956,-1.3673,-1.4628,-1.6058,-1.8117,-1.904,-1.9748,-2.0355,-2.0504,-2.1176,-2.2652,-2.2457,-2.2671,-2.3514,-2.2339,-2.1756,-2.1745,-2.2339,-2.2776,-2.322,-2.3818,-2.446,-2.5107,-2.5107,-2.54,-2.596,-2.596,-2.6321,-2.6972,-2.751,-2.8026,-2.8568,-2.9769,-2.9977,-2.9678,1.5832,1.5832,1.5832,1.5832,1.5832,1.5832,1.5832,1.5832,1.5832,1.5832,1.5832,1.5832,1.5832,1.5832,1.5832,1.5832,1.5805,1.4621,1.2026,1.1874,1.0637,0.7886,0.7791,0.7692,0.756,0.7438,0.7363,0.735,0.721,0.7139,0.7139,0.7139,0.7139,0.7136,0.7004,0.6943,0.6919,0.6793,0.6732,0.6722,0.6722,0.6722,0.6736,0.6875,0.6929,0.6949,0.7088,0.7139,0.7163,0.7319,0.7567,0.7811,0.7797,0.7906,0.8035,0.8024,0.8028,0.8038,0.8041,0.7959,0.7463,0.4926,0.616,0.6589,0.1212,0.0,0.0,0.0,-0.0404,-0.2221,-0.7098,-0.8022,-0.8009,-0.7979,-0.8069,-0.8652,-0.9805,-1.019,-1.0779,-1.1945,-1.3301,-1.407,-1.4256,-1.626,-1.801,-1.9179,-1.9998,-2.0552,-2.0925,-2.155,-2.2301,-2.2945,-2.2882,-2.3199,-2.3869,-2.3943,-2.3751,-2.3514,-2.3588,-2.4108,-2.5004,-2.5075,-2.5664,-2.6533,-2.6589,-2.704,-2.7736,-2.7802,-2.8052,-2.8549,-2.9797,-2.9666,-2.8898,-3.0832,-3.0833,-3.0021,1.5832,1.5832,1.5832,1.5832,1.5832,1.5832,1.5832,1.5832,1.5832,1.5832,1.5832,1.5832,1.5832,1.5832,1.5832,1.5832,1.5618,1.4891,1.3492,1.2074,1.0644,0.9153,0.7935,0.7272,0.7241,0.7326,0.7312,0.719,0.7156,0.7139,0.7139,0.7139,0.7139,0.7139,0.7109,0.7034,0.6932,0.701,0.698,0.6878,0.6878,0.6878,0.6881,0.6915,0.6929,0.6949,0.7088,0.7139,0.7163,0.7319,0.7567,0.779,0.7682,0.7828,0.8018,0.7896,0.7946,0.8041,0.7962,0.7975,0.7889,0.729,0.762,0.6603,0.1212,0.0,0.0,0.0,-0.3334,-0.6586,-0.7818,-0.8002,-0.7982,-0.7975,-0.8844,-0.9715,-0.9998,-1.1745,-1.3199,-1.3392,-1.4561,-1.5805,-1.6734,-1.9034,-2.0534,-2.0811,-2.1826,-2.2534,-2.2543,-2.2427,-2.3132,-2.4919,-2.4635,-2.5318,-2.7054,-2.7127,-2.5874,-2.3514,-2.4264,-2.4791,-2.5016,-2.5804,-2.6314,-2.6521,-2.7162,-2.7537,-2.7736,-2.8427,-2.9171,-2.9886,-3.0151,-3.0543,-3.0877,-3.1304,-3.1671,-3.1975,1.5798,1.5718,1.5665,1.5805,1.5832,1.5832,1.5832,1.5832,1.5832,1.5832,1.5832,1.5832,1.5832,1.5705,1.5565,1.5431,1.5531,1.4727,1.269,1.1794,1.0438,0.8454,0.7649,0.7217,0.7143,0.7221,0.7221,0.7139,0.7139,0.7139,0.7139,0.7139,0.7139,0.7139,0.7139,0.7099,0.7034,0.7109,0.7099,0.7031,0.7031,0.7031,0.7031,0.7031,0.7037,0.6967,0.7041,0.7072,0.7126,0.7453,0.7654,0.7923,0.7838,0.7916,0.8024,0.7943,0.7984,0.7959,0.7969,0.7992,0.8009,0.8022,0.6083,0.3441,0.0606,0.0,-0.0707,-0.3332,-0.6075,-0.8019,-0.8002,-0.7985,-0.8168,-0.8844,-0.9517,-1.0485,-1.1648,-1.3,-1.4166,-1.4752,-1.5439,-1.6567,-1.8411,-2.0215,-2.1569,-2.2129,-2.2765,-2.3299,-2.3877,-2.375,-2.4419,-2.6358,-2.6184,-2.6723,-2.8109,-2.8109,-2.7274,-2.573,-2.6191,-2.6357,-2.6113,-2.6631,-2.6967,-2.7095,-2.755,-2.8182,-2.9002,-2.9442,-3.0133,-3.0896,-3.0896,-3.1146,-3.1524,-3.191,-3.2664,-3.3489,1.5698,1.5565,1.5484,1.5778,1.5832,1.5832,1.5832,1.5832,1.5832,1.5832,1.5832,1.5812,1.5758,1.5538,1.5284,1.499,1.5404,1.4328,1.1304,1.1365,1.0205,0.7282,0.7278,0.7272,0.7143,0.7139,0.7139,0.7139,0.7139,0.7139,0.7139,0.7139,0.7139,0.7139,0.7139,0.7139,0.7139,0.7139,0.7139,0.7139,0.7143,0.7058,0.7058,0.7061,0.7071,0.7088,0.6631,0.6536,0.6596,0.6888,0.7426,0.7972,0.7955,0.8048,0.8048,0.8048,0.7962,0.7975,0.7982,0.8002,0.8026,0.8029,0.323,-0.1414,-0.1414,-0.1414,-0.2523,-0.6478,-0.7708,-0.8009,-0.7979,-0.8168,-0.8748,-0.9805,-1.0386,-1.1453,-1.3584,-1.407,-1.4657,-1.5635,-1.6197,-1.7296,-1.9579,-2.0935,-2.2031,-2.3047,-2.3135,-2.3637,-2.4702,-2.4787,-2.56,-2.7376,-2.7442,-2.7726,-2.8398,-2.8398,-2.8398,-2.8398,-2.8398,-2.8059,-2.7419,-2.7448,-2.7618,-2.7868,-2.8026,-2.8939,-3.0329,-3.045,-3.0896,-3.1482,-3.1482,-3.1582,-3.1796,-3.2625,-3.3633,-3.4525,1.5398,1.5424,1.5484,1.5778,1.5832,1.5832,1.5832,1.5832,1.5832,1.5832,1.5832,1.5732,1.5484,1.5424,1.5284,1.499,1.5037,1.401,1.1425,1.0929,0.9739,0.7427,0.7231,0.7163,0.7139,0.7139,0.7139,0.7139,0.7139,0.7139,0.7139,0.7139,0.7139,0.7139,0.7139,0.7139,0.7139,0.7139,0.7139,0.7143,0.7074,0.7081,0.7081,0.7091,0.7098,0.6828,0.4828,0.4036,0.4085,0.4095,0.5871,0.7985,0.7985,0.7982,0.7982,0.7982,0.7985,0.7992,0.8012,0.8022,0.8029,0.8049,0.0504,-0.6894,-0.6894,-0.6894,-0.6478,-0.483,-0.6348,-0.7979,-0.7975,-0.8943,-0.9805,-0.9998,-1.1935,-1.3488,-1.3872,-1.4854,-1.5635,-1.5737,-1.7662,-1.9579,-2.0935,-2.2129,-2.295,-2.3057,-2.3135,-2.3637,-2.4702,-2.4787,-2.5742,-2.7909,-2.7977,-2.8542,-2.9566,-2.9566,-2.9566,-2.9566,-2.9566,-2.9013,-2.7971,-2.8195,-2.8379,-2.8477,-2.9463,-3.0072,-3.0329,-3.1029,-3.1409,-3.1482,-3.1482,-3.191,-3.2586,-3.3887,-3.4431,-3.4589,1.5304,1.5264,1.5244,1.5538,1.5718,1.5772,1.5611,1.5725,1.5772,1.5611,1.5585,1.5478,1.519,1.5297,1.5217,1.4756,1.4463,1.3338,1.1018,1.0224,0.9118,0.7331,0.7177,0.7139,0.7139,0.7061,0.7021,0.7021,0.7102,0.7099,0.7024,0.7102,0.7099,0.7021,0.7021,0.7065,0.7136,0.6974,0.6994,0.7071,0.7088,0.6275,0.5184,0.5188,0.5925,0.6591,0.2941,0.1604,0.1549,0.1564,0.2479,0.3822,0.5334,0.5739,0.5739,0.5739,0.6865,0.8012,0.8022,0.577,0.2826,-0.0202,-0.4545,-0.8019,-0.8002,-0.7995,-0.7685,-0.6445,-0.7949,-0.9363,-0.9137,-1.0203,-1.1263,-1.2037,-1.3199,-1.4166,-1.4854,-1.5439,-1.6015,-1.6763,-1.9031,-2.0747,-2.1203,-2.2394,-2.3135,-2.3135,-2.3135,-2.3887,-2.563,-2.5724,-2.6789,-2.8937,-2.9028,-2.9275,-2.9792,-2.9792,-2.9792,-2.9792,-2.9792,-2.9365,-2.8561,-2.9275,-2.9638,-2.9835,-3.0899,-3.1442,-3.1574,-3.1886,-3.1869,-3.1524,-3.1951,-3.2772,-3.3786,-3.4382,-3.4847,-3.5157]}]]